[[{"header":{"parameterUnit":"m.s-1","parameterCategory":1,"la1":30.6,"la2":29.2853,"lo1":-89.7004,"lo2":-87.6739,"dy":0.0162,"dx":0.0183,"nx":112,"ny":82,"refTime":"2025-02-26T06:00:00:Z","depth":0,"parameterNumber":2,"parameterNumberName":"U-component_of_WINDS"},"data":[0.0,0.0,0.0,0.0,0.0,0.0,0.0,0.0,0.0,0.0,0.0,0.0,0.0,0.0,0.0,0.0,0.0,0.0,0.0,0.0,0.0,0.0,0.0,0.0,0.0,0.0,0.0,0.0,0.0,0.0,0.0,0.0,0.0,0.0,0.0,0.0,0.0,0.0,0.0,0.0,0.0,0.0,0.0,0.0,0.0,0.0,0.0,0.0,0.0,0.0,0.0,0.0,0.0,0.0,0.0,0.0,0.0,0.0,0.0,0.0,0.0,0.0,0.0,0.0,0.0,0.0,0.0,0.0,0.0,0.0,0.0,0.0,0.0,0.0,0.0,0.0,0.0,0.0,0.0,0.0,0.0,0.0,0.0,0.0,0.0,0.0,0.0,0.0,0.0,0.0,3.8305,3.9357,4.3526,4.6215,4.6215,4.5397,4.2747,3.772,0.0,0.0,0.0,0.0,0.0,0.0,0.0,0.0,0.0,0.0,0.0,0.0,0.0,0.0,0.0,0.0,0.0,0.0,0.0,0.0,0.0,0.0,0.0,0.0,0.0,0.0,0.0,0.0,0.0,0.0,0.0,0.0,0.0,0.0,0.0,0.0,0.0,0.0,0.0,0.0,0.0,0.0,0.0,0.0,0.0,0.0,0.0,0.0,0.0,0.0,0.0,0.0,0.0,0.0,0.0,0.0,0.0,0.0,0.0,0.0,0.0,0.0,0.0,0.0,0.0,0.0,0.0,0.0,0.0,0.0,0.0,0.0,0.0,0.0,0.0,0.0,0.0,0.0,0.0,0.0,0.0,0.0,0.0,0.0,0.0,0.0,0.0,0.0,0.0,0.0,0.0,0.0,0.0,0.0,0.0,0.0,0.0,0.0,0.0,0.0,0.0,0.0,0.0,0.0,3.7448,4.3293,4.528,4.6215,4.6215,4.5397,4.302,3.8578,0.0,0.0,0.0,0.0,0.0,0.0,0.0,0.0,0.0,0.0,0.0,0.0,0.0,0.0,0.0,0.0,0.0,0.0,0.0,0.0,0.0,0.0,0.0,0.0,0.0,0.0,0.0,0.0,0.0,0.0,0.0,0.0,0.0,0.0,0.0,0.0,0.0,0.0,0.0,0.0,0.0,0.0,0.0,0.0,0.0,0.0,0.0,0.0,0.0,0.0,0.0,0.0,0.0,0.0,0.0,0.0,0.0,0.0,0.0,0.0,0.0,0.0,0.0,0.0,0.0,0.0,0.0,0.0,0.0,0.0,0.0,0.0,0.0,0.0,0.0,0.0,0.0,0.0,0.0,0.0,0.0,0.0,0.0,0.0,0.0,0.0,0.0,0.0,0.0,0.0,0.0,0.0,0.0,0.0,0.0,0.0,0.0,0.0,0.0,0.0,0.0,0.0,0.0,3.6084,3.9006,4.4968,4.5942,4.6215,4.6215,4.5397,4.3059,3.8772,3.6045,0.0,0.0,0.0,0.0,0.0,0.0,0.0,0.0,0.0,0.0,0.0,0.0,0.0,0.0,0.0,0.0,0.0,0.0,0.0,0.0,0.0,0.0,0.0,0.0,0.0,0.0,0.0,0.0,0.0,0.0,0.0,0.0,0.0,0.0,0.0,0.0,0.0,0.0,0.0,0.0,0.0,0.0,0.0,0.0,0.0,0.0,0.0,0.0,0.0,0.0,0.0,0.0,0.0,0.0,0.0,0.0,0.0,0.0,0.0,0.0,0.0,0.0,0.0,0.0,0.0,0.0,0.0,0.0,0.0,0.0,0.0,0.0,0.0,0.0,0.0,0.0,0.0,0.0,0.0,0.0,0.0,0.0,0.0,0.0,0.0,0.0,0.0,0.0,0.0,0.0,0.0,0.0,0.0,0.0,0.0,0.0,0.0,0.0,0.0,0.0,0.0,0.0,3.9941,4.1617,4.5748,4.6215,4.6215,4.6215,4.4851,4.2357,3.8422,3.5382,0.0,0.0,0.0,0.0,0.0,0.0,0.0,0.0,0.0,0.0,0.0,0.0,0.0,0.0,0.0,0.0,0.0,0.0,0.0,0.0,0.0,0.0,0.0,0.0,0.0,0.0,0.0,0.0,0.0,0.0,0.0,0.0,0.0,0.0,0.0,0.0,0.0,0.0,0.0,0.0,0.0,0.0,0.0,0.0,0.0,0.0,0.0,0.0,0.0,0.0,0.0,0.0,0.0,0.0,0.0,0.0,0.0,0.0,0.0,0.0,0.0,0.0,0.0,0.0,0.0,0.0,0.0,0.0,0.0,0.0,0.0,0.0,0.0,0.0,0.0,0.0,0.0,0.0,0.0,0.0,0.0,0.0,0.0,0.0,0.0,0.0,0.0,0.0,0.0,0.0,0.0,0.0,0.0,0.0,0.0,0.0,0.0,0.0,0.0,0.0,0.0,0.0,4.1071,4.489,4.6059,4.6215,4.6215,4.6215,4.3215,4.0214,3.7448,3.3395,0.0,0.0,0.0,0.0,0.0,0.0,0.0,0.0,0.0,0.0,0.0,0.0,0.0,0.0,0.0,0.0,0.0,0.0,0.0,0.0,0.0,0.0,0.0,0.0,0.0,0.0,0.0,0.0,0.0,0.0,0.0,0.0,0.0,0.0,0.0,0.0,0.0,0.0,0.0,0.0,0.0,0.0,0.0,0.0,0.0,0.0,0.0,0.0,0.0,0.0,0.0,0.0,0.0,0.0,0.0,0.0,0.0,0.0,0.0,0.0,0.0,0.0,0.0,0.0,0.0,0.0,0.0,0.0,0.0,0.0,0.0,0.0,0.0,0.0,0.0,0.0,0.0,0.0,0.0,0.0,0.0,0.0,0.0,0.0,0.0,0.0,0.0,0.0,0.0,0.0,0.0,0.0,0.0,0.0,0.0,0.0,0.0,0.0,0.0,0.0,0.0,0.0,3.9786,4.3487,4.5942,4.6215,4.6215,4.6215,4.4501,4.1695,3.7487,0.0,0.0,0.0,0.0,0.0,0.0,0.0,0.0,0.0,0.0,0.0,0.0,0.0,0.0,0.0,0.0,0.0,0.0,0.0,0.0,0.0,0.0,0.0,0.0,0.0,0.0,0.0,0.0,0.0,0.0,0.0,0.0,0.0,0.0,0.0,0.0,0.0,0.0,0.0,0.0,0.0,0.0,0.0,0.0,0.0,0.0,0.0,0.0,0.0,0.0,0.0,0.0,0.0,0.0,0.0,0.0,0.0,0.0,0.0,0.0,0.0,0.0,0.0,0.0,0.0,0.0,0.0,0.0,0.0,0.0,0.0,0.0,0.0,0.0,0.0,0.0,0.0,0.0,0.0,0.0,0.0,0.0,0.0,0.0,0.0,0.0,0.0,0.0,0.0,0.0,0.0,0.0,0.0,0.0,0.0,0.0,0.0,0.0,0.0,0.0,0.0,0.0,3.5616,3.9902,4.3604,4.5942,4.6215,4.6215,4.6215,4.4423,4.1422,3.7058,0.0,0.0,0.0,0.0,0.0,0.0,0.0,0.0,0.0,0.0,0.0,0.0,0.0,0.0,0.0,0.0,0.0,0.0,0.0,0.0,0.0,0.0,0.0,0.0,0.0,0.0,0.0,0.0,0.0,0.0,0.0,0.0,0.0,0.0,0.0,0.0,0.0,0.0,0.0,0.0,0.0,0.0,0.0,0.0,0.0,0.0,0.0,0.0,0.0,0.0,0.0,0.0,0.0,0.0,0.0,0.0,0.0,0.0,0.0,0.0,0.0,0.0,0.0,0.0,0.0,0.0,0.0,0.0,0.0,0.0,0.0,0.0,0.0,0.0,0.0,0.0,0.0,0.0,0.0,0.0,0.0,0.0,0.0,0.0,0.0,0.0,0.0,0.0,0.0,0.0,0.0,0.0,0.0,0.0,0.0,0.0,0.0,0.0,0.0,0.0,0.0,0.0,3.5928,4.1929,4.6215,4.6215,4.6215,4.6215,4.6215,4.2279,3.8694,0.0,0.0,0.0,0.0,0.0,0.0,0.0,0.0,0.0,0.0,0.0,0.0,0.0,0.0,0.0,0.0,0.0,0.0,0.0,0.0,0.0,0.0,0.0,0.0,0.0,0.0,0.0,0.0,0.0,0.0,0.0,0.0,0.0,0.0,0.0,0.0,0.0,0.0,0.0,0.0,0.0,0.0,0.0,0.0,0.0,0.0,0.0,0.0,0.0,0.0,0.0,0.0,0.0,0.0,0.0,0.0,0.0,0.0,0.0,0.0,0.0,0.0,0.0,0.0,0.0,0.0,0.0,0.0,0.0,0.0,0.0,0.0,0.0,0.0,0.0,0.0,0.0,0.0,0.0,0.0,0.0,0.0,0.0,0.0,0.0,0.0,0.0,0.0,0.0,0.0,0.0,0.0,0.0,0.0,0.0,0.0,0.0,0.0,0.0,0.0,0.0,0.0,0.0,3.6746,4.2318,4.6215,4.6215,4.6215,4.6215,4.6215,4.3332,3.9941,3.6123,0.0,0.0,0.0,0.0,0.0,0.0,0.0,0.0,0.0,0.0,0.0,0.0,0.0,0.0,0.0,0.0,0.0,0.0,0.0,0.0,0.0,0.0,0.0,0.0,0.0,0.0,0.0,0.0,0.0,0.0,0.0,0.0,0.0,0.0,0.0,0.0,0.0,0.0,0.0,0.0,0.0,0.0,0.0,0.0,0.0,0.0,0.0,0.0,0.0,0.0,0.0,0.0,0.0,0.0,0.0,0.0,0.0,0.0,0.0,0.0,0.0,0.0,0.0,0.0,0.0,0.0,0.0,0.0,0.0,0.0,0.0,0.0,0.0,0.0,0.0,0.0,0.0,0.0,0.0,0.0,0.0,0.0,0.0,0.0,0.0,0.0,0.0,0.0,0.0,0.0,0.0,0.0,0.0,0.0,0.0,0.0,0.0,0.0,0.0,0.0,0.0,0.0,3.7097,4.2474,4.6215,4.6215,4.6215,4.6215,4.6215,4.4111,4.0994,3.6707,0.0,0.0,0.0,0.0,0.0,0.0,0.0,0.0,0.0,0.0,0.0,0.0,0.0,0.0,0.0,0.0,0.0,0.0,0.0,0.0,0.0,0.0,0.0,0.0,0.0,0.0,0.0,0.0,0.0,0.0,0.0,0.0,0.0,0.0,0.0,0.0,0.0,0.0,0.0,0.0,0.0,0.0,0.0,0.0,0.0,0.0,0.0,0.0,0.0,0.0,0.0,0.0,0.0,0.0,0.0,0.0,0.0,0.0,0.0,0.0,0.0,0.0,0.0,0.0,0.0,0.0,0.0,0.0,0.0,0.0,0.0,0.0,0.0,0.0,0.0,0.0,0.0,0.0,0.0,0.0,0.0,0.0,0.0,0.0,0.0,0.0,0.0,0.0,0.0,0.0,0.0,0.0,0.0,0.0,0.0,0.0,0.0,0.0,0.0,0.0,0.0,0.0,3.7286,4.263,4.6332,4.641,4.6371,4.6332,4.6332,4.4656,4.1812,3.7603,0.0,0.0,0.0,0.0,0.0,0.0,0.0,0.0,0.0,0.0,0.0,0.0,0.0,0.0,0.0,0.0,0.0,0.0,0.0,0.0,0.0,0.0,0.0,0.0,0.0,0.0,0.0,0.0,0.0,0.0,0.0,0.0,0.0,0.0,0.0,0.0,0.0,0.0,0.0,0.0,0.0,0.0,0.0,0.0,0.0,0.0,0.0,0.0,0.0,0.0,0.0,0.0,0.0,0.0,0.0,0.0,0.0,0.0,0.0,0.0,3.2927,3.1291,0.0,0.0,0.0,0.0,0.0,0.0,0.0,0.0,0.0,0.0,0.0,0.0,0.0,0.0,0.0,0.0,0.0,0.0,0.0,0.0,0.0,0.0,0.0,0.0,0.0,0.0,0.0,0.0,0.0,0.0,0.0,0.0,0.0,0.0,0.0,0.0,0.0,0.0,0.0,0.0,3.8864,4.3863,4.7501,4.8164,4.7618,4.7228,4.7228,4.5007,4.2046,3.8461,3.4993,0.0,0.0,0.0,0.0,0.0,0.0,0.0,0.0,0.0,0.0,0.0,0.0,0.0,0.0,0.0,0.0,0.0,0.0,0.0,0.0,0.0,0.0,0.0,0.0,0.0,0.0,0.0,0.0,0.0,0.0,0.0,0.0,0.0,0.0,0.0,0.0,0.0,0.0,0.0,0.0,0.0,0.0,0.0,0.0,0.0,0.0,0.0,0.0,0.0,0.0,0.0,0.0,0.0,0.0,0.0,0.0,0.0,0.0,0.0,3.6785,3.5265,0.0,0.0,0.0,0.0,0.0,0.0,0.0,0.0,0.0,0.0,0.0,0.0,0.0,0.0,0.0,0.0,0.0,0.0,0.0,0.0,0.0,0.0,0.0,0.0,0.0,0.0,0.0,0.0,0.0,0.0,0.0,0.0,0.0,0.0,0.0,0.0,0.0,0.0,0.0,0.0,3.8743,4.36,4.7003,4.7431,4.7143,4.6878,4.6878,4.5241,4.2942,3.9941,3.6902,0.0,0.0,0.0,0.0,0.0,0.0,0.0,0.0,0.0,0.0,0.0,0.0,0.0,0.0,0.0,0.0,0.0,0.0,0.0,0.0,0.0,0.0,0.0,0.0,0.0,0.0,0.0,0.0,0.0,0.0,0.0,0.0,0.0,0.0,0.0,0.0,0.0,0.0,0.0,0.0,0.0,0.0,0.0,0.0,0.0,0.0,0.0,0.0,0.0,0.0,0.0,0.0,0.0,4.2064,4.2889,4.2935,4.4299,4.5358,4.5787,4.15,4.0448,4.1461,3.7564,0.0,0.0,0.0,0.0,0.0,0.0,0.0,0.0,0.0,0.0,0.0,0.0,0.0,0.0,0.0,0.0,0.0,0.0,0.0,0.0,0.0,0.0,0.0,0.0,3.9431,3.9293,3.4778,0.0,0.0,0.0,0.0,0.0,0.0,0.0,0.0,0.0,0.0,0.0,3.8723,4.3276,4.6376,4.6532,4.645,4.6395,4.6395,4.5577,4.4051,4.1675,3.9228,3.6384,0.0,0.0,0.0,0.0,0.0,0.0,0.0,0.0,0.0,0.0,0.0,0.0,0.0,0.0,0.0,0.0,0.0,0.0,0.0,0.0,0.0,0.0,0.0,0.0,0.0,0.0,0.0,0.0,0.0,0.0,0.0,0.0,3.1738,3.2636,0.0,0.0,0.0,0.0,0.0,0.0,0.0,0.0,0.0,0.0,0.0,0.0,0.0,4.1026,4.2666,4.4967,4.6573,4.7469,4.9138,4.9948,4.994,5.0174,5.0338,5.0424,4.9722,0.0,4.4228,4.2163,0.0,0.0,0.0,0.0,0.0,0.0,0.0,0.0,0.0,0.0,0.0,0.0,0.0,0.0,0.0,0.0,0.0,0.0,0.0,0.0,0.0,0.0,4.4798,4.3964,4.3925,4.3713,0.0,3.7918,3.3749,3.1543,3.018,0.0,0.0,0.0,0.0,0.0,0.0,0.0,4.1207,4.486,4.7416,4.8194,4.7611,4.7155,4.7155,4.6377,4.5084,4.3287,4.1496,3.9264,3.6533,3.3301,0.0,0.0,0.0,0.0,0.0,0.0,0.0,0.0,0.0,0.0,0.0,0.0,0.0,0.0,0.0,0.0,0.0,0.0,0.0,0.0,0.0,0.0,0.0,0.0,0.0,0.0,0.0,0.0,0.0,3.1697,3.369,3.4081,3.4664,3.4114,0.0,0.0,0.0,0.0,0.0,0.0,0.0,0.0,0.0,4.3576,4.4816,4.6245,4.8008,4.9145,5.0338,5.1671,5.2411,5.326,5.4234,5.4234,5.4468,5.4835,5.3385,5.171,4.9722,4.6527,4.4033,4.2046,0.0,0.0,0.0,0.0,3.8928,3.9279,4.1617,4.2085,4.15,4.0409,0.0,0.0,0.0,0.0,0.0,0.0,0.0,3.956,0.0,0.0,4.6294,4.6886,4.7025,4.6882,4.6484,4.3868,4.0372,0.0,3.5262,3.3968,3.0296,3.0056,0.0,0.0,0.0,3.9331,4.1722,4.4676,4.6651,4.7039,4.6763,4.6579,4.6579,4.623,4.5491,4.4238,4.3043,4.1457,3.9332,3.6462,3.3667,0.0,0.0,0.0,0.0,0.0,0.0,0.0,0.0,0.0,0.0,0.0,0.0,0.0,0.0,0.0,0.0,0.0,0.0,0.0,0.0,0.0,0.0,0.0,0.0,0.0,0.0,0.0,0.0,3.4426,3.6342,3.6345,3.7864,3.7588,0.0,0.0,0.0,0.0,0.0,0.0,4.2623,4.3567,4.564,4.915,4.9579,5.0811,5.3033,5.3019,5.3752,5.5217,5.5208,5.587,5.7126,5.7156,5.7477,5.7914,5.6035,5.5217,5.4866,5.0346,4.7852,4.6644,4.4306,4.3254,4.3176,4.3955,4.4267,4.4656,4.7501,4.8047,4.7189,4.5241,4.3994,4.2669,3.924,0.0,0.0,0.0,0.0,4.1918,4.4285,4.5974,4.7397,4.8729,4.9022,4.8982,4.8971,4.8192,4.5996,0.0,4.01,3.8869,3.4593,3.4178,0.0,3.5098,3.8164,4.1081,4.2744,4.4886,4.619,4.619,4.6046,4.5953,4.5953,4.5953,4.5681,4.5021,4.4248,4.3132,4.1616,3.9293,3.6853,3.4201,0.0,0.0,0.0,0.0,0.0,0.0,0.0,0.0,0.0,0.0,0.0,0.0,0.0,0.0,0.0,0.0,0.0,0.0,0.0,0.0,0.0,0.0,0.0,0.0,0.0,0.0,0.0,0.0,0.0,4.0795,4.2318,0.0,0.0,0.0,0.0,4.0707,4.3173,4.5402,4.7198,4.8057,5.0078,5.3565,5.2854,5.4033,5.7421,5.7421,5.783,5.8741,5.8763,5.8792,5.887,5.887,5.8918,5.8918,5.8802,5.8724,5.8334,5.3229,5.0151,4.8748,4.9333,4.9099,4.8514,4.9333,4.9605,4.9761,5.0774,5.1086,5.1008,5.0891,4.8631,4.5825,4.4773,4.3293,0.0,0.0,4.5163,4.6286,4.799,4.907,4.9702,4.9744,4.9757,4.973,4.9659,4.8948,4.7569,0.0,4.3027,4.1287,3.9429,0.0,3.8528,4.0164,4.1932,4.3711,4.5374,4.6457,4.7052,4.7052,4.6317,4.5814,4.5814,4.5814,4.5775,4.5736,4.5054,4.4238,4.3307,4.1606,3.9481,3.6842,3.343,0.0,0.0,0.0,0.0,0.0,0.0,0.0,0.0,0.0,0.0,0.0,0.0,0.0,0.0,0.0,0.0,0.0,0.0,0.0,0.0,0.0,0.0,0.0,0.0,0.0,0.0,0.0,0.0,4.3478,4.5164,0.0,4.363,4.4762,4.5703,4.6011,4.7459,4.9298,5.1609,5.196,5.3405,5.6367,5.6602,5.7328,5.8609,5.857,5.8983,5.9815,5.9278,5.9278,5.9824,5.9269,5.8996,5.8957,5.7866,5.7672,5.7983,5.5606,5.397,5.2801,5.1398,5.0657,5.0385,5.0112,5.0346,5.0891,5.1203,5.132,5.132,5.132,5.0463,4.941,4.9099,4.8592,4.8202,4.8826,4.962,5.0373,5.0977,5.1725,5.2352,5.2343,5.1826,5.1411,5.1383,5.0627,4.9591,4.8188,4.6472,4.4755,4.3053,4.2937,4.3131,4.3247,4.4678,4.6148,4.7308,4.7734,4.7734,4.7154,4.6806,4.6419,4.5838,4.58,4.5568,4.5065,4.4821,4.402,4.255,4.1989,4.0438,3.7827,3.6007,3.3055,0.0,0.0,0.0,0.0,0.0,0.0,0.0,0.0,0.0,0.0,0.0,0.0,0.0,0.0,0.0,0.0,0.0,0.0,0.0,0.0,0.0,0.0,0.0,0.0,0.0,4.1402,4.4562,4.5694,4.7888,4.8747,4.7211,4.9206,5.0533,5.0533,5.1908,5.3435,5.5192,5.524,5.6138,5.8158,5.8454,5.8733,5.9065,5.9026,5.9299,5.9854,5.9278,5.9278,5.9832,5.9278,5.8996,5.8957,5.7827,5.7633,5.8061,5.7243,5.6386,5.5489,5.4048,5.3307,5.2995,5.2411,5.2567,5.2995,5.2723,5.2216,5.1749,5.1749,5.1554,5.132,5.132,5.132,5.132,5.132,5.1676,5.2057,5.2036,5.2418,5.2796,5.277,5.2264,5.1833,5.1833,5.1324,5.0751,5.021,4.8933,4.754,4.6109,4.6303,4.6496,4.5955,4.7076,4.8198,4.8778,4.8856,4.8624,4.8043,4.7463,4.6883,4.6303,4.5722,4.5181,4.4639,4.437,4.3453,4.1661,4.1633,4.0587,3.8257,3.7096,3.4543,3.0559,0.0,0.0,0.0,0.0,0.0,0.0,0.0,0.0,0.0,0.0,0.0,0.0,0.0,0.0,0.0,0.0,0.0,0.0,0.0,0.0,0.0,0.0,0.0,4.1081,4.4904,4.7635,4.7718,5.0767,5.1859,4.934,5.2166,5.4167,5.4167,5.6402,5.7773,5.783,5.7807,5.8153,5.9059,5.8273,5.8199,5.8987,5.8987,5.8996,5.9014,5.8966,5.8957,5.8957,5.8918,5.8918,5.8918,5.8918,5.8957,5.888,5.8061,5.7243,5.6619,5.7321,5.7126,5.6425,5.6425,5.6425,5.6308,5.545,5.4048,5.2645,5.2645,5.206,5.1398,5.1398,5.1398,5.1398,5.1398,5.1326,5.1278,5.1214,5.1153,5.1073,5.0999,5.0983,5.0945,5.0945,5.0945,5.0906,5.0906,5.0287,4.9475,4.8624,4.8469,4.8469,4.8469,4.9204,0.0,4.9745,4.9745,4.9745,4.9707,4.8198,4.7154,4.7115,4.5606,4.4639,4.4562,4.3788,4.255,4.0887,4.0848,4.0036,3.8373,3.6632,3.4891,3.3218,0.0,0.0,0.0,0.0,0.0,0.0,0.0,0.0,0.0,0.0,0.0,0.0,0.0,0.0,0.0,0.0,0.0,0.0,0.0,0.0,0.0,4.0716,4.3563,4.3824,4.7039,5.0321,5.2805,5.4501,5.5684,5.6212,5.7122,5.7713,5.7701,5.72,5.7395,5.8676,5.7545,5.7506,5.8975,5.8788,5.8771,5.9005,5.9005,5.9005,5.8975,5.8343,5.807,5.8031,5.7438,5.7204,5.7204,5.7204,5.7516,5.8022,5.7788,5.7555,5.7282,5.6269,5.5372,5.4593,5.4593,5.4593,5.4593,5.4359,5.3931,5.3541,5.3541,5.3385,5.319,5.319,5.319,5.3182,5.3147,5.3088,5.3058,5.2952,5.2898,5.287,5.2779,5.2298,5.1834,5.1834,5.137,5.0906,5.0906,5.0712,5.048,5.0248,5.021,5.021,5.021,5.0442,0.0,5.0558,5.0558,5.0364,4.9745,4.9281,4.8469,4.7192,4.6689,4.5606,4.3788,4.344,4.2821,4.1699,4.1661,4.1429,4.0965,3.8063,3.6323,0.0,0.0,0.0,0.0,0.0,0.0,0.0,0.0,0.0,0.0,0.0,0.0,0.0,0.0,0.0,0.0,0.0,0.0,0.0,0.0,0.0,0.0,4.4772,4.7957,4.9074,5.0959,5.3234,5.5989,5.6751,5.7421,5.8414,5.8545,5.8552,5.8545,5.796,5.7999,5.9006,5.8116,5.7836,5.8445,5.8468,5.8304,5.7953,5.7953,5.7953,5.7953,5.7446,5.7213,5.7174,5.6706,5.6503,5.6503,5.6503,5.6775,5.7204,5.7204,5.7204,5.7126,0.0,0.0,0.0,0.0,5.4749,5.4437,5.4437,5.4203,5.3892,5.3892,5.3892,5.3883,5.3866,5.3584,5.3302,5.3213,5.2947,5.2601,5.2524,5.2482,5.2477,5.243,5.2028,5.1641,5.1641,5.1254,5.0906,5.0906,5.0906,0.0,5.0906,5.0906,5.0906,5.0906,5.0906,5.0906,5.0906,5.0906,5.0712,5.0248,4.99,4.9281,4.8275,4.7192,0.0,0.0,0.0,4.2899,4.2048,4.1661,0.0,0.0,0.0,0.0,0.0,0.0,0.0,0.0,3.729,3.7058,0.0,0.0,0.0,0.0,0.0,0.0,0.0,0.0,0.0,0.0,0.0,0.0,0.0,0.0,0.0,0.0,4.8899,5.2512,5.5139,5.5584,5.6215,5.7736,5.786,5.7814,5.7836,5.7892,5.7946,5.7938,5.8577,5.8928,5.8874,5.8772,0.0,0.0,0.0,5.7213,5.6503,5.6503,5.6503,5.6503,5.6503,5.6503,5.6503,5.6503,5.6503,5.6503,5.6503,5.6503,5.6503,5.6503,5.6503,5.658,5.7282,5.7126,5.6503,5.6503,5.5996,5.5333,5.5333,0.0,0.0,5.4048,5.3961,5.3875,5.3828,5.3273,5.264,5.2562,5.193,5.1294,5.128,5.1145,5.1061,5.1061,5.0983,5.0906,5.0906,5.0906,5.0906,5.0906,5.0906,5.0906,5.0906,5.0906,5.0906,5.0906,5.0906,5.0906,5.0906,5.0906,5.0906,5.0906,0.0,0.0,4.9707,4.7579,4.6148,4.5955,4.4562,4.3363,4.2628,4.1893,4.1854,4.255,4.3247,4.3943,4.4755,4.5529,4.5993,4.5993,4.1274,4.0268,0.0,0.0,0.0,0.0,0.0,0.0,0.0,0.0,0.0,0.0,0.0,0.0,0.0,0.0,0.0,4.841,5.1512,5.4305,5.6917,5.7844,5.8382,5.8732,5.8203,5.8055,5.8671,5.8811,5.8811,5.8757,5.8336,5.8016,5.7953,5.7338,5.6901,5.6736,5.6736,5.6658,5.6503,5.6503,5.6503,5.6503,5.6503,0.0,5.6503,5.6503,5.6503,5.6503,5.6503,5.6503,5.6503,5.6503,5.6503,5.6503,5.6658,5.6619,5.6503,5.6503,5.6386,5.623,5.623,5.5684,5.4944,5.4944,5.445,5.3828,5.3779,5.3662,0.0,5.3404,5.3288,5.3146,5.3058,5.2508,5.195,5.195,5.1409,5.0906,5.0906,5.0906,5.0906,5.0906,5.0906,5.0906,5.0906,5.0906,5.0906,5.0906,5.0906,5.0906,5.0906,5.0906,5.0906,5.0906,5.0751,5.0403,4.9745,4.9243,4.8353,4.6922,4.6535,4.6303,4.6109,4.5955,4.5955,4.6109,4.5568,4.5413,4.5568,4.6419,4.7192,4.785,4.549,4.4639,0.0,0.0,0.0,0.0,0.0,0.0,0.0,0.0,0.0,0.0,0.0,4.1026,4.2694,0.0,4.9001,5.157,5.4117,5.6402,5.8172,5.839,5.849,5.8957,5.8265,5.7922,5.8312,5.8009,5.7783,5.7728,5.7377,5.7143,5.7087,5.6697,5.6503,5.6503,5.6503,5.6503,5.6503,5.6503,5.6503,5.6503,5.6503,5.6503,5.6503,5.6503,5.6503,5.6503,5.6503,5.6503,5.6503,5.6503,5.6503,5.6503,5.6503,5.6503,5.6503,5.6503,5.6503,5.6503,5.6503,5.6191,5.584,5.584,5.5511,5.5142,5.5073,5.473,5.4385,5.427,5.3931,5.3567,5.353,5.3188,5.284,5.284,5.2531,5.2221,5.2221,5.2221,5.2066,5.1641,5.1563,5.1409,5.0983,5.0906,5.0906,5.0906,5.0906,5.0906,5.0906,5.0906,5.0906,5.0906,5.0906,5.0751,5.0326,4.9939,4.9126,4.7811,4.7734,4.7734,4.7734,4.7734,4.7734,4.7734,4.8159,4.8353,4.8353,4.9668,5.0519,5.0945,5.0094,4.9436,0.0,0.0,0.0,0.0,0.0,0.0,0.0,0.0,3.8297,4.1225,4.3329,4.532,4.7342,5.0254,5.2857,5.4417,5.6223,5.7758,5.8632,5.8156,5.7905,5.8451,5.7905,5.7477,5.7477,5.6892,5.6503,5.6503,5.6619,5.6736,5.6736,5.6892,5.697,5.697,5.697,5.697,5.697,5.697,5.697,5.697,5.697,5.697,5.697,5.6814,5.6736,5.6697,5.658,5.6503,5.6503,5.6503,5.6503,5.6503,5.6503,5.6503,5.6503,5.6503,5.6503,5.6503,5.6503,5.6503,5.6503,5.6503,5.6464,5.6446,5.6308,5.5796,5.523,5.5147,5.4568,5.3978,5.4,5.3884,5.373,5.373,5.3614,5.3498,5.3498,5.3498,5.3304,5.2569,5.2453,5.2221,5.1525,5.1409,5.1293,5.0945,5.1061,5.1138,5.1138,5.1293,5.1409,5.1409,5.1409,5.1409,5.1409,5.0828,5.0132,4.9436,4.9397,4.9397,4.9397,4.9397,4.9397,4.9397,5.0712,5.1409,5.1409,5.2801,5.3575,5.373,5.373,5.3304,3.654,3.5135,3.5213,3.7321,3.7438,3.8609,0.0,0.0,4.3997,4.8096,4.8556,4.9215,5.2503,5.225,5.2818,5.6719,5.6932,5.6917,5.7719,5.7749,5.7477,5.6853,5.6697,5.6619,5.6619,5.6541,5.6503,5.6503,5.7165,5.7555,5.7555,5.8295,5.8724,5.8724,5.8724,5.8724,5.8724,5.8724,5.8724,5.8724,5.8724,5.8724,5.8685,5.7905,5.7555,5.7516,5.6814,5.6503,5.6503,5.6503,5.6503,5.6503,5.6503,5.6503,5.6503,5.6503,5.6503,5.6503,5.6503,5.6503,5.6503,5.6503,5.6437,5.6308,5.6251,5.6149,5.6032,5.5924,5.5846,5.58,5.5719,5.52,5.4658,5.4658,5.4039,5.3498,5.3498,5.3498,5.3459,5.3382,5.3343,5.3304,5.3227,5.3227,5.2685,5.1138,5.1563,5.2028,5.2028,5.2724,5.3227,5.3227,5.3227,5.3227,5.3227,5.3111,5.3033,5.2956,5.2917,5.2917,5.2917,5.2917,5.2917,5.2917,5.3111,5.3227,5.3227,5.3382,5.3884,5.4658,5.4658,5.4194,4.1771,4.06,4.021,0.0,4.2045,4.3411,4.6846,4.712,4.7471,5.0282,5.1371,5.2108,5.3084,5.4273,5.5549,0.0,5.712,5.7338,5.7697,5.7329,5.6697,5.584,5.6191,5.6503,5.6503,5.6503,5.6697,5.7165,5.7516,5.8139,5.9152,5.9542,5.9971,6.0516,6.0516,6.0282,5.9776,5.9776,5.9503,5.8996,5.8996,5.9269,5.9737,5.9386,5.9191,5.9152,5.7788,5.7204,5.7165,5.6697,5.6503,5.6503,5.6503,5.6503,5.6503,5.6503,5.6503,5.6503,5.6503,5.6503,5.6503,5.6503,5.6455,5.6388,5.6286,5.6251,5.6187,5.6087,5.604,5.6062,5.6012,5.5741,5.5509,5.5509,5.5238,5.4967,5.4967,5.4967,5.4813,5.4349,5.4271,5.4116,5.3575,5.3498,5.3265,5.2531,5.2724,5.2956,5.2956,5.3265,5.3498,5.3498,5.3498,5.3498,5.3498,5.3498,5.3498,5.3498,5.3498,5.3498,5.3498,5.3498,5.3498,5.3498,5.4,5.4271,5.4271,5.4735,5.5161,5.5509,5.5509,5.5316,4.4504,0.0,0.0,4.466,4.6066,4.7588,4.8447,4.9111,4.993,5.1453,5.2581,5.3396,5.3699,5.5366,5.6758,5.6829,5.7159,5.7377,5.7424,5.6909,5.6269,5.5645,5.6113,5.6503,5.6503,5.6503,5.6814,5.7633,5.7905,5.8724,6.0204,6.0516,6.0945,6.1568,6.1607,6.1295,6.0672,6.0672,6.036,5.9737,5.9737,6.0049,6.0633,6.0399,6.0165,5.9854,5.8334,5.7711,5.7633,5.6814,5.6503,5.6503,5.6503,5.6503,5.6503,5.6503,5.6503,5.6503,5.6503,5.6503,5.6503,5.6503,5.6503,5.6455,5.6329,5.6263,5.6201,5.6117,5.604,5.6012,5.6012,5.6012,5.6012,5.6012,5.6012,5.6012,5.6012,5.6012,5.5818,5.5238,5.5122,5.4929,5.431,5.4194,5.4194,5.4194,5.4194,5.4116,5.3884,5.4039,5.4194,5.4194,5.4194,5.4194,5.4194,5.4194,5.4194,5.4194,5.4194,5.4194,5.4194,5.4194,5.4194,5.4194,5.4813,5.5122,5.5122,5.5741,5.6012,5.6012,5.6012,5.6128,0.0,0.0,4.5363,4.7081,4.8759,5.0204,5.1102,5.1297,5.157,5.2468,5.203,5.2489,5.5767,5.5093,5.484,5.7361,5.7081,5.6527,5.655,5.6503,5.6503,5.6464,5.6464,5.6503,0.0,5.6503,5.6814,5.7633,5.849,5.9347,6.0243,6.1101,6.1568,6.1607,6.1607,6.1607,6.1568,6.1568,6.1568,6.1529,6.1529,6.1529,6.1529,6.0672,5.9854,5.8996,5.81,5.7711,5.7633,5.6814,5.6503,5.6503,5.6503,5.6503,5.6503,5.6503,5.6503,5.6503,5.6503,5.6503,5.6503,5.6503,5.6503,5.6455,5.6329,5.6263,5.6201,5.6117,5.604,5.6012,5.6012,5.6012,5.6012,5.6012,5.6012,5.6012,5.6012,5.6012,5.6012,5.5973,5.5973,5.5973,5.5935,5.5935,5.5935,5.5935,5.5935,5.5625,5.4851,5.5432,5.5935,5.5935,5.5935,5.5935,5.5935,5.5935,5.5935,5.5935,5.5935,5.5935,5.5935,5.5935,5.5935,5.5935,5.5935,5.5973,5.5973,5.6012,5.6012,5.6012,5.6012,5.6437,4.6261,0.0,4.7939,4.9696,5.0555,5.118,5.2078,5.2273,5.2351,5.2624,5.2928,5.3308,5.3855,5.4417,5.506,5.5911,5.6761,5.7096,5.6589,5.697,5.6892,5.5762,5.6152,0.0,0.0,0.0,5.7321,5.9269,5.9152,6.0126,6.2698,6.2581,6.2698,6.3244,6.3244,6.301,6.2465,6.2465,6.2153,6.1607,6.2192,6.2465,6.2465,6.2153,6.188,6.149,6.0049,5.9425,5.9347,5.849,5.8139,5.8139,5.8139,5.8139,5.81,5.7516,5.7282,5.7204,5.6697,5.6503,5.6503,5.6503,5.6503,5.6455,5.6329,5.6263,5.6201,5.6117,5.604,5.6012,5.6012,5.6012,5.6012,5.6012,5.6012,5.6012,5.6012,5.6012,5.6012,5.6012,5.6012,5.6012,5.6012,5.6012,5.6012,5.6012,5.6012,5.5896,5.5625,5.5818,5.6012,5.6012,5.6012,5.6012,5.6012,5.6012,5.6012,5.6012,5.6012,5.6012,5.6012,5.6012,5.6012,5.6012,5.6012,5.6012,5.6012,5.6012,5.6321,5.6863,5.6863,5.7327,4.8642,4.9501,5.0204,5.2273,5.2546,5.2468,5.3053,5.3171,5.2975,5.2351,5.2694,5.2996,5.2718,5.328,5.4117,5.5038,5.6355,5.7204,5.697,5.736,5.7282,5.623,5.658,5.658,0.0,0.0,0.0,5.9698,5.9308,6.0243,6.3049,6.2737,6.2659,6.3205,6.3205,6.2971,6.2426,6.2426,6.2153,6.1607,6.2153,6.2426,6.2426,6.2426,6.2426,6.2348,6.0906,6.0282,6.0243,5.9347,5.8996,5.8996,5.8996,5.8996,5.8918,5.8373,5.8139,5.7983,5.6892,5.6503,5.6503,5.6503,5.6503,5.6455,5.6329,5.6263,5.6201,5.6117,5.604,5.6012,5.6012,5.6012,5.6012,5.6012,5.6012,5.6012,5.6012,5.6012,5.6012,5.6012,5.6012,5.6012,5.6012,5.6012,5.6012,5.6012,5.6012,5.6012,5.6012,5.6012,5.6012,5.6012,5.6012,5.6012,5.6012,5.6012,5.6012,5.6012,5.6012,5.6012,5.6012,5.6012,5.6012,5.6012,5.6321,5.6476,5.6476,5.6786,5.7211,5.7753,5.7753,5.8217,4.9852,5.0984,5.2273,5.481,5.4732,5.4068,5.4068,5.3951,5.3405,5.1726,5.1367,5.1547,0.0,0.0,5.2161,5.4593,5.5918,5.6892,5.7672,5.7827,5.7866,0.0,0.0,0.0,0.0,0.0,0.0,5.8996,5.9035,5.9776,6.1568,6.1607,6.1607,6.1607,6.1607,6.1607,6.1607,6.1607,6.1607,6.1607,6.1607,6.1607,6.1607,6.1607,6.1607,6.1568,6.0711,6.036,6.0282,5.9464,5.9113,5.9113,5.9113,5.9113,5.9113,5.9074,5.9074,5.8841,5.7204,5.658,5.6541,5.6503,5.6503,5.6455,5.6329,5.6263,5.6201,5.6117,5.604,5.6012,5.6012,5.6012,5.6012,5.6012,5.6012,5.6012,5.6012,5.6012,5.6012,5.6012,5.6012,5.6012,5.6012,5.6012,5.6012,5.6012,5.6012,5.6012,5.6012,5.6012,5.6012,5.6012,5.6012,5.6012,5.6012,5.6012,5.6012,5.6051,5.6089,5.6089,5.6128,5.6128,5.6128,5.6128,5.694,5.7366,5.7366,5.8217,5.8604,5.8681,5.8681,5.9145,5.2975,5.4615,5.5591,5.684,5.6059,5.4966,5.4966,5.3444,5.1921,5.1492,5.0889,5.0093,0.0,0.0,0.0,5.2294,5.5723,0.0,5.8646,5.9776,0.0,5.9698,0.0,5.9308,5.8451,5.8529,0.0,0.0,5.9386,6.0049,6.2426,6.1958,6.1607,6.1607,6.1607,6.1607,6.1607,6.1607,6.1607,6.1607,6.1607,6.1607,6.1607,6.1607,6.1607,6.1607,6.1373,6.1257,6.1257,6.1023,6.0945,6.0945,6.0945,6.0945,6.0867,6.0204,5.9971,5.9815,5.8724,5.7944,5.7282,5.6697,5.6503,5.6455,5.6329,5.6263,5.6201,5.6117,5.604,5.6012,5.6012,5.6012,5.6012,5.6012,5.6012,5.6012,5.6012,5.6012,5.6012,5.6012,5.6012,5.6012,5.6012,5.6012,5.6012,5.6012,5.6012,5.6012,5.6012,5.6012,5.6012,5.6012,5.6012,5.6012,5.6012,5.6012,5.6283,5.694,5.6979,5.725,5.7907,5.7946,5.7946,5.7946,5.8139,5.8255,5.8255,5.8488,5.8913,5.9571,5.9571,5.9996,5.5083,5.6762,5.7816,5.8246,5.6801,5.5201,5.481,5.3014,5.1063,4.9926,4.9284,0.0,4.7195,4.912,5.1008,0.0,0.0,0.0,5.8996,6.0516,6.1295,0.0,6.0282,0.0,5.9074,5.9347,5.9776,0.0,5.9854,6.036,6.2231,6.188,6.1607,6.1607,6.1607,6.1607,6.1607,6.1607,6.1607,6.1607,6.1607,6.1607,6.1607,6.1607,6.1607,6.1607,6.1607,6.1607,6.1607,6.1607,6.1607,6.1607,6.1607,6.1607,6.1529,6.1062,6.0867,6.075,5.9854,5.923,5.8685,5.7866,5.7594,5.7585,5.7458,5.7414,5.7378,5.73,5.6955,5.6621,5.6621,5.6317,5.6012,5.6012,5.6012,5.6089,5.6476,5.6592,5.667,5.7056,5.7134,5.7134,5.7134,5.7134,5.7134,5.7134,5.7134,5.7134,5.7134,5.6824,5.6592,5.6592,5.6902,5.7134,5.7134,5.7134,5.7366,5.783,5.7869,5.8101,5.8565,5.8604,5.8604,5.8604,5.899,5.9184,5.9184,5.9532,6.0151,6.1002,6.1002,6.1427,5.6645,5.7972,5.9104,5.9104,5.7192,5.5083,5.4342,5.2546,5.0395,4.8005,0.0,4.6889,4.6014,4.7476,4.9294,5.0852,0.0,5.8802,5.9113,6.0555,6.1373,6.0711,6.0633,6.0282,5.9425,6.0126,6.0633,6.0633,6.075,6.1101,6.1724,6.1763,6.1802,6.1919,6.1841,6.1763,6.1763,6.1646,6.1607,6.1607,6.1607,6.1607,6.1607,6.1607,6.1607,6.1607,6.1607,6.1607,6.1607,6.1607,6.1607,6.1607,6.1607,6.1607,6.1607,6.1607,6.1607,6.149,6.0711,6.0477,6.0321,5.9308,5.8996,5.8987,5.8937,5.8877,5.8865,5.8791,5.8217,5.7575,5.756,5.6969,5.636,5.636,5.636,5.6553,5.7327,5.7482,5.7714,5.8449,5.8604,5.8604,5.8604,5.8604,5.8604,5.8604,5.8604,5.8604,5.8604,5.7946,5.7482,5.7482,5.8139,5.8604,5.8604,5.8604,5.8642,5.8758,5.8758,5.8797,5.8913,5.8913,5.8913,5.8913,5.9648,6.0112,6.0228,6.0925,6.1737,6.2588,6.2588,6.2975,5.805,5.887,5.9104,5.9104,5.7192,5.524,5.5123,5.2034,0.0,0.0,4.6348,4.5078,4.422,4.6658,4.9099,5.0073,5.4009,5.7672,5.9776,6.0945,6.1802,0.0,6.2465,6.2114,6.1218,6.1958,0.0,0.0,6.3088,6.3205,6.2698,6.2659,6.2971,6.3634,6.301,6.2659,6.2659,6.1958,6.1607,6.1607,6.1607,6.1607,6.1607,6.1607,6.1607,6.1607,6.1607,0.0,6.1607,6.1607,6.1607,6.1607,6.1607,6.1607,6.1607,6.1607,6.1607,6.1568,6.1412,6.1373,6.1101,5.9503,5.8996,5.8987,5.8937,5.8877,5.8853,5.876,5.8599,5.8451,5.8424,5.8273,5.8139,5.8139,5.8139,5.8178,5.8333,5.8372,5.841,5.8565,5.8604,5.8604,5.8604,5.8604,5.8604,5.8604,5.8604,5.8604,5.8604,5.8449,5.8372,5.8372,5.8488,5.8604,5.8604,5.8604,5.8913,5.9609,5.9648,5.9957,6.0654,6.0654,6.0654,6.0654,6.0809,6.1234,6.1969,6.2124,6.2627,6.3478,6.3478,6.3555,5.8636,5.9104,5.8987,5.8558,5.684,5.481,5.3014,0.0,0.0,0.0,4.349,4.2655,4.1791,4.4819,0.0,4.8553,5.2723,5.6697,5.9269,6.036,0.0,6.2737,6.2893,6.2737,6.2309,6.3049,6.3517,6.3517,6.3867,6.3945,6.3556,6.3517,6.3711,6.4101,6.3711,6.3517,6.3517,6.3127,6.2893,6.2893,6.2893,6.2698,6.227,6.227,6.2036,6.1607,6.1607,6.1607,6.1607,6.1607,6.1607,6.1607,6.1607,6.1607,6.1607,6.1607,6.1607,6.1607,6.1607,6.1607,6.1451,6.0633,6.036,6.036,6.0292,6.0261,6.0227,6.0164,5.9784,5.9359,5.9349,5.8949,5.8604,5.8604,5.8952,5.9261,5.9261,5.9609,5.988,5.988,5.988,5.988,5.988,5.988,5.988,5.988,5.988,5.988,5.988,5.988,5.9725,5.93,5.9648,5.988,5.988,5.988,6.0074,6.0499,6.0963,6.1389,6.1776,6.2201,6.2433,6.2433,6.2433,6.2665,6.3091,6.3091,6.3516,6.4367,6.4367,6.4599,5.8441,5.8675,5.8558,5.7543,5.5981,5.3873,5.0555,4.7697,0.0,0.0,4.095,4.0661,4.0175,4.3137,4.6098,0.0,5.132,5.51,5.8061,5.9191,6.0477,0.0,6.2776,0.0,6.3127,6.3906,0.0,6.4374,6.4569,6.4569,6.4374,6.4569,6.4647,6.4647,6.4491,6.4374,6.4374,6.4179,6.4101,6.4101,6.4101,6.3789,6.3166,6.3166,6.2776,6.2114,6.1958,6.188,6.1841,6.1685,6.1607,6.1607,6.1607,6.1607,6.1607,6.1607,6.1607,6.1607,6.1607,6.1607,6.1607,6.1607,6.1607,6.1607,6.1607,6.1528,6.1523,6.1472,6.0914,6.0251,6.0234,5.9663,5.9145,5.9145,5.9648,6.0151,6.0151,6.0809,6.1389,6.1389,6.1543,6.166,6.166,6.166,6.166,6.166,6.166,6.166,6.166,6.166,6.1427,6.077,6.1118,6.1466,6.1621,6.166,6.166,6.166,6.2317,6.2665,6.2665,6.3323,6.371,6.371,6.371,6.3787,6.398,6.398,6.4406,6.5257,6.545,6.5876,5.6996,5.7348,5.7543,5.5942,5.4225,5.2234,4.954,0.0,0.0,4.151,4.0471,4.0136,4.0838,4.2552,4.489,4.8164,0.0,5.1943,5.6152,5.7438,5.888,6.1412,0.0,0.0,6.3906,6.4764,6.527,6.527,6.6011,6.6127,6.5309,6.605,6.6478,6.6478,6.5699,6.527,6.527,6.4491,6.4101,6.4101,6.4101,6.4062,6.3984,6.3984,6.3945,6.3828,6.3088,6.2776,0.0,6.1919,6.1607,6.1607,6.1607,6.1607,6.1607,6.1607,6.1607,6.1607,6.1607,6.1607,6.1607,6.1607,6.1607,6.1607,6.1607,6.1528,6.1472,6.1408,6.1259,6.1087,6.1,6.0925,6.0886,6.0886,6.0925,6.1002,6.1002,6.166,6.2278,6.2278,6.2936,6.3439,6.3439,6.3439,6.3439,6.3439,6.3439,6.3439,6.3439,6.3439,6.3439,6.3362,6.2704,6.2588,6.34,6.3439,6.3439,6.3439,6.3516,6.3555,6.3555,6.3671,6.371,6.371,6.371,6.4097,6.487,6.487,6.5296,6.6108,6.6882,6.7307,5.6411,5.684,5.6684,5.4966,5.36,5.1765,4.8127,0.0,4.229,4.0018,3.9257,3.9123,3.9474,4.1344,4.3604,4.6059,4.715,4.9216,5.3541,5.4866,5.6775,6.0399,6.2036,0.0,0.0,0.0,6.6166,6.6166,6.6517,6.6556,6.6205,6.6517,6.6712,6.6712,6.6361,6.6166,6.6166,6.5855,6.566,6.566,6.566,6.5387,6.488,6.488,6.4608,6.4062,6.375,6.3634,0.0,6.3244,6.3088,6.3088,6.3088,6.3088,6.3088,6.3088,6.3088,6.3088,6.3088,6.3088,6.3088,6.3088,6.3088,6.2932,6.1919,6.1507,6.1421,6.1394,6.1252,6.1134,6.1118,6.1505,6.2008,6.2549,6.2665,6.2665,6.2665,6.2936,6.3168,6.3168,6.3439,6.371,6.371,6.371,6.371,6.371,6.371,6.371,6.371,6.371,6.3903,6.4406,6.371,6.3323,6.3671,6.371,6.371,6.371,6.4174,6.4483,6.4483,6.4948,6.518,6.518,6.518,6.5644,6.6495,6.6495,6.6959,6.7771,6.8119,6.8274,5.5357,5.602,5.5864,5.4381,5.3132,5.1258,0.0,4.4094,4.1427,3.9307,3.8667,3.8578,3.885,4.0565,4.2591,4.4579,4.5436,4.7384,5.1943,5.3112,5.5022,5.9035,0.0,6.2503,6.4452,6.5894,6.6712,6.6712,6.6712,6.6712,6.6712,6.6712,6.6712,6.6712,6.6712,6.6712,6.6712,6.6712,6.6712,6.6712,6.6712,6.64,6.5777,6.5777,6.5465,6.4842,6.4608,6.4491,0.0,6.4218,6.4101,6.4101,6.4101,6.4101,6.4101,6.4101,6.4101,6.4101,6.4101,6.4101,6.4101,6.4101,6.4101,6.3867,6.2698,6.2235,6.2119,6.2119,6.2028,6.189,6.1853,6.2336,6.2974,6.3574,6.371,6.371,6.371,6.3903,6.4058,6.4058,6.429,6.4445,6.4445,6.4445,6.4445,6.4445,6.4445,6.4445,6.4445,6.4445,6.4677,6.5296,6.4793,6.4445,6.4445,6.4445,6.4445,6.4445,6.5025,6.5334,6.5334,6.6147,6.6572,6.6572,6.6843,6.7268,6.7887,6.7887,6.8197,6.8816,6.9048,6.928,5.3561,5.4654,5.5083,5.4225,5.2702,5.0512,4.7069,4.3621,4.0842,3.997,3.9096,3.8772,3.963,4.0526,4.1929,4.4501,4.489,4.6722,5.1865,5.2606,5.3892,0.0,0.0,6.0049,6.2659,6.5192,6.6712,6.6712,6.6712,6.6712,6.6712,6.6712,6.6712,6.6712,6.6712,6.6712,6.6712,6.6712,6.6712,6.6712,6.6712,6.6712,6.6673,6.6673,6.6673,6.6634,6.5777,6.5387,0.0,6.4452,6.4101,6.4101,6.4101,6.4101,6.4101,6.4101,6.4101,6.4101,6.4101,6.4101,6.4101,6.4101,6.4101,6.4101,6.4062,6.3974,6.3867,6.3867,6.3806,6.3761,6.3709,6.3708,6.3761,6.3709,6.371,6.371,6.371,6.4367,6.4986,6.4986,6.5644,6.6185,6.6185,6.6185,6.6185,6.6185,6.6185,6.6185,6.6185,6.6185,6.6185,6.6185,6.6185,6.6185,6.6185,6.6185,6.6185,6.6185,6.6185,6.6185,6.6185,6.7036,6.7501,6.7501,6.8352,6.8777,6.8777,6.8777,6.8777,6.8816,6.9628,7.044,5.0282,5.1531,5.2156,5.0126,4.9228,4.8053,4.5187,4.2759,4.0838,3.9992,3.9129,3.8772,3.963,4.0526,4.2124,4.528,4.5787,4.6956,5.0346,0.0,0.0,5.7438,6.1568,6.4608,0.0,6.6244,6.6712,6.6712,6.6712,6.6712,6.6712,6.6712,6.6712,6.6712,6.6712,6.6712,6.6712,6.6712,6.6712,6.6712,6.6712,6.6712,6.6712,6.6712,6.6712,6.6673,6.64,6.6283,6.6283,6.6011,6.5894,6.5894,6.5894,6.5894,6.5894,6.5894,6.5894,6.5894,6.5894,6.5894,6.5894,6.5894,6.5894,6.5894,6.5894,6.4983,6.3975,6.3934,6.3812,6.3883,6.4501,6.4637,6.4754,6.5277,6.5412,6.5412,6.5412,6.5644,6.5837,6.5837,6.6031,6.6185,6.6185,6.6185,6.6185,6.6185,6.6185,6.6185,6.6185,6.6727,6.7075,6.7075,6.7617,6.7733,6.7152,6.7075,6.7346,6.7926,6.7965,6.7965,6.7965,6.8236,6.839,6.839,6.8661,6.9087,6.9628,6.9628,6.9938,7.0518,7.075,7.1369,0.0,4.8876,4.9579,4.8017,4.7354,4.6491,4.4211,4.2095,4.0447,3.992,3.8856,3.8266,3.9162,4.0019,4.1422,4.3877,4.4812,4.6332,0.0,0.0,0.0,5.7827,0.0,0.0,0.0,6.6322,6.6712,6.6712,6.6712,6.6712,6.6712,6.6712,6.6712,6.6712,6.6712,6.6712,6.6712,6.6712,6.6712,6.6712,6.6712,6.6712,6.6712,6.6712,6.6712,6.6712,6.6712,6.6712,0.0,6.6712,6.6712,6.6712,6.6712,6.6712,6.6712,6.6712,6.6712,6.6712,6.6712,6.6712,6.6712,6.6712,6.6712,6.6712,6.6712,6.589,6.4973,6.4906,6.4815,6.4886,6.5407,6.5526,6.5625,6.6089,6.6185,6.6185,6.6185,6.6185,6.6185,6.6185,6.6456,6.6688,6.6688,6.6959,6.7191,6.7191,6.7191,6.7191,6.7191,6.7655,6.8003,6.8003,6.8468,6.87,6.8468,6.8158,6.8236,6.8777,6.8816,6.8816,6.8816,6.9087,6.9241,6.9241,6.9589,6.9976,7.0479,7.0479,7.0943,7.1794,7.1794,7.2258,0.0,4.6378,4.712,4.7002,4.6378,4.5398,4.3712,4.1437,0.0,3.9697,3.8355,3.7525,3.8578,3.9318,4.0214,4.1461,4.2942,4.5436,0.0,5.1203,0.0,0.0,6.1607,0.0,6.4218,6.5738,6.6712,6.6712,6.6712,6.6712,6.6712,6.6712,6.6712,6.6712,6.6712,6.6712,6.6712,6.6712,6.6712,6.6712,6.6712,6.6712,6.6712,6.6712,6.6712,6.6712,6.6712,6.6712,6.6712,6.6712,6.6712,6.6712,6.6712,6.6712,6.6712,6.6712,6.6712,6.6712,6.6712,6.6712,6.6712,6.6712,6.6712,6.6712,6.6712,6.663,6.6607,6.6538,6.6508,6.6439,6.6334,6.6299,6.6263,6.6205,6.6185,6.6224,6.6263,6.6301,6.6301,6.6379,6.7036,6.7578,6.7578,6.8274,6.8816,6.8816,6.8816,6.8816,6.8816,6.8854,6.8893,6.8893,6.8932,6.928,7.0015,6.9357,6.8932,6.897,6.897,6.897,6.897,6.9705,7.0092,7.0092,7.0943,7.1369,7.1369,7.1446,7.191,7.2684,7.2684,7.3148,3.9195,0.0,4.2318,4.103,4.103,4.1065,0.0,3.9247,3.8809,0.0,0.0,3.8071,4.0877,4.0526,4.1383,4.6215,4.7306,4.8592,5.1554,5.5567,0.0,6.2542,6.4608,6.5894,6.6088,6.6478,6.6712,6.6712,6.6712,6.6712,6.6712,6.6712,6.6712,6.6712,6.6712,6.6712,6.6712,6.6712,6.6712,6.6712,6.6712,6.6712,6.6712,6.6712,6.6712,6.6712,6.6712,6.6712,6.6712,6.6712,6.6712,6.6712,6.6712,6.6712,6.6712,6.6712,6.6712,6.6712,6.6712,6.6712,6.6712,6.6712,6.6712,6.6712,6.6712,6.663,6.662,6.6569,6.647,6.6334,6.6316,6.6244,6.6225,6.6185,6.6185,6.6379,6.7036,6.7191,6.7384,6.8081,6.8352,6.8506,6.8506,6.8661,6.8816,6.8816,6.8816,6.8816,6.8816,6.9357,6.9705,6.9705,7.0324,7.0789,7.0982,7.0208,7.0015,7.0672,7.0711,7.0711,7.0711,7.0905,7.0982,7.0982,7.1833,7.2297,7.2297,7.2955,7.338,7.3574,7.3574,7.4038,3.6111,3.8531,4.0873,3.9976,4.0054,4.0285,3.9802,0.0,0.0,0.0,0.0,0.0,3.9552,4.0214,4.1734,4.5748,4.7774,0.0,0.0,0.0,6.1841,6.4374,6.5894,6.6712,6.6712,6.6712,6.6712,6.6712,6.6712,6.6712,6.6712,6.6712,6.6712,6.6712,6.6712,6.6712,6.6712,6.6712,6.6712,6.6712,6.6712,6.6712,6.6712,6.6712,6.6712,6.6712,6.6712,6.6712,6.6712,6.6712,6.6712,6.6712,6.6712,6.6712,6.6712,6.6712,6.6712,6.6712,6.6712,6.6712,6.6712,6.6712,6.6712,6.6712,6.6712,6.6691,6.6657,6.6594,6.65,6.6389,6.6316,6.6535,6.6804,6.6804,6.7114,6.7539,6.8003,6.8119,6.8236,6.87,6.9087,6.9357,6.9357,6.9667,6.9938,6.9938,6.9938,6.9938,6.9938,7.0324,7.0595,7.0595,7.1021,7.1291,7.1291,7.1214,7.1214,7.1291,7.1291,7.1291,7.1291,7.1678,7.2065,7.2491,7.2955,7.3187,7.3187,7.369,7.4077,7.4463,7.4463,7.4889,3.5135,3.8141,4.0952,4.0444,4.06,4.0834,4.059,0.0,0.0,0.0,0.0,0.0,0.0,4.0097,0.0,0.0,0.0,0.0,5.7321,6.0243,6.2698,6.5114,6.6166,6.6712,6.6712,6.6712,6.6712,6.6712,6.6712,6.6712,6.6712,6.6712,6.6712,6.6712,6.6712,6.6712,6.6712,6.6712,6.6712,6.6712,6.6712,6.6712,6.6712,6.6712,6.6712,6.6712,6.6712,0.0,6.6712,6.6712,6.6712,6.6712,6.6712,6.6712,6.6712,6.6712,6.6712,6.6712,6.6712,6.6712,6.6712,6.6712,6.6712,6.6712,6.6712,6.679,6.6886,6.6789,6.6708,6.6633,6.651,6.7097,6.7694,6.7694,6.8274,6.8816,6.897,6.897,6.9009,6.9164,6.9744,7.0208,7.0208,7.0789,7.1291,7.1291,7.1291,7.133,7.1485,7.1485,7.1562,7.1678,7.1678,7.1678,7.1678,7.2375,7.2491,7.1756,7.1678,7.1678,7.1678,7.2413,7.3148,7.3883,7.4038,7.4077,7.4077,7.4231,7.4618,7.5314,7.5314,7.5701,3.7204,3.9507,4.0405,3.7516,3.8414,3.9621,0.0,0.0,0.0,0.0,0.0,0.0,0.0,4.3448,4.4968,0.0,0.0,5.6386,0.0,0.0,6.3361,6.5192,6.6166,6.6712,6.6712,6.6712,6.6712,6.6712,6.6712,6.6712,6.6712,6.6712,6.6712,6.6712,6.6712,6.6712,6.6712,6.6712,6.6712,6.6712,6.6712,6.6712,6.6712,6.6712,6.6712,6.6712,0.0,6.6712,6.6712,6.6712,6.6712,6.6712,6.6712,6.6712,6.6712,6.6712,6.6712,6.6712,6.6712,6.6712,6.6712,6.6712,6.6712,6.6712,6.6712,6.7219,6.7782,6.7578,6.7519,6.7471,6.7348,6.7926,6.8622,6.8622,6.87,6.9009,6.9667,6.9821,7.0015,7.075,7.1021,7.1098,7.1098,7.1214,7.1291,7.1291,7.1291,7.1562,7.2297,7.2413,7.2684,7.3419,7.3496,7.3496,7.3496,7.3612,7.3651,7.3496,7.3496,7.3496,7.3496,7.3612,7.3767,7.3883,7.4579,7.4928,7.4928,7.5662,7.6088,7.6204,7.6204,7.6281,3.5213,3.7711,3.9351,3.7789,4.0015,4.2275,0.0,0.0,0.0,0.0,0.0,0.0,0.0,0.0,4.7696,5.3736,0.0,5.9269,6.1412,6.2776,6.4179,6.5894,6.6478,6.6712,6.6712,6.6712,6.6712,6.6712,6.6712,6.6712,6.6712,6.6712,6.6712,6.6712,6.6712,6.6712,6.6712,6.6712,6.6712,6.6712,6.6712,6.6712,6.6712,6.6712,6.6712,6.6712,0.0,6.6712,6.6712,6.6712,6.6712,6.6712,6.6712,6.6712,6.6712,6.6712,6.6712,6.6712,6.6712,6.6712,6.6712,6.6712,6.7024,6.7413,6.7413,6.7976,6.8592,6.8443,6.8412,6.8364,6.8258,6.8816,6.9435,6.9435,6.9821,7.0247,7.0634,7.0711,7.0827,7.1214,7.1291,7.1291,7.1291,7.1678,7.1988,7.1988,7.2413,7.2839,7.3264,7.3303,7.3458,7.3844,7.3883,7.3883,7.3883,7.4309,7.4347,7.3922,7.3883,7.4077,7.4541,7.4541,7.4773,7.5237,7.5624,7.5817,7.5817,7.6204,7.6397,7.6397,7.6397,7.6397,3.4198,3.6423,3.8453,3.9041,0.0,0.0,0.0,0.0,0.0,0.0,0.0,0.0,0.0,4.7898,0.0,5.5996,5.8918,6.114,6.2698,6.3595,6.4764,6.6478,6.6712,6.6712,6.6712,6.6712,6.6712,6.6712,6.6712,6.6712,6.6712,6.6712,6.6712,6.6712,6.6712,6.6712,6.6712,6.6712,6.6712,6.6712,6.6712,6.6712,6.6712,6.6712,6.6712,6.6712,6.6712,6.6712,6.6712,6.6712,6.6712,6.6712,6.6712,6.6712,6.6712,6.6712,6.6712,6.6751,6.6946,6.6985,6.7024,6.7257,6.7764,6.831,6.831,6.8811,6.9409,6.9321,6.9445,6.9511,6.9167,6.9705,7.0286,7.0286,7.0789,7.1291,7.1291,7.1291,7.1291,7.1291,7.1446,7.1601,7.1601,7.2336,7.2916,7.2916,7.3458,7.396,7.4154,7.4193,7.427,7.4463,7.4502,7.4502,7.4502,7.5044,7.516,7.4502,7.4502,7.4773,7.5392,7.5392,7.574,7.6397,7.6397,7.6397,7.6397,7.6397,7.6397,7.6397,7.6397,7.6397,3.7321,3.7828,3.7946,4.0327,0.0,0.0,4.3528,0.0,0.0,0.0,0.0,0.0,0.0,5.2543,5.623,5.7399,5.9815,6.1841,6.2776,6.3595,6.4764,6.6478,6.6712,6.6712,6.6712,6.6712,6.6712,6.6712,6.6712,6.6712,6.6712,6.6712,6.6712,6.6712,6.6712,6.6712,6.6712,6.6712,6.6712,6.6712,6.6712,6.6712,6.6712,6.6712,6.6712,6.6712,6.6712,6.6712,6.6712,6.6712,6.6712,6.6712,6.6712,6.6712,6.6712,6.6712,6.6712,6.6829,6.7647,6.792,6.8037,6.8855,6.9167,6.9206,6.9206,6.9706,7.0304,7.0215,7.0753,7.1087,7.0173,7.0556,7.1214,7.1214,7.1253,7.1291,7.1291,7.1291,7.1291,7.1291,7.1949,7.2491,7.2491,7.3226,7.3806,7.3806,7.3844,7.4154,7.4928,7.5005,7.5314,7.6127,7.6204,7.6204,7.6204,7.6281,7.6281,7.6204,7.6204,7.6243,7.6281,7.632,7.632,7.6397,7.6397,7.6397,7.6397,7.6397,7.6397,7.6397,7.6397,7.6397,3.5681,3.6735,3.7789,3.978,0.0,0.0,0.0,0.0,0.0,0.0,0.0,0.0,0.0,0.0,5.7524,5.8373,6.0243,6.188,6.2776,6.4062,6.5153,6.5816,6.6361,6.6712,6.6712,6.6712,6.6712,6.6712,6.6712,6.6712,6.6712,6.6712,6.6712,6.6712,6.6712,6.6712,6.6712,6.6712,6.6712,6.6712,6.6712,6.6712,6.6712,6.6712,6.6712,6.6712,6.6712,6.6712,6.6712,6.6712,6.6712,6.6712,6.6712,6.6712,6.679,6.7296,6.753,6.7647,6.8504,6.8816,6.8855,6.9206,6.9673,7.0102,7.0018,7.0537,7.1125,7.1064,7.1204,7.1317,7.0926,7.1059,7.1291,7.1291,7.1291,7.1291,7.1291,7.1717,7.2104,7.2104,7.28,7.3419,7.3419,7.4115,7.4657,7.4657,7.5121,7.5546,7.5856,7.5895,7.6011,7.6359,7.6397,7.6397,7.6397,7.6397,7.6397,7.6397,7.6397,7.6397,7.6397,7.6397,7.6397,7.6397,7.6397,7.6397,7.6397,7.6397,7.6397,7.6397,7.635,7.635,3.5018,3.6189,3.7711,0.0,0.0,0.0,0.0,0.0,0.0,0.0,0.0,0.0,0.0,0.0,0.0,0.0,6.0477,6.188,6.2776,6.3906,6.4686,6.4958,6.5777,6.6283,6.6283,6.6556,6.6712,6.6712,6.6712,6.6712,6.6712,6.6712,6.6712,6.6712,6.6712,6.6712,6.6712,6.6712,6.6712,6.6712,6.6712,6.6712,6.6712,6.6712,6.6712,6.6712,6.6712,6.6712,6.6712,6.6712,6.6712,6.6712,6.6712,6.6712,6.6829,6.7686,6.7998,6.8154,6.9323,6.9712,6.9751,7.0024,7.0492,7.0948,7.0836,7.1194,7.1581,7.1513,7.1415,7.1291,7.1291,7.1291,7.1291,7.1291,7.1291,7.1369,7.164,7.2181,7.2684,7.2955,7.369,7.427,7.427,7.4966,7.5508,7.5508,7.6011,7.6397,7.6397,7.6397,7.6397,7.6397,7.6397,7.6397,7.6397,7.6397,7.6397,7.6397,7.6397,7.6397,7.6397,7.6397,7.6397,7.6397,7.6397,7.6397,7.6397,7.6397,7.6397,7.6397,7.6326,7.6301,3.6228,3.6618,3.7711,0.0,0.0,0.0,0.0,0.0,0.0,0.0,0.0,0.0,5.5061,0.0,0.0,5.888,6.0477,6.188,6.2776,6.2893,6.3205,6.3984,6.488,6.5387,6.5387,6.6166,6.6673,6.6673,6.6673,6.6673,6.6673,6.6673,6.6673,6.6673,6.6673,6.6673,6.6673,6.6673,6.6673,6.6712,6.6712,6.6712,6.6712,6.6712,6.6712,6.6712,6.6712,6.6712,6.6712,6.6712,6.6712,6.6712,6.6712,6.6712,6.6829,6.7686,6.7998,6.8271,7.0024,7.0609,7.0726,7.1544,7.1817,7.1806,7.1732,7.1661,7.1581,7.1513,7.1415,7.1291,7.1291,7.1291,7.1291,7.1291,7.1291,7.1562,7.2413,7.2607,7.2877,7.3728,7.4579,7.5121,7.5121,7.5817,7.6397,7.6397,7.6397,7.6397,7.6397,7.6397,7.6397,7.6397,7.6397,7.6397,7.6397,7.6397,7.6397,7.6397,7.6397,7.6397,7.6397,7.6397,7.6397,7.6397,7.6397,7.6397,7.6397,7.6397,7.6397,7.6397,7.6326,7.6301,3.533,3.6189,0.0,0.0,0.0,0.0,0.0,0.0,0.0,0.0,0.0,5.6725,5.6901,0.0,0.0,5.9659,6.036,6.0984,6.1841,6.2503,6.2971,6.3244,6.3984,6.4491,6.4491,6.4725,6.488,6.488,6.488,6.488,6.488,6.488,6.488,6.488,6.488,6.5153,6.5777,6.5777,6.6088,6.6712,6.6712,6.6712,6.6712,6.6712,6.6712,6.6712,6.6712,6.6712,6.6712,6.6712,6.6712,6.6712,6.6712,6.6712,6.6868,6.8388,6.8894,6.9167,7.0842,7.1427,7.1466,7.17,7.1817,7.1794,7.1675,7.1614,7.1564,7.1396,7.1313,7.1291,7.1291,7.1756,7.222,7.222,7.222,7.2452,7.3342,7.396,7.4425,7.4695,7.543,7.6011,7.6011,7.6243,7.6397,7.6397,7.6397,7.6397,7.6397,7.6397,7.6397,7.6397,7.6397,7.6397,7.6397,7.6397,7.6397,7.6397,7.6397,7.6397,7.6397,7.6397,7.6397,7.6397,7.6397,7.6374,7.6326,7.6326,7.6301,7.625,7.6198,7.6172,3.6191,0.0,0.0,0.0,0.0,0.0,0.0,0.0,0.0,0.0,0.0,5.7765,5.7719,5.8247,0.0,6.0126,6.0594,6.0984,6.1529,6.2036,6.2387,6.2387,6.3127,6.3634,6.3634,6.3906,6.4101,6.4101,6.4101,6.4101,6.4101,6.4101,6.4101,6.4101,6.4101,6.4335,6.488,6.488,6.5309,6.6166,6.6166,6.6361,6.6712,6.6712,6.6712,6.6712,6.6712,6.6712,6.6712,6.6712,6.6712,6.6712,6.6712,6.6907,6.7374,6.8777,6.9518,7.0024,7.1349,7.1817,7.1817,7.1817,7.1817,7.1755,7.1645,7.1598,7.1564,7.1355,7.1291,7.1369,7.1717,7.222,7.2607,7.2607,7.2877,7.3342,7.4193,7.4773,7.5198,7.5546,7.6049,7.6397,7.6397,7.6397,7.6397,7.6397,7.6397,7.6397,7.6397,7.6397,7.6397,7.6397,7.6397,7.6397,7.6397,7.6397,7.6397,7.6397,7.6397,7.6397,7.6397,7.6397,7.6397,7.6397,7.6374,7.635,7.6301,7.6276,7.6225,7.6198,7.6118,7.609,3.7992,0.0,0.0,0.0,0.0,0.0,5.5776,0.0,5.648,5.6491,0.0,5.7633,5.7702,5.9065,6.0204,6.0282,6.1023,6.1607,6.1607,6.1607,6.1607,6.1607,6.2309,6.2776,6.2776,6.3439,6.3867,6.3867,6.3867,6.3867,6.3867,6.3867,6.3867,6.3867,6.3867,6.3906,6.3984,6.3984,6.4413,6.527,6.5348,6.5816,6.6595,6.6673,6.6712,6.6712,6.6712,6.6712,6.6712,6.6712,6.6712,6.6712,6.6712,6.7219,6.8115,6.8972,6.9829,7.0726,7.1505,7.1817,7.1767,7.1817,7.1817,7.1782,7.1645,7.1598,7.1564,7.1355,7.1291,7.1485,7.2375,7.2645,7.2723,7.28,7.3419,7.4231,7.5044,7.5237,7.5469,7.6243,7.6397,7.6397,7.6397,7.6397,7.6397,7.6397,7.6397,7.6397,7.6397,7.6397,7.6397,7.6397,7.6397,7.6397,7.6397,7.6397,7.6397,7.6397,7.6397,7.6397,7.6397,7.6397,7.6397,7.6397,7.6326,7.6301,7.6276,7.6225,7.6172,7.6172,7.6118,7.609,0.0,3.9937,0.0,0.0,0.0,5.5606,5.6341,5.6503,5.6511,5.648,5.6628,5.6931,5.7594,5.8559,5.9503,6.0204,6.1023,6.1607,6.1607,6.1607,6.1607,6.1607,6.1763,6.188,6.188,6.2036,6.2153,6.2153,6.2153,6.2153,6.2153,6.2153,6.2153,6.2153,6.2153,6.2465,6.3166,6.3166,6.3556,6.4374,6.5075,6.5504,6.5699,6.64,6.6712,6.6712,6.6712,6.6712,6.6712,6.6712,6.6712,6.6712,6.6712,6.7219,6.8115,6.8972,6.9829,7.0726,7.1505,7.1782,7.1745,7.1767,7.1743,7.1718,7.163,7.1598,7.1564,7.1355,7.1291,7.1485,7.2375,7.3109,7.3767,7.4425,7.4734,7.5082,7.5933,7.6127,7.6165,7.6359,7.6397,7.6397,7.6397,7.6397,7.6397,7.6397,7.6397,7.6397,7.6397,7.6397,7.6397,7.6397,7.6397,7.6397,7.6397,7.6397,7.6397,7.6397,7.6397,7.6397,7.6397,7.6397,7.6374,7.6326,7.6301,7.625,7.6145,7.6118,7.609,7.6034,7.6044,7.6005,0.0,0.0,0.0,5.043,0.0,5.6497,5.6517,5.6488,5.6503,5.6503,5.6823,5.7204,5.7633,5.8412,5.9308,6.0165,6.0672,6.1101,6.1529,6.1607,6.1607,6.1607,6.1607,6.1607,6.1607,6.1607,6.1607,6.1607,6.1607,6.1607,6.1607,6.1607,6.1607,6.1607,6.1607,6.1802,6.227,6.227,6.2698,6.3517,6.3984,6.4608,6.5426,6.6283,6.6712,6.6712,6.6712,6.6712,6.6712,6.6712,6.6712,6.6712,6.6712,6.7491,6.866,6.9128,7.0102,7.1232,7.1661,7.177,7.1718,7.1719,7.1732,7.1645,7.1564,7.1529,7.1511,7.1334,7.1601,7.2104,7.2993,7.3844,7.4695,7.5508,7.574,7.5856,7.6281,7.6397,7.6397,7.6397,7.6397,7.6397,7.6397,7.6397,7.6397,7.6397,7.6397,7.6397,7.6397,7.6397,7.6397,7.6397,7.6397,7.6397,7.6397,7.6397,7.6397,7.6397,7.6397,7.6397,7.635,7.635,7.635,7.6301,7.625,7.6172,7.609,7.6062,7.6005,7.6015,7.6015,7.6015,0.0,0.0,4.5906,5.2294,5.5098,0.0,5.648,5.6503,5.6503,5.6503,5.7018,5.7485,5.7477,5.8217,5.8996,5.9737,5.9971,6.036,6.1257,6.1373,6.1412,6.1568,6.1607,6.1607,6.1607,6.1607,6.1607,6.1607,6.1607,6.1607,6.1607,6.1607,6.1607,6.1607,6.1607,6.1607,6.1607,6.1607,6.1958,6.2698,6.2815,6.3789,6.5426,6.6166,6.6556,6.6712,6.6712,6.6712,6.6712,6.6712,6.6712,6.6712,6.6712,6.7686,6.9089,6.9245,7.0258,7.1622,7.1739,7.177,7.1704,7.1732,7.1675,7.1581,7.155,7.1513,7.1494,7.1334,7.191,7.28,7.369,7.4502,7.5314,7.6204,7.6397,7.6397,7.6397,7.6397,7.6397,7.6397,7.6397,7.6397,7.6397,7.6397,7.6397,7.6397,7.6397,7.6397,7.6397,7.6397,7.6397,7.6397,7.6397,7.6397,7.6397,7.6397,7.6397,7.6374,7.6374,7.635,7.6276,7.6276,7.6276,7.6276,7.6145,7.609,7.6062,7.6044,7.6015,7.6015,7.6015,7.6015,0.0,0.0,4.8092,0.0,5.464,5.5572,0.0,0.0,5.6503,0.0,5.658,5.6658,5.6658,5.7321,5.7905,5.8022,5.8685,5.9464,6.036,6.0477,6.075,6.149,6.1607,6.1607,6.1607,6.1607,6.1607,6.1607,6.1607,6.1607,6.1607,6.1607,6.1607,6.1607,6.1607,6.1607,6.1607,6.1607,6.1646,6.1763,6.2542,6.3789,6.5387,6.5504,6.6011,6.6712,6.6712,6.6712,6.6712,6.6712,6.6712,6.6712,6.6712,6.7296,6.8271,6.9011,6.9907,7.0842,7.1544,7.1745,7.1645,7.1731,7.1679,7.1598,7.1581,7.1581,7.1547,7.1355,7.191,7.28,7.369,7.4502,7.5314,7.6204,7.6397,7.6397,7.6397,7.6397,7.6397,7.6397,7.6397,7.6397,7.6397,7.6397,7.6397,7.6397,7.6397,7.6397,7.6397,7.6397,7.6397,7.6397,7.6397,7.6397,7.6397,7.6397,7.6374,7.6326,7.6326,7.6276,7.6198,7.6145,7.6118,7.6118,7.6118,7.6062,7.6005,7.5976,7.6015,7.6015,7.6015,7.6015,3.6077,4.1381,4.653,0.0,5.3504,5.4713,5.5584,5.6152,5.6503,5.6503,5.6503,5.6503,5.6503,5.6775,5.7165,5.7633,5.8022,5.8568,5.9464,5.9581,5.9893,6.075,6.0867,6.1062,6.1568,6.1607,6.1607,6.1607,6.1607,6.1607,6.1607,6.1607,6.1607,6.1607,6.1607,6.1607,6.1607,6.1607,6.1607,6.1607,6.1997,6.2815,6.4023,6.4452,6.5426,6.6712,6.6712,6.6712,6.6712,6.6712,6.6712,6.6712,6.6712,6.7219,6.8115,6.8972,6.9829,7.0726,7.1505,7.1693,7.1614,7.169,7.1559,7.1436,7.1436,7.1436,7.1533,7.1893,7.2645,7.3535,7.4347,7.5198,7.5933,7.632,7.6397,7.6397,7.6397,7.6397,7.6397,7.6397,7.6397,7.6397,7.6397,7.6397,7.6397,7.6397,7.6397,7.6397,7.6397,7.6397,7.6397,7.6397,7.6397,7.6397,7.6397,7.6397,7.6374,7.6301,7.6301,7.625,7.6145,7.6118,7.6062,7.6034,7.6034,7.6005,7.6015,7.6015,7.6015,7.6015,7.6015,7.6015,0.0,0.0,4.329,4.8465,5.1347,5.3253,0.0,0.0,5.623,5.6464,5.6503,5.6503,5.6503,5.6503,5.6697,5.7282,5.7399,5.7672,5.8529,5.8685,5.8996,5.9854,5.9971,6.0321,6.1179,6.1257,6.1373,6.1568,6.1607,6.1607,6.1607,6.1607,6.1607,6.1607,6.1607,6.1607,6.1607,6.1607,6.1607,6.1607,6.1607,6.2075,6.2932,6.3517,6.4725,6.64,6.6595,6.6712,6.6712,6.6712,6.6712,6.6712,6.6712,6.7219,6.8115,6.8972,6.9829,7.0726,7.1505,7.1693,7.1598,7.163,7.1529,7.1376,7.1355,7.1355,7.157,7.2358,7.3226,7.4077,7.4889,7.574,7.6397,7.6397,7.6397,7.6397,7.6397,7.6397,7.6397,7.6397,7.6397,7.6397,7.6397,7.6397,7.6397,7.6397,7.6397,7.6397,7.6397,7.6397,7.6397,7.6397,7.6397,7.6397,7.6397,7.6397,7.6374,7.6276,7.6276,7.6225,7.6062,7.6062,7.6034,7.6015,7.6015,7.6015,7.6015,7.6015,7.6015,7.6015,7.6015,7.6015,0.0,3.5603,0.0,4.3954,4.7741,0.0,0.0,0.0,5.5489,5.6308,5.6503,5.6503,5.6503,5.6503,5.6503,5.6541,5.6541,5.6853,5.7633,5.7749,5.81,5.8957,5.9074,5.9425,6.0282,6.036,6.0711,6.1529,6.1607,6.1607,6.1607,6.1607,6.1607,6.1607,6.1607,6.1607,6.1607,6.1607,6.1607,6.1607,6.1607,6.2075,6.2893,6.2932,6.3867,6.5504,6.6361,6.6712,6.6712,6.6712,6.6712,6.6712,6.6712,6.7219,6.8115,6.8972,6.9829,7.0726,7.1505,7.1693,7.1614,7.169,7.1661,7.1564,7.1513,7.1511,7.1741,7.2401,7.3226,7.4077,7.4889,7.574,7.6397,7.6397,7.6397,7.6397,7.6397,7.6397,7.6397,7.6397,7.6397,7.6397,7.6397,7.6397,7.6397,7.6397,7.6397,7.6397,7.6397,7.6397,7.6397,7.6397,7.6397,7.6397,7.6397,7.6397,7.635,7.6198,7.6198,7.6145,7.6015,7.6015,7.6015,7.6015,7.6015,7.6015,7.6015,7.6015,7.6015,7.6015,7.6015,7.6015,0.0,0.0,0.0,4.0625,4.4604,4.8109,5.0151,5.2995,5.5295,5.5606,5.6113,5.6503,5.6503,5.6503,5.6503,5.6503,5.6503,5.658,5.6892,5.6931,5.7243,5.8061,5.8178,5.849,5.9386,5.9464,5.9581,5.9893,5.9932,5.9932,5.9932,6.0477,6.075,6.075,6.1295,6.1607,6.1607,6.1607,6.1607,6.1607,6.1607,6.1763,6.2075,6.262,6.3517,6.4608,6.5504,6.6166,6.6712,6.6712,6.6712,6.6712,6.6712,6.7219,6.8115,6.8972,6.9829,7.0726,7.1505,7.1693,7.1598,7.163,7.1581,7.1532,7.1435,7.1475,7.1785,7.3076,7.3651,7.4193,7.5585,7.6165,7.6397,7.6397,7.6397,7.6397,7.6397,7.6397,7.6397,7.6397,7.6397,7.6397,7.6397,7.6397,7.6397,7.6397,7.6397,7.6397,7.6397,7.6397,7.6397,7.6397,7.6397,7.6397,7.6397,7.6374,7.6301,7.6198,7.6145,7.609,7.5976,7.6015,7.6015,7.6015,7.6015,7.6015,7.6015,7.6015,7.6015,7.6015,7.6015,7.6015,2.9233,0.0,0.0,0.0,0.0,4.4182,4.793,5.0774,5.3034,5.4476,5.545,5.6152,5.6464,5.6503,5.6503,5.6503,5.6503,5.6503,5.6503,5.6503,5.6697,5.7243,5.7282,5.7633,5.849,5.8568,5.8685,5.8996,5.8996,5.8996,5.8996,5.9542,6.001,6.0282,6.0867,6.1295,6.1607,6.1607,6.1607,6.1607,6.1607,6.1607,6.1607,6.2192,6.2893,6.375,6.4608,6.5621,6.6712,6.6712,6.6712,6.6712,6.6712,6.7413,6.8504,6.9089,7.0024,7.1076,7.1622,7.1745,7.1645,7.1645,7.1598,7.1529,7.1396,7.1455,7.1862,7.3463,7.3883,7.4309,7.5972,7.6397,7.6397,7.6397,7.6397,7.6397,7.6397,7.6397,7.6397,7.6397,7.6397,7.6397,7.6397,7.6397,7.6397,7.6397,7.6397,7.6397,7.6397,7.6397,7.6397,7.6397,7.6397,7.6397,7.6374,7.6326,7.625,7.6172,7.6118,7.6062,7.6015,7.6015,7.6015,7.6015,7.6015,7.6015,7.6015,7.6015,7.6015,7.6015,7.6015,7.6015,0.0,0.0,0.0,0.0,0.0,0.0,4.6722,4.7891,4.8553,5.2879,5.4437,5.5295,5.623,5.6425,5.6464,5.6464,5.6464,5.6503,5.6503,5.6503,5.6503,5.6503,5.6503,5.6814,5.7594,5.7672,5.8022,5.8841,5.8918,5.8918,5.8918,5.8957,5.9347,6.0243,6.0243,6.0672,6.1568,6.1568,6.1568,6.1607,6.1607,6.1607,6.1607,6.1607,6.2075,6.2932,6.3711,6.5036,6.6673,6.6673,6.6712,6.6712,6.6712,6.7764,6.9284,6.9284,7.0375,7.1817,7.1817,7.177,7.1718,7.1718,7.1718,7.169,7.155,7.1568,7.1914,7.3485,7.3883,7.4309,7.5972,7.6397,7.6397,7.6397,7.6397,7.6397,7.6397,7.6397,7.6397,7.6397,7.6397,7.6397,7.6397,7.6397,7.6397,7.6397,7.6397,7.6397,7.6397,7.6397,7.6397,7.6397,7.6397,7.6374,7.6301,7.6301,7.625,7.6118,7.609,7.6062,7.6015,7.6015,7.6015,7.6015,7.6015,7.6015,7.6015,7.6015,7.6015,7.6015,7.6015,7.6015,2.715,0.0,0.0,0.0,0.0,0.0,3.963,4.2124,4.4968,4.9333,5.0385,5.1398,5.4126,5.5139,5.5567,5.5567,5.6074,5.6503,5.6503,5.6503,5.6503,5.6503,5.6503,5.658,5.6814,5.6814,5.6931,5.7165,5.7204,5.7204,5.7204,5.7749,5.8451,5.9347,5.9347,5.9776,6.0633,6.0672,6.0984,6.1607,6.1607,6.1607,6.1607,6.1607,6.2075,6.2893,6.3127,6.4179,6.5816,6.6439,6.6712,6.6712,6.6712,6.7764,6.9284,6.9284,7.0375,7.1817,7.1817,7.177,7.1718,7.1718,7.1718,7.169,7.155,7.1568,7.1914,7.3485,7.3883,7.4309,7.5972,7.6397,7.6397,7.6397,7.6397,7.6397,7.6397,7.6397,7.6397,7.6397,7.6397,7.6397,7.6397,7.6397,7.6397,7.6397,7.6397,7.6397,7.6397,7.6397,7.6397,7.6397,7.6397,7.6374,7.6301,7.625,7.6198,7.609,7.6034,7.6005,7.6015,7.6015,7.6015,7.6015,7.6015,7.6015,7.6015,7.6015,7.6015,7.6015,7.6015,7.663,0.0,0.0,0.0,0.0,0.0,0.0,3.7759,3.9513,4.1617,4.6683,4.828,4.9527,5.1826,5.3268,5.4126,5.4126,5.5139,5.6074,5.6464,5.6503,5.6503,5.6503,5.6503,5.6503,5.6503,5.6503,5.6503,5.6503,5.6503,5.6503,5.6503,5.6931,5.7594,5.8412,5.8451,5.888,5.9737,6.0126,6.0555,6.1062,6.1412,6.1607,6.1607,6.1607,6.188,6.2387,6.2737,6.3634,6.4919,6.5816,6.6361,6.6712,6.6712,6.7764,6.9284,6.9284,7.0375,7.1817,7.1817,7.1755,7.1719,7.1719,7.1706,7.169,7.1564,7.1568,7.1899,7.3463,7.4386,7.516,7.6127,7.6397,7.6397,7.6397,7.6397,7.6397,7.6397,7.6397,7.6397,7.6397,7.6397,7.6397,7.6397,7.6397,7.6397,7.6397,7.6397,7.6397,7.6397,7.6397,7.6397,7.6397,7.6374,7.6326,7.6276,7.6198,7.6118,7.6062,7.6005,7.6015,7.6015,7.6015,7.6015,7.6015,7.6015,7.6015,7.6015,7.6015,7.6015,7.6015,7.6015,7.6515,3.0452,3.0625,0.0,0.0,3.1651,0.0,3.8266,3.8305,3.8383,4.4033,4.641,4.7852,4.8943,5.0657,5.1865,5.1749,5.3463,5.5139,5.6191,5.6425,5.6503,5.6503,5.6503,5.6503,5.6503,5.6503,5.6503,5.6503,5.6503,5.6503,5.6503,5.6503,5.6814,5.7555,5.7555,5.7983,5.8841,5.9737,6.0204,6.0321,6.1179,6.1607,6.1607,6.1607,6.1607,6.1646,6.2426,6.3283,6.4179,6.4958,6.5816,6.6712,6.6712,6.7764,6.9284,6.9284,7.0375,7.1817,7.1817,7.1817,7.1817,7.1767,7.1731,7.1718,7.1614,7.1529,7.1843,7.3463,7.5121,7.6397,7.6397,7.6397,7.6397,7.6397,7.6397,7.6397,7.6397,7.6397,7.6397,7.6397,7.6397,7.6397,7.6397,7.6397,7.6397,7.6397,7.6397,7.6397,7.6397,7.6397,7.6397,7.6397,7.635,7.6276,7.6198,7.6145,7.6062,7.5976,7.6015,7.6015,7.6015,7.6015,7.6015,7.6015,7.6015,7.6015,7.6015,7.6015,7.6015,7.6015,7.6015,7.6053,3.2928,3.3307,3.3704,3.2834,3.3024,0.0,3.2888,3.3512,3.5071,3.8305,3.924,4.0331,4.3254,4.5787,4.7228,4.6527,4.9605,5.2879,5.5139,5.6074,5.6503,5.6503,5.6503,5.6503,5.6503,5.6503,5.6503,5.6503,5.6503,5.6503,5.6503,5.6503,5.658,5.6736,5.6736,5.7126,5.7944,5.8802,5.962,6.0321,6.1179,6.1607,6.1607,6.1607,6.1607,6.1607,6.1763,6.2698,6.4101,6.4296,6.527,6.6712,6.6712,6.7764,6.9284,6.9284,7.0375,7.1817,7.1817,7.1817,7.1767,7.1758,7.177,7.177,7.1564,7.1568,7.1879,7.3485,7.5121,7.6397,7.6397,7.6397,7.6397,7.6397,7.6397,7.6397,7.6397,7.6397,7.6397,7.6397,7.6397,7.6397,7.6397,7.6397,7.6397,7.6397,7.6397,7.6397,7.6397,7.6397,7.6397,7.6397,7.635,7.6276,7.6198,7.6145,7.6062,7.5976,7.6015,7.6015,7.6015,7.6015,7.6015,7.6015,7.6015,7.6015,7.6015,7.6015,7.6015,7.6015,7.6015,7.6361,3.4883,3.4992,3.5236,3.48,3.4051,0.0,0.0,3.3049,3.3707,3.7136,3.7175,3.7487,4.0487,4.2124,4.3137,4.3526,4.6878,4.9878,5.1164,5.358,5.5217,5.5217,5.5606,5.584,5.584,5.623,5.6503,5.6503,5.6503,5.6503,5.6503,5.6503,5.6503,5.6503,5.6503,5.6697,5.7087,5.7944,5.8802,5.9659,6.0555,6.1179,6.1607,6.1607,6.1607,6.1607,6.1607,6.2542,6.4101,6.4101,6.5114,6.6712,6.6712,6.7764,6.9284,6.9284,7.0375,7.1817,7.1817,7.1817,7.1778,7.1743,7.1731,7.1745,7.1581,7.2114,7.2909,7.3673,7.5121,7.6397,7.6397,7.6397,7.6397,7.6397,7.6397,7.6397,7.6397,7.6397,7.6397,7.6397,7.6397,7.6397,7.6397,7.6397,7.6397,7.6397,7.6397,7.6397,7.6397,7.6397,7.6397,7.6397,7.6301,7.6225,7.6198,7.609,7.6072,7.6015,7.6015,7.6015,7.6015,7.6015,7.6015,7.6015,7.6015,7.6015,7.6015,7.6015,7.6015,7.6015,7.6015,7.6245,3.7104,3.7187,3.7448,3.7324,0.0,3.402,0.0,0.0,0.0,3.6356,3.6045,3.5811,3.7915,3.8578,3.9201,4.0409,4.3799,4.6137,4.5825,4.9333,5.2177,5.284,5.3814,5.4437,5.4437,5.4944,5.5528,5.6191,5.5762,5.5801,5.6464,5.6503,5.6503,5.6503,5.6503,5.6503,5.6503,5.7282,5.8139,5.8996,5.9893,6.075,6.1607,6.1607,6.1607,6.1607,6.1607,6.2542,6.4101,6.4101,6.5114,6.6712,6.6712,6.7647,6.905,6.9245,7.0258,7.1583,7.1739,7.1817,7.1817,7.1767,7.1745,7.1661,7.1614,7.2657,7.3883,7.3883,7.5121,7.6397,7.6397,7.6397,7.6397,7.6397,7.6397,7.6397,7.6397,7.6397,7.6397,7.6397,7.6397,7.6397,7.6397,7.6397,7.6397,7.6397,7.6397,7.6397,7.6397,7.6397,7.6397,7.6374,7.6276,7.6198,7.6172,7.6062,7.6015,7.6015,7.6015,7.6015,7.6015,7.6015,7.6015,7.6015,7.6015,7.6015,7.6015,7.6015,7.6015,7.6015,7.6015,7.6015,0.0,0.0,0.0,0.0,3.8592,3.8469,3.2689,0.0,3.2966,3.1875,0.0,3.262,3.2932,0.0,0.0,3.4486,3.8578,4.1305,3.9747,4.2552,4.5903,4.9021,5.0774,5.1749,5.1749,5.1125,5.2021,5.5139,5.319,5.3229,5.6308,5.6503,5.6503,5.6503,5.6503,5.6503,5.6503,5.7282,5.8139,5.8996,5.9893,6.075,6.1607,6.1607,6.1607,6.1607,6.1607,6.2542,6.4101,6.4101,6.5114,6.6712,6.6712,6.7296,6.8232,6.9011,6.9907,7.0842,7.1544,7.1817,7.1806,7.1706,7.163,7.1532,7.1581,7.2657,7.3883,7.3883,7.5121,7.6397,7.6397,7.6397,7.6397,7.6397,7.6397,7.6397,7.6397,7.6397,7.6397,7.6397,7.6397,7.6397,7.6397,7.6397,7.6397,7.6397,7.6397,7.6397,7.6397,7.6397,7.6374,7.6326,7.625,7.6172,7.6118,7.6034,7.6015,7.6015,7.6015,7.6015,7.6015,7.6015,7.6015,7.6015,7.6015,7.6015,7.6015,7.6015,7.6015,7.6015,7.6015,7.6015,0.0,0.0,0.0,0.0,0.0,0.0,3.3424,0.0,3.1963,0.0,0.0,0.0,0.0,0.0,0.0,0.0,3.6045,3.7642,3.6395,3.8772,4.1929,4.5358,4.641,4.7618,4.9644,4.9527,5.0307,5.2762,5.1904,5.2372,5.4866,5.5957,5.6503,5.6503,5.6503,5.6503,5.6503,5.6814,5.7672,5.8996,5.9386,6.0282,6.1607,6.1607,6.1607,6.1607,6.1607,6.2542,6.4101,6.4101,6.5114,6.6712,6.6712,6.7219,6.8115,6.8972,6.9829,7.0726,7.1505,7.1817,7.1817,7.1782,7.1665,7.1614,7.1598,7.2714,7.3971,7.3906,7.5121,7.6397,7.6397,7.6397,7.6397,7.6397,7.6397,7.6397,7.6397,7.6397,7.6397,7.6397,7.6397,7.6397,7.6397,7.6397,7.6397,7.6397,7.6397,7.6397,7.6397,7.6397,7.6374,7.6301,7.6225,7.6172,7.609,7.6034,7.6015,7.6015,7.6015,7.6015,7.6015,7.6015,7.6015,7.6015,7.6015,7.6015,7.6015,7.6015,7.6015,7.6015,7.6015,7.6015,4.0889,0.0,0.0,0.0,0.0,0.0,0.0,0.0,0.0,0.0,3.2655,0.0,0.0,0.0,0.0,0.0,0.0,3.5421,3.4096,3.5733,3.8188,4.1149,4.2552,4.4423,4.7423,4.7111,4.7774,5.0424,4.9722,5.0579,5.3736,5.51,5.5996,5.6464,5.6503,5.6503,5.6503,5.6503,5.7321,5.8996,5.8996,5.9893,6.1607,6.1607,6.1607,6.1607,6.1607,6.2542,6.4101,6.4101,6.5114,6.6712,6.6712,6.7102,6.7764,6.8894,6.9712,7.0375,7.1427,7.1806,7.1755,7.1755,7.1693,7.1645,7.1581,7.2696,7.3953,7.3906,7.5121,7.6397,7.6397,7.6397,7.6397,7.6397,7.6397,7.6397,7.6397,7.6397,7.6397,7.6397,7.6397,7.6397,7.6397,7.6397,7.6397,7.6397,7.6397,7.6397,7.6397,7.6397,7.635,7.6276,7.6198,7.6145,7.6062,7.6005,7.6015,7.6015,7.6015,7.6015,7.6015,7.6015,7.6015,7.6015,7.6015,7.6015,7.6015,7.6015,7.6015,7.6015,7.6015,7.6015,0.0,0.0,0.0,3.8818,0.0,0.0,0.0,0.0,3.5285,0.0,0.0,0.0,0.0,0.0,0.0,0.0,0.0,0.0,0.0,3.2971,3.4213,3.5928,3.9825,4.3059,4.4851,4.2786,4.3448,4.8514,4.5748,4.68,5.3541,5.397,5.4749,5.6464,5.6503,5.6503,5.6503,5.6503,5.7321,5.8996,5.8996,5.9893,6.1607,6.1607,6.1607,6.1607,6.1607,6.2542,6.4101,6.4101,6.5114,6.6712,6.6712,6.6712,6.6946,6.866,6.9323,6.9596,7.1232,7.1782,7.1679,7.1679,7.1614,7.1494,7.1494,7.2615,7.3883,7.3883,7.5121,7.6397,7.6397,7.6397,7.6397,7.6397,7.6397,7.6397,7.6397,7.6397,7.6397,7.6397,7.6397,7.6397,7.6397,7.6397,7.6397,7.6397,7.6397,7.6397,7.6397,7.635,7.6276,7.6198,7.6145,7.6062,7.6015,7.6015,7.6015,7.6015,7.6015,7.6015,7.6015,7.6015,7.6015,7.6015,7.6015,7.6015,7.6015,7.6015,7.6015,7.6015,7.6015,7.6015,0.0,0.0,4.7794,4.2606,0.0,0.0,0.0,0.0,0.0,0.0,0.0,0.0,0.0,0.0,0.0,0.0,0.0,0.0,0.0,3.0122,3.1213,3.4642,0.0,0.0,3.9006,4.0253,4.2046,4.4345,4.5007,4.7072,5.1086,5.3502,5.5022,5.5606,5.6191,5.6503,5.6503,5.6503,5.7321,5.8996,5.8996,5.9893,6.1607,6.1607,6.1607,6.1607,6.1607,6.2542,6.4101,6.4101,6.5114,6.6712,6.6712,6.6712,6.6907,6.866,6.9284,6.9518,7.1232,7.177,7.1718,7.1718,7.1645,7.1547,7.1513,7.2676,7.3932,7.3906,7.5121,7.6397,7.6397,7.6397,7.6397,7.6397,7.6397,7.6397,7.6397,7.6397,7.6397,7.6397,7.6397,7.6397,7.6397,7.6397,7.6397,7.6397,7.6374,7.6326,7.6326,7.6276,7.6198,7.6145,7.6118,7.6062,7.6015,7.6015,7.6015,7.6015,7.6015,7.6015,7.6015,7.6015,7.6015,7.6015,7.6015,7.6015,7.6015,7.6015,7.6015,7.6015,7.6015,7.6015,4.7784,4.9221,0.0,4.5453,4.42,0.0,3.7592,0.0,3.9259,0.0,0.0,0.0,0.0,0.0,0.0,0.0,0.0,0.0,0.0,2.926,3.0044,3.2499,0.0,0.0,0.0,3.7642,3.9123,4.2085,4.2747,4.4929,0.0,5.2255,5.4242,5.5178,5.6035,5.6503,5.6503,5.6503,5.7321,5.8996,5.8996,5.9893,6.1607,6.1607,6.1607,6.1607,6.1607,6.2542,6.4101,6.4101,6.5114,6.6712,6.6712,6.6712,6.6907,6.866,6.9673,7.0336,7.1427,7.1719,7.1675,7.1675,7.1598,7.1493,7.1416,7.2636,7.3971,7.3906,7.5121,7.6397,7.6397,7.6397,7.6397,7.6397,7.6397,7.6397,7.6397,7.6397,7.6397,7.6397,7.6397,7.6397,7.6397,7.6397,7.6397,7.6397,7.635,7.6301,7.6301,7.6225,7.6145,7.609,7.6062,7.6034,7.5976,7.6015,7.6015,7.6015,7.6015,7.6015,7.6015,7.6015,7.6015,7.6015,7.6015,7.6015,7.6015,7.6015,7.6015,7.6015,7.6015,7.6015]},{"header":{"parameterUnit":"m.s-1","parameterCategory":1,"la1":30.6,"la2":29.2853,"lo1":-89.7004,"lo2":-87.6739,"dy":0.0162,"dx":0.0183,"nx":112,"ny":82,"refTime":"2025-02-26T06:00:00:Z","depth":0,"parameterNumber":3,"parameterNumberName":"V-component_of_WINDS"},"data":[0.0,0.0,0.0,0.0,0.0,0.0,0.0,0.0,0.0,0.0,0.0,0.0,0.0,0.0,0.0,0.0,0.0,0.0,0.0,0.0,0.0,0.0,0.0,0.0,0.0,0.0,0.0,0.0,0.0,0.0,0.0,0.0,0.0,0.0,0.0,0.0,0.0,0.0,0.0,0.0,0.0,0.0,0.0,0.0,0.0,0.0,0.0,0.0,0.0,0.0,0.0,0.0,0.0,0.0,0.0,0.0,0.0,0.0,0.0,0.0,0.0,0.0,0.0,0.0,0.0,0.0,0.0,0.0,0.0,0.0,0.0,0.0,0.0,0.0,0.0,0.0,0.0,0.0,0.0,0.0,0.0,0.0,0.0,0.0,0.0,0.0,0.0,0.0,0.0,0.0,-0.2679,-0.2752,-0.3044,-0.3232,-0.3232,-0.3174,-0.2989,-0.2638,0.0,0.0,0.0,0.0,0.0,0.0,0.0,0.0,0.0,0.0,0.0,0.0,0.0,0.0,0.0,0.0,0.0,0.0,0.0,0.0,0.0,0.0,0.0,0.0,0.0,0.0,0.0,0.0,0.0,0.0,0.0,0.0,0.0,0.0,0.0,0.0,0.0,0.0,0.0,0.0,0.0,0.0,0.0,0.0,0.0,0.0,0.0,0.0,0.0,0.0,0.0,0.0,0.0,0.0,0.0,0.0,0.0,0.0,0.0,0.0,0.0,0.0,0.0,0.0,0.0,0.0,0.0,0.0,0.0,0.0,0.0,0.0,0.0,0.0,0.0,0.0,0.0,0.0,0.0,0.0,0.0,0.0,0.0,0.0,0.0,0.0,0.0,0.0,0.0,0.0,0.0,0.0,0.0,0.0,0.0,0.0,0.0,0.0,0.0,0.0,0.0,0.0,0.0,0.0,-0.2619,-0.3027,-0.3166,-0.3232,-0.3232,-0.3174,-0.3008,-0.2698,0.0,0.0,0.0,0.0,0.0,0.0,0.0,0.0,0.0,0.0,0.0,0.0,0.0,0.0,0.0,0.0,0.0,0.0,0.0,0.0,0.0,0.0,0.0,0.0,0.0,0.0,0.0,0.0,0.0,0.0,0.0,0.0,0.0,0.0,0.0,0.0,0.0,0.0,0.0,0.0,0.0,0.0,0.0,0.0,0.0,0.0,0.0,0.0,0.0,0.0,0.0,0.0,0.0,0.0,0.0,0.0,0.0,0.0,0.0,0.0,0.0,0.0,0.0,0.0,0.0,0.0,0.0,0.0,0.0,0.0,0.0,0.0,0.0,0.0,0.0,0.0,0.0,0.0,0.0,0.0,0.0,0.0,0.0,0.0,0.0,0.0,0.0,0.0,0.0,0.0,0.0,0.0,0.0,0.0,0.0,0.0,0.0,0.0,0.0,0.0,0.0,0.0,0.0,-0.2523,-0.2728,-0.3144,-0.3213,-0.3232,-0.3232,-0.3174,-0.3011,-0.2711,-0.252,0.0,0.0,0.0,0.0,0.0,0.0,0.0,0.0,0.0,0.0,0.0,0.0,0.0,0.0,0.0,0.0,0.0,0.0,0.0,0.0,0.0,0.0,0.0,0.0,0.0,0.0,0.0,0.0,0.0,0.0,0.0,0.0,0.0,0.0,0.0,0.0,0.0,0.0,0.0,0.0,0.0,0.0,0.0,0.0,0.0,0.0,0.0,0.0,0.0,0.0,0.0,0.0,0.0,0.0,0.0,0.0,0.0,0.0,0.0,0.0,0.0,0.0,0.0,0.0,0.0,0.0,0.0,0.0,0.0,0.0,0.0,0.0,0.0,0.0,0.0,0.0,0.0,0.0,0.0,0.0,0.0,0.0,0.0,0.0,0.0,0.0,0.0,0.0,0.0,0.0,0.0,0.0,0.0,0.0,0.0,0.0,0.0,0.0,0.0,0.0,0.0,0.0,-0.2793,-0.291,-0.3199,-0.3232,-0.3232,-0.3232,-0.3136,-0.2962,-0.2687,-0.2474,0.0,0.0,0.0,0.0,0.0,0.0,0.0,0.0,0.0,0.0,0.0,0.0,0.0,0.0,0.0,0.0,0.0,0.0,0.0,0.0,0.0,0.0,0.0,0.0,0.0,0.0,0.0,0.0,0.0,0.0,0.0,0.0,0.0,0.0,0.0,0.0,0.0,0.0,0.0,0.0,0.0,0.0,0.0,0.0,0.0,0.0,0.0,0.0,0.0,0.0,0.0,0.0,0.0,0.0,0.0,0.0,0.0,0.0,0.0,0.0,0.0,0.0,0.0,0.0,0.0,0.0,0.0,0.0,0.0,0.0,0.0,0.0,0.0,0.0,0.0,0.0,0.0,0.0,0.0,0.0,0.0,0.0,0.0,0.0,0.0,0.0,0.0,0.0,0.0,0.0,0.0,0.0,0.0,0.0,0.0,0.0,0.0,0.0,0.0,0.0,0.0,0.0,-0.2872,-0.3139,-0.3221,-0.3232,-0.3232,-0.3232,-0.3022,-0.2812,-0.2619,-0.2335,0.0,0.0,0.0,0.0,0.0,0.0,0.0,0.0,0.0,0.0,0.0,0.0,0.0,0.0,0.0,0.0,0.0,0.0,0.0,0.0,0.0,0.0,0.0,0.0,0.0,0.0,0.0,0.0,0.0,0.0,0.0,0.0,0.0,0.0,0.0,0.0,0.0,0.0,0.0,0.0,0.0,0.0,0.0,0.0,0.0,0.0,0.0,0.0,0.0,0.0,0.0,0.0,0.0,0.0,0.0,0.0,0.0,0.0,0.0,0.0,0.0,0.0,0.0,0.0,0.0,0.0,0.0,0.0,0.0,0.0,0.0,0.0,0.0,0.0,0.0,0.0,0.0,0.0,0.0,0.0,0.0,0.0,0.0,0.0,0.0,0.0,0.0,0.0,0.0,0.0,0.0,0.0,0.0,0.0,0.0,0.0,0.0,0.0,0.0,0.0,0.0,0.0,-0.2782,-0.3041,-0.3213,-0.3232,-0.3232,-0.3232,-0.3112,-0.2916,-0.2621,0.0,0.0,0.0,0.0,0.0,0.0,0.0,0.0,0.0,0.0,0.0,0.0,0.0,0.0,0.0,0.0,0.0,0.0,0.0,0.0,0.0,0.0,0.0,0.0,0.0,0.0,0.0,0.0,0.0,0.0,0.0,0.0,0.0,0.0,0.0,0.0,0.0,0.0,0.0,0.0,0.0,0.0,0.0,0.0,0.0,0.0,0.0,0.0,0.0,0.0,0.0,0.0,0.0,0.0,0.0,0.0,0.0,0.0,0.0,0.0,0.0,0.0,0.0,0.0,0.0,0.0,0.0,0.0,0.0,0.0,0.0,0.0,0.0,0.0,0.0,0.0,0.0,0.0,0.0,0.0,0.0,0.0,0.0,0.0,0.0,0.0,0.0,0.0,0.0,0.0,0.0,0.0,0.0,0.0,0.0,0.0,0.0,0.0,0.0,0.0,0.0,0.0,-0.2491,-0.279,-0.3049,-0.3213,-0.3232,-0.3232,-0.3232,-0.3106,-0.2897,-0.2591,0.0,0.0,0.0,0.0,0.0,0.0,0.0,0.0,0.0,0.0,0.0,0.0,0.0,0.0,0.0,0.0,0.0,0.0,0.0,0.0,0.0,0.0,0.0,0.0,0.0,0.0,0.0,0.0,0.0,0.0,0.0,0.0,0.0,0.0,0.0,0.0,0.0,0.0,0.0,0.0,0.0,0.0,0.0,0.0,0.0,0.0,0.0,0.0,0.0,0.0,0.0,0.0,0.0,0.0,0.0,0.0,0.0,0.0,0.0,0.0,0.0,0.0,0.0,0.0,0.0,0.0,0.0,0.0,0.0,0.0,0.0,0.0,0.0,0.0,0.0,0.0,0.0,0.0,0.0,0.0,0.0,0.0,0.0,0.0,0.0,0.0,0.0,0.0,0.0,0.0,0.0,0.0,0.0,0.0,0.0,0.0,0.0,0.0,0.0,0.0,0.0,0.0,-0.2512,-0.2932,-0.3232,-0.3232,-0.3232,-0.3232,-0.3232,-0.2956,-0.2706,0.0,0.0,0.0,0.0,0.0,0.0,0.0,0.0,0.0,0.0,0.0,0.0,0.0,0.0,0.0,0.0,0.0,0.0,0.0,0.0,0.0,0.0,0.0,0.0,0.0,0.0,0.0,0.0,0.0,0.0,0.0,0.0,0.0,0.0,0.0,0.0,0.0,0.0,0.0,0.0,0.0,0.0,0.0,0.0,0.0,0.0,0.0,0.0,0.0,0.0,0.0,0.0,0.0,0.0,0.0,0.0,0.0,0.0,0.0,0.0,0.0,0.0,0.0,0.0,0.0,0.0,0.0,0.0,0.0,0.0,0.0,0.0,0.0,0.0,0.0,0.0,0.0,0.0,0.0,0.0,0.0,0.0,0.0,0.0,0.0,0.0,0.0,0.0,0.0,0.0,0.0,0.0,0.0,0.0,0.0,0.0,0.0,0.0,0.0,0.0,0.0,0.0,0.0,-0.257,-0.2959,-0.3232,-0.3232,-0.3232,-0.3232,-0.3232,-0.303,-0.2793,-0.2526,0.0,0.0,0.0,0.0,0.0,0.0,0.0,0.0,0.0,0.0,0.0,0.0,0.0,0.0,0.0,0.0,0.0,0.0,0.0,0.0,0.0,0.0,0.0,0.0,0.0,0.0,0.0,0.0,0.0,0.0,0.0,0.0,0.0,0.0,0.0,0.0,0.0,0.0,0.0,0.0,0.0,0.0,0.0,0.0,0.0,0.0,0.0,0.0,0.0,0.0,0.0,0.0,0.0,0.0,0.0,0.0,0.0,0.0,0.0,0.0,0.0,0.0,0.0,0.0,0.0,0.0,0.0,0.0,0.0,0.0,0.0,0.0,0.0,0.0,0.0,0.0,0.0,0.0,0.0,0.0,0.0,0.0,0.0,0.0,0.0,0.0,0.0,0.0,0.0,0.0,0.0,0.0,0.0,0.0,0.0,0.0,0.0,0.0,0.0,0.0,0.0,0.0,-0.2594,-0.297,-0.3232,-0.3232,-0.3232,-0.3232,-0.3232,-0.3085,-0.2867,-0.2567,0.0,0.0,0.0,0.0,0.0,0.0,0.0,0.0,0.0,0.0,0.0,0.0,0.0,0.0,0.0,0.0,0.0,0.0,0.0,0.0,0.0,0.0,0.0,0.0,0.0,0.0,0.0,0.0,0.0,0.0,0.0,0.0,0.0,0.0,0.0,0.0,0.0,0.0,0.0,0.0,0.0,0.0,0.0,0.0,0.0,0.0,0.0,0.0,0.0,0.0,0.0,0.0,0.0,0.0,0.0,0.0,0.0,0.0,0.0,0.0,0.0,0.0,0.0,0.0,0.0,0.0,0.0,0.0,0.0,0.0,0.0,0.0,0.0,0.0,0.0,0.0,0.0,0.0,0.0,0.0,0.0,0.0,0.0,0.0,0.0,0.0,0.0,0.0,0.0,0.0,0.0,0.0,0.0,0.0,0.0,0.0,0.0,0.0,0.0,0.0,0.0,0.0,-0.2689,-0.2981,-0.324,-0.3245,-0.3243,-0.324,-0.324,-0.3123,-0.2924,-0.2629,0.0,0.0,0.0,0.0,0.0,0.0,0.0,0.0,0.0,0.0,0.0,0.0,0.0,0.0,0.0,0.0,0.0,0.0,0.0,0.0,0.0,0.0,0.0,0.0,0.0,0.0,0.0,0.0,0.0,0.0,0.0,0.0,0.0,0.0,0.0,0.0,0.0,0.0,0.0,0.0,0.0,0.0,0.0,0.0,0.0,0.0,0.0,0.0,0.0,0.0,0.0,0.0,0.0,0.0,0.0,0.0,0.0,0.0,0.0,0.0,-0.2303,-0.2188,0.0,0.0,0.0,0.0,0.0,0.0,0.0,0.0,0.0,0.0,0.0,0.0,0.0,0.0,0.0,0.0,0.0,0.0,0.0,0.0,0.0,0.0,0.0,0.0,0.0,0.0,0.0,0.0,0.0,0.0,0.0,0.0,0.0,0.0,0.0,0.0,0.0,0.0,0.0,0.0,-0.3059,-0.326,-0.3322,-0.3368,-0.333,-0.3303,-0.3303,-0.3147,-0.294,-0.2689,-0.2447,0.0,0.0,0.0,0.0,0.0,0.0,0.0,0.0,0.0,0.0,0.0,0.0,0.0,0.0,0.0,0.0,0.0,0.0,0.0,0.0,0.0,0.0,0.0,0.0,0.0,0.0,0.0,0.0,0.0,0.0,0.0,0.0,0.0,0.0,0.0,0.0,0.0,0.0,0.0,0.0,0.0,0.0,0.0,0.0,0.0,0.0,0.0,0.0,0.0,0.0,0.0,0.0,0.0,0.0,0.0,0.0,0.0,0.0,0.0,-0.2572,-0.2466,0.0,0.0,0.0,0.0,0.0,0.0,0.0,0.0,0.0,0.0,0.0,0.0,0.0,0.0,0.0,0.0,0.0,0.0,0.0,0.0,0.0,0.0,0.0,0.0,0.0,0.0,0.0,0.0,0.0,0.0,0.0,0.0,0.0,0.0,0.0,0.0,0.0,0.0,0.0,0.0,-0.356,-0.3623,-0.3699,-0.3733,-0.34,-0.3278,-0.3278,-0.3164,-0.3003,-0.2793,-0.258,0.0,0.0,0.0,0.0,0.0,0.0,0.0,0.0,0.0,0.0,0.0,0.0,0.0,0.0,0.0,0.0,0.0,0.0,0.0,0.0,0.0,0.0,0.0,0.0,0.0,0.0,0.0,0.0,0.0,0.0,0.0,0.0,0.0,0.0,0.0,0.0,0.0,0.0,0.0,0.0,0.0,0.0,0.0,0.0,0.0,0.0,0.0,0.0,0.0,0.0,0.0,0.0,0.0,-0.3218,-0.3187,-0.3096,-0.3195,-0.3172,-0.3202,-0.2902,-0.2828,-0.2899,-0.2627,0.0,0.0,0.0,0.0,0.0,0.0,0.0,0.0,0.0,0.0,0.0,0.0,0.0,0.0,0.0,0.0,0.0,0.0,0.0,0.0,0.0,0.0,0.0,0.0,-0.4144,-0.3957,-0.4579,0.0,0.0,0.0,0.0,0.0,0.0,0.0,0.0,0.0,0.0,0.0,-0.4155,-0.4167,-0.4159,-0.4173,-0.3758,-0.3448,-0.3448,-0.3387,-0.337,-0.3188,-0.2915,-0.2704,0.0,0.0,0.0,0.0,0.0,0.0,0.0,0.0,0.0,0.0,0.0,0.0,0.0,0.0,0.0,0.0,0.0,0.0,0.0,0.0,0.0,0.0,0.0,0.0,0.0,0.0,0.0,0.0,0.0,0.0,0.0,0.0,-0.1108,-0.114,0.0,0.0,0.0,0.0,0.0,0.0,0.0,0.0,0.0,0.0,0.0,0.0,0.0,-0.1522,-0.1583,-0.2553,-0.3155,-0.3215,-0.3436,-0.3602,-0.3711,-0.3729,-0.363,-0.3526,-0.3477,0.0,-0.3093,-0.2948,0.0,0.0,0.0,0.0,0.0,0.0,0.0,0.0,0.0,0.0,0.0,0.0,0.0,0.0,0.0,0.0,0.0,0.0,0.0,0.0,0.0,0.0,-0.3329,-0.3943,-0.394,-0.4113,0.0,-0.4656,-0.3994,-0.4013,-0.3572,0.0,0.0,0.0,0.0,0.0,0.0,0.0,-0.4786,-0.4814,-0.4775,-0.4853,-0.4794,-0.4644,-0.4644,-0.4568,-0.454,-0.4454,-0.3904,-0.3435,-0.3277,-0.2548,0.0,0.0,0.0,0.0,0.0,0.0,0.0,0.0,0.0,0.0,0.0,0.0,0.0,0.0,0.0,0.0,0.0,0.0,0.0,0.0,0.0,0.0,0.0,0.0,0.0,0.0,0.0,0.0,0.0,-0.1176,-0.1176,-0.119,-0.1286,-0.134,0.0,0.0,0.0,0.0,0.0,0.0,0.0,0.0,0.0,-0.1236,-0.1565,-0.2019,-0.2726,-0.3329,-0.363,-0.3613,-0.3665,-0.3841,-0.3911,-0.3911,-0.3928,-0.3714,-0.3733,-0.3616,-0.3477,-0.3253,-0.3079,-0.294,0.0,0.0,0.0,0.0,-0.2722,-0.2747,-0.291,-0.2943,-0.2902,-0.2826,0.0,0.0,0.0,0.0,0.0,0.0,0.0,-0.3635,0.0,0.0,-0.3745,-0.369,-0.3908,-0.4205,-0.4681,-0.4901,-0.4868,0.0,-0.4173,-0.3795,-0.3586,-0.3624,0.0,0.0,0.0,-0.5004,-0.54,-0.5387,-0.5315,-0.5359,-0.5018,-0.4896,-0.4896,-0.4859,-0.4781,-0.4747,-0.4145,-0.3901,-0.3961,-0.319,-0.2871,0.0,0.0,0.0,0.0,0.0,0.0,0.0,0.0,0.0,0.0,0.0,0.0,0.0,0.0,0.0,0.0,0.0,0.0,0.0,0.0,0.0,0.0,0.0,0.0,0.0,0.0,0.0,0.0,-0.1353,-0.1348,-0.1269,-0.1405,-0.1477,0.0,0.0,0.0,0.0,0.0,0.0,-0.1675,-0.1521,-0.1494,-0.1716,-0.1731,-0.2218,-0.3128,-0.3359,-0.3523,-0.3861,-0.3982,-0.4029,-0.3995,-0.4122,-0.4019,-0.3923,-0.3918,-0.3861,-0.3837,-0.3521,-0.3346,-0.3262,-0.3098,-0.3025,-0.3019,-0.3074,-0.3095,-0.3123,-0.3322,-0.336,-0.33,-0.3164,-0.3076,-0.2984,-0.2744,0.0,0.0,0.0,0.0,-0.3575,-0.3388,-0.382,-0.4147,-0.4156,-0.4397,-0.4824,-0.4931,-0.5597,-0.5851,0.0,-0.4835,-0.46,-0.4171,-0.4348,0.0,-0.4543,-0.5194,-0.5773,-0.6007,-0.5909,-0.5876,-0.5876,-0.545,-0.5236,-0.5236,-0.5236,-0.5205,-0.513,-0.4651,-0.4438,-0.465,-0.3957,-0.363,-0.3821,0.0,0.0,0.0,0.0,0.0,0.0,0.0,0.0,0.0,0.0,0.0,0.0,0.0,0.0,0.0,0.0,0.0,0.0,0.0,0.0,0.0,0.0,0.0,0.0,0.0,0.0,0.0,0.0,0.0,-0.1425,-0.1478,0.0,0.0,0.0,0.0,-0.1688,-0.1602,-0.1585,-0.1648,-0.1678,-0.1968,-0.269,-0.1961,-0.1769,-0.2131,-0.2131,-0.2651,-0.385,-0.4109,-0.424,-0.4246,-0.4246,-0.412,-0.412,-0.4112,-0.4106,-0.4079,-0.3722,-0.3507,-0.3409,-0.345,-0.3433,-0.3392,-0.345,-0.3469,-0.348,-0.355,-0.3572,-0.3567,-0.3559,-0.3401,-0.3204,-0.3131,-0.3027,0.0,0.0,-0.3158,-0.3338,-0.4093,-0.4293,-0.4676,-0.5778,-0.5999,-0.6216,-0.6758,-0.677,-0.6474,0.0,-0.5665,-0.5711,-0.5454,0.0,-0.5415,-0.5555,-0.5893,-0.6143,-0.6377,-0.6529,-0.6508,-0.6508,-0.6406,-0.6337,-0.6337,-0.6337,-0.6331,-0.6326,-0.5831,-0.5432,-0.5317,-0.474,-0.4411,-0.4442,-0.4031,0.0,0.0,0.0,0.0,0.0,0.0,0.0,0.0,0.0,0.0,0.0,0.0,0.0,0.0,0.0,0.0,0.0,0.0,0.0,0.0,0.0,0.0,0.0,0.0,0.0,0.0,0.0,0.0,-0.1803,-0.1676,0.0,-0.1905,-0.1954,-0.1896,-0.2009,-0.1968,-0.1937,-0.1802,-0.1814,-0.1865,-0.2092,-0.21,-0.2503,-0.3456,-0.3454,-0.3737,-0.4183,-0.4015,-0.4015,-0.4052,-0.4145,-0.4125,-0.4123,-0.4046,-0.4033,-0.4055,-0.3888,-0.3774,-0.3692,-0.3594,-0.3542,-0.3523,-0.3504,-0.3521,-0.3559,-0.358,-0.3589,-0.3589,-0.3589,-0.3529,-0.3455,-0.3433,-0.3398,-0.3371,-0.3414,-0.3796,-0.4186,-0.446,-0.4867,-0.5272,-0.5733,-0.6134,-0.6312,-0.6537,-0.689,-0.697,-0.6558,-0.6428,-0.629,-0.6051,-0.6034,-0.6062,-0.6078,-0.6279,-0.6486,-0.6649,-0.6709,-0.6709,-0.6627,-0.6578,-0.6524,-0.6442,-0.6437,-0.6404,-0.6333,-0.5801,-0.56,-0.5696,-0.5156,-0.4965,-0.5064,-0.482,-0.4499,0.0,0.0,0.0,0.0,0.0,0.0,0.0,0.0,0.0,0.0,0.0,0.0,0.0,0.0,0.0,0.0,0.0,0.0,0.0,0.0,0.0,0.0,0.0,0.0,0.0,-0.1898,-0.2043,-0.2095,-0.1986,-0.2022,-0.2268,-0.2256,-0.2317,-0.2317,-0.2153,-0.2099,-0.2168,-0.1929,-0.196,-0.2285,-0.268,-0.3335,-0.426,-0.4257,-0.4277,-0.4185,-0.4015,-0.4015,-0.3922,-0.4015,-0.4125,-0.4123,-0.4044,-0.403,-0.406,-0.4003,-0.3943,-0.388,-0.3779,-0.3728,-0.3706,-0.3665,-0.3676,-0.3706,-0.3687,-0.3651,-0.3619,-0.3619,-0.3605,-0.3589,-0.3589,-0.3589,-0.3589,-0.3589,-0.4067,-0.4669,-0.4896,-0.5394,-0.5899,-0.6129,-0.6417,-0.6709,-0.6709,-0.6985,-0.7133,-0.7056,-0.6877,-0.6681,-0.648,-0.6507,-0.6535,-0.6458,-0.6616,-0.6774,-0.6855,-0.6866,-0.6834,-0.6752,-0.6671,-0.6589,-0.6507,-0.6426,-0.635,-0.6274,-0.594,-0.5721,-0.5855,-0.5481,-0.5343,-0.5377,-0.5214,-0.4855,-0.4295,0.0,0.0,0.0,0.0,0.0,0.0,0.0,0.0,0.0,0.0,0.0,0.0,0.0,0.0,0.0,0.0,0.0,0.0,0.0,0.0,0.0,0.0,0.0,-0.2063,-0.2255,-0.2392,-0.2292,-0.2328,-0.2378,-0.2694,-0.2506,-0.2365,-0.2365,-0.2216,-0.2144,-0.2651,-0.2271,-0.2412,-0.3095,-0.3819,-0.4325,-0.4254,-0.4254,-0.4125,-0.3868,-0.3994,-0.4123,-0.4123,-0.412,-0.412,-0.412,-0.412,-0.4123,-0.4117,-0.406,-0.4003,-0.3959,-0.4008,-0.3995,-0.3946,-0.3946,-0.3946,-0.3937,-0.3877,-0.3779,-0.3681,-0.3681,-0.364,-0.3594,-0.3594,-0.3594,-0.3594,-0.3594,-0.4039,-0.4599,-0.527,-0.5828,-0.6497,-0.7054,-0.7165,-0.716,-0.716,-0.716,-0.7154,-0.7154,-0.7067,-0.6953,-0.6834,-0.6812,-0.6812,-0.6812,-0.6915,0.0,-0.6991,-0.6991,-0.6991,-0.6986,-0.6774,-0.6627,-0.6622,-0.641,-0.6274,-0.6263,-0.6154,-0.598,-0.5746,-0.5741,-0.5627,-0.5393,-0.5148,-0.4904,-0.4742,0.0,0.0,0.0,0.0,0.0,0.0,0.0,0.0,0.0,0.0,0.0,0.0,0.0,0.0,0.0,0.0,0.0,0.0,0.0,0.0,0.0,-0.2312,-0.2474,-0.268,-0.2568,-0.2637,-0.2999,-0.2737,-0.2553,-0.2946,-0.2744,-0.2646,-0.2898,-0.2747,-0.2757,-0.2947,-0.289,-0.2888,-0.322,-0.3724,-0.3981,-0.3997,-0.3997,-0.3997,-0.3865,-0.3952,-0.3933,-0.3931,-0.4016,-0.4,-0.4,-0.4,-0.4022,-0.4057,-0.4041,-0.4025,-0.4006,-0.3935,-0.3872,-0.3818,-0.3818,-0.3818,-0.3818,-0.3801,-0.3771,-0.3744,-0.3744,-0.3733,-0.3719,-0.3719,-0.3719,-0.3835,-0.4299,-0.4528,-0.4875,-0.5916,-0.6378,-0.6609,-0.73,-0.735,-0.7285,-0.7285,-0.722,-0.7154,-0.7154,-0.7127,-0.7095,-0.7062,-0.7056,-0.7056,-0.7056,-0.7089,0.0,-0.7105,-0.7105,-0.7078,-0.6991,-0.6926,-0.6812,-0.6632,-0.6562,-0.641,-0.6154,-0.6105,-0.6018,-0.586,-0.5855,-0.5822,-0.5757,-0.5349,-0.5105,0.0,0.0,0.0,0.0,0.0,0.0,0.0,0.0,0.0,0.0,0.0,0.0,0.0,0.0,0.0,0.0,0.0,0.0,0.0,0.0,0.0,0.0,-0.2542,-0.2933,-0.3216,-0.3117,-0.3023,-0.3424,-0.3098,-0.3009,-0.3445,-0.3196,-0.3069,-0.3196,-0.3164,-0.3167,-0.3351,-0.3173,-0.3284,-0.3575,-0.3832,-0.3949,-0.3925,-0.3925,-0.3925,-0.3925,-0.3891,-0.3875,-0.3873,-0.3841,-0.3951,-0.3951,-0.3951,-0.397,-0.4,-0.4,-0.4,-0.3995,0.0,0.0,0.0,0.0,-0.3828,-0.3807,-0.3807,-0.379,-0.3768,-0.3768,-0.3768,-0.3886,-0.4121,-0.4217,-0.4312,-0.489,-0.5215,-0.5529,-0.6217,-0.656,-0.6909,-0.7252,-0.7312,-0.7258,-0.7258,-0.7203,-0.7154,-0.7154,-0.7154,0.0,-0.7154,-0.7154,-0.7154,-0.7154,-0.7154,-0.7154,-0.7154,-0.7154,-0.7127,-0.7062,-0.7013,-0.6926,-0.6785,-0.6632,0.0,0.0,0.0,-0.6029,-0.5909,-0.5855,0.0,0.0,0.0,0.0,0.0,0.0,0.0,0.0,-0.5241,-0.5208,0.0,0.0,0.0,0.0,0.0,0.0,0.0,0.0,0.0,0.0,0.0,0.0,0.0,0.0,0.0,0.0,-0.2884,-0.3327,-0.3856,-0.3643,-0.3561,-0.3658,-0.3539,-0.3663,-0.3918,-0.3668,-0.3417,-0.3544,-0.3326,-0.3346,-0.3601,-0.3337,0.0,0.0,0.0,-0.3875,-0.3951,-0.3951,-0.3951,-0.3951,-0.3951,-0.3951,-0.3951,-0.3951,-0.3951,-0.3951,-0.3951,-0.3951,-0.3951,-0.3951,-0.3951,-0.3956,-0.4006,-0.3995,-0.3951,-0.3951,-0.3916,-0.3869,-0.3869,0.0,0.0,-0.3779,-0.3892,-0.4004,-0.4591,-0.4661,-0.4721,-0.5524,-0.5917,-0.6298,-0.641,-0.6847,-0.7176,-0.7176,-0.7165,-0.7154,-0.7154,-0.7154,-0.7154,-0.7154,-0.7154,-0.7154,-0.7154,-0.7154,-0.7154,-0.7154,-0.7154,-0.7154,-0.7154,-0.7154,-0.7154,-0.7154,0.0,0.0,-0.6986,-0.6687,-0.6486,-0.6458,-0.6263,-0.6094,-0.5991,-0.5888,-0.5882,-0.598,-0.6078,-0.6176,-0.629,-0.6399,-0.6464,-0.6464,-0.5801,-0.5659,0.0,0.0,0.0,0.0,0.0,0.0,0.0,0.0,0.0,0.0,0.0,0.0,0.0,0.0,0.0,-0.2537,-0.3038,-0.344,-0.3606,-0.3791,-0.3954,-0.3978,-0.3687,-0.3551,-0.3717,-0.334,-0.334,-0.3594,-0.344,-0.3548,-0.3925,-0.3758,-0.3854,-0.3967,-0.3967,-0.3962,-0.3951,-0.3951,-0.3951,-0.3951,-0.3951,0.0,-0.3951,-0.3951,-0.3951,-0.3951,-0.3951,-0.3951,-0.3951,-0.3951,-0.3951,-0.3951,-0.3962,-0.3959,-0.3951,-0.3951,-0.3943,-0.3932,-0.3932,-0.3894,-0.3842,-0.3842,-0.4166,-0.4591,-0.4705,-0.4695,0.0,-0.6085,-0.6071,-0.5938,-0.6985,-0.7263,-0.7301,-0.7301,-0.7225,-0.7154,-0.7154,-0.7154,-0.7154,-0.7154,-0.7154,-0.7154,-0.7154,-0.7154,-0.7154,-0.7154,-0.7154,-0.7154,-0.7154,-0.7154,-0.7154,-0.7154,-0.7133,-0.7084,-0.6991,-0.6921,-0.6796,-0.6594,-0.654,-0.6507,-0.648,-0.6458,-0.6458,-0.648,-0.6404,-0.6382,-0.6404,-0.6524,-0.6632,-0.6725,-0.6393,-0.6274,0.0,0.0,0.0,0.0,0.0,0.0,0.0,0.0,0.0,0.0,0.0,-0.1522,-0.1864,0.0,-0.2461,-0.2703,-0.331,-0.3697,-0.3558,-0.3827,-0.409,-0.4123,-0.3947,-0.3796,-0.3822,-0.3675,-0.3534,-0.3784,-0.3761,-0.3745,-0.3992,-0.3965,-0.3951,-0.3951,-0.3951,-0.3951,-0.3951,-0.3951,-0.3951,-0.3951,-0.3951,-0.3951,-0.3951,-0.3951,-0.3951,-0.3951,-0.3951,-0.3951,-0.3951,-0.3951,-0.3951,-0.3951,-0.3951,-0.3951,-0.3951,-0.3951,-0.3951,-0.3951,-0.3951,-0.3929,-0.3905,-0.3905,-0.4125,-0.434,-0.4697,-0.5029,-0.5356,-0.6423,-0.6622,-0.6696,-0.7285,-0.7475,-0.7426,-0.7426,-0.7383,-0.7339,-0.7339,-0.7339,-0.7317,-0.7258,-0.7247,-0.7225,-0.7165,-0.7154,-0.7154,-0.7154,-0.7154,-0.7154,-0.7154,-0.7154,-0.7154,-0.7154,-0.7154,-0.7133,-0.7073,-0.7018,-0.6904,-0.6719,-0.6709,-0.6709,-0.6709,-0.6709,-0.6709,-0.6709,-0.6768,-0.6796,-0.6796,-0.698,-0.71,-0.716,-0.704,-0.6948,0.0,0.0,0.0,0.0,0.0,0.0,0.0,0.0,-0.1337,-0.144,-0.1608,-0.1682,-0.1964,-0.2414,-0.277,-0.2852,-0.3439,-0.3912,-0.3715,-0.3812,-0.4049,-0.4087,-0.4049,-0.4019,-0.4019,-0.3978,-0.3951,-0.3951,-0.3959,-0.3967,-0.3967,-0.3978,-0.3984,-0.3984,-0.3984,-0.3984,-0.3984,-0.3984,-0.3984,-0.3984,-0.3984,-0.3984,-0.3984,-0.3973,-0.3967,-0.3965,-0.3956,-0.3951,-0.3951,-0.3951,-0.3951,-0.3951,-0.3951,-0.3951,-0.3951,-0.3951,-0.3951,-0.3951,-0.3951,-0.3951,-0.3951,-0.3951,-0.3948,-0.4195,-0.4926,-0.5373,-0.5927,-0.6649,-0.7184,-0.7466,-0.7589,-0.7573,-0.7551,-0.7551,-0.7535,-0.7519,-0.7519,-0.7519,-0.7491,-0.7388,-0.7372,-0.7339,-0.7241,-0.7225,-0.7209,-0.716,-0.7176,-0.7187,-0.7187,-0.7209,-0.7225,-0.7225,-0.7225,-0.7225,-0.7225,-0.7143,-0.7046,-0.6948,-0.6942,-0.6942,-0.6942,-0.6942,-0.6942,-0.6942,-0.7127,-0.7225,-0.7225,-0.7421,-0.7529,-0.7551,-0.7551,-0.7491,-0.1276,-0.1227,-0.123,-0.1303,-0.1307,-0.1348,0.0,0.0,-0.1536,-0.168,-0.1908,-0.2041,-0.1948,-0.2395,-0.2768,-0.2973,-0.3357,-0.3606,-0.391,-0.4038,-0.4019,-0.3976,-0.3965,-0.3959,-0.3959,-0.3954,-0.3951,-0.3951,-0.3997,-0.4025,-0.4025,-0.4076,-0.4106,-0.4106,-0.4106,-0.4106,-0.4106,-0.4106,-0.4106,-0.4106,-0.4106,-0.4106,-0.4104,-0.4049,-0.4025,-0.4022,-0.3973,-0.3951,-0.3951,-0.3951,-0.3951,-0.3951,-0.3951,-0.3951,-0.3951,-0.3951,-0.3951,-0.3951,-0.3951,-0.3951,-0.3951,-0.3951,-0.4318,-0.4926,-0.554,-0.5778,-0.6137,-0.7362,-0.7352,-0.7099,-0.7707,-0.7758,-0.7682,-0.7682,-0.7595,-0.7519,-0.7519,-0.7519,-0.7513,-0.7502,-0.7497,-0.7491,-0.7481,-0.7481,-0.7404,-0.7187,-0.7247,-0.7312,-0.7312,-0.741,-0.7481,-0.7481,-0.7481,-0.7481,-0.7481,-0.7464,-0.7453,-0.7442,-0.7437,-0.7437,-0.7437,-0.7437,-0.7437,-0.7437,-0.7464,-0.7481,-0.7481,-0.7502,-0.7573,-0.7682,-0.7682,-0.7616,-0.1459,-0.1418,-0.1404,0.0,-0.1468,-0.1516,-0.1636,-0.1645,-0.1658,-0.1756,-0.1906,-0.2047,-0.2086,-0.2607,-0.2911,0.0,-0.3494,-0.3758,-0.3655,-0.3883,-0.3965,-0.3905,-0.3929,-0.3951,-0.3951,-0.3951,-0.3965,-0.3997,-0.4022,-0.4065,-0.4136,-0.4164,-0.4194,-0.4232,-0.4232,-0.4215,-0.418,-0.418,-0.4161,-0.4125,-0.4125,-0.4145,-0.4177,-0.4153,-0.4139,-0.4136,-0.4041,-0.4,-0.3997,-0.3965,-0.3951,-0.3951,-0.3951,-0.3951,-0.3951,-0.3951,-0.3951,-0.3951,-0.3951,-0.3951,-0.3951,-0.3951,-0.4071,-0.4438,-0.5172,-0.554,-0.6154,-0.7011,-0.7378,-0.7505,-0.7872,-0.7834,-0.7801,-0.7801,-0.7763,-0.7725,-0.7725,-0.7725,-0.7703,-0.7638,-0.7627,-0.7606,-0.7529,-0.7519,-0.7486,-0.7383,-0.741,-0.7442,-0.7442,-0.7486,-0.7519,-0.7519,-0.7519,-0.7519,-0.7519,-0.7519,-0.7519,-0.7519,-0.7519,-0.7519,-0.7519,-0.7519,-0.7519,-0.7519,-0.7589,-0.7627,-0.7627,-0.7693,-0.7752,-0.7801,-0.7801,-0.7774,-0.1554,0.0,0.0,-0.156,-0.1609,-0.1662,-0.1692,-0.1715,-0.1744,-0.1797,-0.1951,-0.2098,-0.2345,-0.2659,-0.2975,-0.3103,-0.3496,-0.3761,-0.3638,-0.373,-0.3935,-0.3891,-0.3924,-0.3951,-0.3951,-0.3951,-0.3973,-0.403,-0.4049,-0.4106,-0.421,-0.4232,-0.4262,-0.4305,-0.4308,-0.4286,-0.4243,-0.4243,-0.4221,-0.4177,-0.4177,-0.4199,-0.424,-0.4224,-0.4207,-0.4185,-0.4079,-0.4036,-0.403,-0.3973,-0.3951,-0.3951,-0.3951,-0.3951,-0.3951,-0.3951,-0.3951,-0.3951,-0.3951,-0.3951,-0.3951,-0.3951,-0.3951,-0.4071,-0.4681,-0.5418,-0.6031,-0.6766,-0.7378,-0.7872,-0.7872,-0.7872,-0.7872,-0.7872,-0.7872,-0.7872,-0.7872,-0.7872,-0.7845,-0.7763,-0.7747,-0.772,-0.7633,-0.7616,-0.7616,-0.7616,-0.7616,-0.7606,-0.7573,-0.7595,-0.7616,-0.7616,-0.7616,-0.7616,-0.7616,-0.7616,-0.7616,-0.7616,-0.7616,-0.7616,-0.7616,-0.7616,-0.7616,-0.7616,-0.7703,-0.7747,-0.7747,-0.7834,-0.7872,-0.7872,-0.7872,-0.7888,0.0,0.0,-0.1584,-0.1644,-0.1703,-0.1753,-0.1785,-0.1791,-0.1801,-0.1832,-0.2044,-0.2292,-0.2435,-0.2646,-0.2994,-0.3383,-0.3491,-0.3581,-0.383,-0.3951,-0.3951,-0.3948,-0.3948,-0.3951,0.0,-0.3951,-0.3973,-0.403,-0.409,-0.415,-0.4213,-0.4273,-0.4305,-0.4308,-0.4308,-0.4308,-0.4305,-0.4305,-0.4305,-0.4303,-0.4303,-0.4303,-0.4303,-0.4243,-0.4185,-0.4125,-0.4063,-0.4036,-0.403,-0.3973,-0.3951,-0.3951,-0.3951,-0.3951,-0.3951,-0.3951,-0.3951,-0.3951,-0.3951,-0.3951,-0.3951,-0.3951,-0.3951,-0.4071,-0.4681,-0.5418,-0.6031,-0.6766,-0.7378,-0.7872,-0.7872,-0.7872,-0.7872,-0.7872,-0.7872,-0.7872,-0.7872,-0.7872,-0.7872,-0.7867,-0.7867,-0.7867,-0.7861,-0.7861,-0.7861,-0.7861,-0.7861,-0.7818,-0.7709,-0.779,-0.7861,-0.7861,-0.7861,-0.7861,-0.7861,-0.7861,-0.7861,-0.7861,-0.7861,-0.7861,-0.7861,-0.7861,-0.7861,-0.7861,-0.7861,-0.7867,-0.7867,-0.7872,-0.7872,-0.7872,-0.7872,-0.7932,-0.1615,0.0,-0.1674,-0.1735,-0.1765,-0.1787,-0.1819,-0.1825,-0.1828,-0.1838,-0.208,-0.2327,-0.2351,-0.2852,-0.3247,-0.342,-0.3596,-0.3867,-0.3833,-0.3984,-0.3978,-0.3899,-0.3927,0.0,0.0,0.0,-0.4008,-0.4145,-0.4136,-0.4204,-0.4384,-0.4376,-0.4384,-0.4422,-0.4422,-0.4406,-0.4368,-0.4368,-0.4346,-0.4308,-0.4349,-0.4368,-0.4368,-0.4346,-0.4327,-0.43,-0.4199,-0.4155,-0.415,-0.409,-0.4065,-0.4065,-0.4065,-0.4065,-0.4063,-0.4022,-0.4006,-0.4,-0.3965,-0.3951,-0.3951,-0.3951,-0.3951,-0.4071,-0.4681,-0.5418,-0.6031,-0.6766,-0.7378,-0.7872,-0.7872,-0.7872,-0.7872,-0.7872,-0.7872,-0.7872,-0.7872,-0.7872,-0.7872,-0.7872,-0.7872,-0.7872,-0.7872,-0.7872,-0.7872,-0.7872,-0.7872,-0.7856,-0.7818,-0.7845,-0.7872,-0.7872,-0.7872,-0.7872,-0.7872,-0.7872,-0.7872,-0.7872,-0.7872,-0.7872,-0.7872,-0.7872,-0.7872,-0.7872,-0.7872,-0.7872,-0.7872,-0.7872,-0.7915,-0.7992,-0.7992,-0.8057,-0.1699,-0.1729,-0.1753,-0.1825,-0.1835,-0.1832,-0.1853,-0.1857,-0.185,-0.1828,-0.207,-0.2314,-0.2417,-0.2909,-0.331,-0.3607,-0.3817,-0.4,-0.3984,-0.4011,-0.4006,-0.3932,-0.3956,-0.3956,0.0,0.0,0.0,-0.4174,-0.4147,-0.4213,-0.4409,-0.4387,-0.4382,-0.442,-0.442,-0.4403,-0.4365,-0.4365,-0.4346,-0.4308,-0.4346,-0.4365,-0.4365,-0.4365,-0.4365,-0.436,-0.4259,-0.4215,-0.4213,-0.415,-0.4125,-0.4125,-0.4125,-0.4125,-0.412,-0.4082,-0.4065,-0.4055,-0.3978,-0.3951,-0.3951,-0.3951,-0.3951,-0.4071,-0.4681,-0.5418,-0.6031,-0.6766,-0.7378,-0.7872,-0.7872,-0.7872,-0.7872,-0.7872,-0.7872,-0.7872,-0.7872,-0.7872,-0.7872,-0.7872,-0.7872,-0.7872,-0.7872,-0.7872,-0.7872,-0.7872,-0.7872,-0.7872,-0.7872,-0.7872,-0.7872,-0.7872,-0.7872,-0.7872,-0.7872,-0.7872,-0.7872,-0.7872,-0.7872,-0.7872,-0.7872,-0.7872,-0.7872,-0.7872,-0.7915,-0.7937,-0.7937,-0.7981,-0.804,-0.8117,-0.8117,-0.8182,-0.1741,-0.178,-0.1825,-0.1914,-0.1911,-0.1888,-0.1888,-0.1884,-0.1865,-0.1806,-0.2018,-0.2363,0.0,0.0,-0.3305,-0.3818,-0.391,-0.3978,-0.4033,-0.4044,-0.4046,0.0,0.0,0.0,0.0,0.0,0.0,-0.4125,-0.4128,-0.418,-0.4305,-0.4308,-0.4308,-0.4308,-0.4308,-0.4308,-0.4308,-0.4308,-0.4308,-0.4308,-0.4308,-0.4308,-0.4308,-0.4308,-0.4308,-0.4305,-0.4245,-0.4221,-0.4215,-0.4158,-0.4134,-0.4134,-0.4134,-0.4134,-0.4134,-0.4131,-0.4131,-0.4115,-0.4,-0.3956,-0.3954,-0.3951,-0.3951,-0.4071,-0.4681,-0.5418,-0.6031,-0.6766,-0.7378,-0.7872,-0.7872,-0.7872,-0.7872,-0.7872,-0.7872,-0.7872,-0.7872,-0.7872,-0.7872,-0.7872,-0.7872,-0.7872,-0.7872,-0.7872,-0.7872,-0.7872,-0.7872,-0.7872,-0.7872,-0.7872,-0.7872,-0.7872,-0.7872,-0.7872,-0.7872,-0.7872,-0.7872,-0.7877,-0.7883,-0.7883,-0.7888,-0.7888,-0.7888,-0.7888,-0.8002,-0.8062,-0.8062,-0.8182,-0.8236,-0.8247,-0.8247,-0.8312,-0.185,-0.1907,-0.1941,-0.1985,-0.1958,-0.1919,-0.1919,-0.1866,-0.1813,-0.1798,-0.2222,-0.2516,0.0,0.0,0.0,-0.3657,-0.3897,0.0,-0.4101,-0.418,0.0,-0.4174,0.0,-0.4147,-0.4087,-0.4093,0.0,0.0,-0.4153,-0.4199,-0.4365,-0.4333,-0.4308,-0.4308,-0.4308,-0.4308,-0.4308,-0.4308,-0.4308,-0.4308,-0.4308,-0.4308,-0.4308,-0.4308,-0.4308,-0.4308,-0.4292,-0.4283,-0.4283,-0.4267,-0.4262,-0.4262,-0.4262,-0.4262,-0.4256,-0.421,-0.4194,-0.4183,-0.4106,-0.4052,-0.4006,-0.3965,-0.3951,-0.4071,-0.4681,-0.5418,-0.6031,-0.6766,-0.7378,-0.7872,-0.7872,-0.7872,-0.7872,-0.7872,-0.7872,-0.7872,-0.7872,-0.7872,-0.7872,-0.7872,-0.7872,-0.7872,-0.7872,-0.7872,-0.7872,-0.7872,-0.7872,-0.7872,-0.7872,-0.7872,-0.7872,-0.7872,-0.7872,-0.7872,-0.7872,-0.7872,-0.791,-0.8002,-0.8008,-0.8046,-0.8138,-0.8144,-0.8144,-0.8144,-0.8171,-0.8187,-0.8187,-0.822,-0.828,-0.8372,-0.8372,-0.8432,-0.1924,-0.1982,-0.2019,-0.2034,-0.1984,-0.1928,-0.1914,-0.1851,-0.1783,-0.1853,-0.226,0.0,-0.2577,-0.3112,-0.3567,0.0,0.0,0.0,-0.4125,-0.4232,-0.4286,0.0,-0.4215,0.0,-0.4131,-0.415,-0.418,0.0,-0.4185,-0.4221,-0.4352,-0.4327,-0.4308,-0.4308,-0.4308,-0.4308,-0.4308,-0.4308,-0.4308,-0.4308,-0.4308,-0.4308,-0.4308,-0.4308,-0.4308,-0.4308,-0.4308,-0.4308,-0.4308,-0.4308,-0.4308,-0.4308,-0.4308,-0.4308,-0.4303,-0.427,-0.4256,-0.4248,-0.4185,-0.4142,-0.4104,-0.4046,-0.4027,-0.4153,-0.4774,-0.5276,-0.5651,-0.6402,-0.6993,-0.7454,-0.7454,-0.7664,-0.7872,-0.7872,-0.7872,-0.7883,-0.7937,-0.7954,-0.7964,-0.8019,-0.803,-0.803,-0.803,-0.803,-0.803,-0.803,-0.803,-0.803,-0.803,-0.7986,-0.7954,-0.7954,-0.7997,-0.803,-0.803,-0.803,-0.8062,-0.8127,-0.8133,-0.8166,-0.8231,-0.8236,-0.8236,-0.8236,-0.8291,-0.8318,-0.8318,-0.8367,-0.8454,-0.8573,-0.8573,-0.8633,-0.1978,-0.2024,-0.2064,-0.2064,-0.1997,-0.1924,-0.1898,-0.1835,-0.187,-0.1991,0.0,-0.2457,-0.2714,-0.3112,-0.3447,-0.3556,0.0,-0.4112,-0.4134,-0.4234,-0.4292,-0.4245,-0.424,-0.4215,-0.4155,-0.4204,-0.424,-0.424,-0.4248,-0.4273,-0.4316,-0.4319,-0.4322,-0.433,-0.4324,-0.4319,-0.4319,-0.4311,-0.4308,-0.4308,-0.4308,-0.4308,-0.4308,-0.4308,-0.4308,-0.4308,-0.4308,-0.4308,-0.4308,-0.4308,-0.4308,-0.4308,-0.4308,-0.4308,-0.4308,-0.4308,-0.4308,-0.43,-0.4245,-0.4229,-0.4218,-0.4147,-0.4125,-0.4254,-0.4897,-0.5151,-0.5279,-0.605,-0.6633,-0.7069,-0.7195,-0.75,-0.7921,-0.7921,-0.7921,-0.7948,-0.8057,-0.8079,-0.8111,-0.8214,-0.8236,-0.8236,-0.8236,-0.8236,-0.8236,-0.8236,-0.8236,-0.8236,-0.8236,-0.8144,-0.8079,-0.8079,-0.8171,-0.8236,-0.8236,-0.8236,-0.8242,-0.8258,-0.8258,-0.8263,-0.828,-0.828,-0.828,-0.828,-0.8383,-0.8448,-0.8465,-0.8562,-0.8677,-0.8796,-0.8796,-0.8851,-0.2027,-0.2056,-0.2064,-0.2064,-0.1997,-0.1929,-0.1925,-0.1931,0.0,0.0,-0.2328,-0.2658,-0.2608,-0.3058,-0.3433,-0.3501,-0.3777,-0.4033,-0.418,-0.4262,-0.4322,0.0,-0.4368,-0.4343,-0.4281,-0.4333,0.0,0.0,-0.4412,-0.442,-0.4384,-0.4382,-0.4403,-0.445,-0.4406,-0.4382,-0.4382,-0.4333,-0.4308,-0.4308,-0.4308,-0.4308,-0.4308,-0.4308,-0.4308,-0.4308,-0.4308,0.0,-0.4308,-0.4308,-0.4308,-0.4308,-0.4308,-0.4308,-0.4308,-0.4308,-0.4308,-0.4305,-0.4294,-0.4292,-0.4273,-0.4161,-0.4125,-0.4254,-0.4897,-0.5151,-0.5408,-0.6695,-0.7065,-0.7306,-0.7821,-0.806,-0.8171,-0.8171,-0.8171,-0.8176,-0.8198,-0.8204,-0.8209,-0.8231,-0.8236,-0.8236,-0.8236,-0.8236,-0.8236,-0.8236,-0.8236,-0.8236,-0.8236,-0.8214,-0.8204,-0.8204,-0.822,-0.8236,-0.8236,-0.8236,-0.828,-0.8378,-0.8383,-0.8426,-0.8524,-0.8524,-0.8524,-0.8524,-0.8546,-0.8606,-0.8709,-0.8731,-0.8802,-0.8921,-0.8921,-0.8932,-0.2048,-0.2064,-0.206,-0.2045,-0.1985,-0.1914,-0.1851,0.0,0.0,0.0,-0.2374,-0.2609,-0.2648,-0.3036,0.0,-0.3395,-0.3687,-0.3965,-0.4145,-0.4221,0.0,-0.4387,-0.4398,-0.4387,-0.4357,-0.4409,-0.4442,-0.4442,-0.4466,-0.4471,-0.4444,-0.4442,-0.4455,-0.4482,-0.4455,-0.4442,-0.4442,-0.4414,-0.4398,-0.4398,-0.4398,-0.4384,-0.4354,-0.4354,-0.4338,-0.4308,-0.4308,-0.4308,-0.4308,-0.4308,-0.4308,-0.4308,-0.4308,-0.4308,-0.4308,-0.4308,-0.4308,-0.4308,-0.4308,-0.4308,-0.4297,-0.424,-0.4221,-0.4221,-0.4613,-0.5007,-0.5402,-0.6058,-0.6679,-0.7288,-0.7682,-0.8023,-0.8236,-0.8236,-0.8285,-0.8329,-0.8329,-0.8378,-0.8416,-0.8416,-0.8416,-0.8416,-0.8416,-0.8416,-0.8416,-0.8416,-0.8416,-0.8416,-0.8416,-0.8416,-0.8394,-0.8334,-0.8383,-0.8416,-0.8416,-0.8416,-0.8443,-0.8503,-0.8568,-0.8628,-0.8682,-0.8742,-0.8774,-0.8774,-0.8774,-0.8807,-0.8867,-0.8867,-0.8927,-0.9046,-0.9046,-0.9079,-0.2041,-0.2049,-0.2045,-0.2009,-0.1955,-0.1881,-0.1765,-0.1874,0.0,0.0,-0.2325,-0.2576,-0.2809,-0.3016,-0.3224,0.0,-0.3589,-0.3853,-0.406,-0.4139,-0.4229,0.0,-0.439,0.0,-0.4414,-0.4469,0.0,-0.4501,-0.4515,-0.4515,-0.4501,-0.4515,-0.4521,-0.4521,-0.451,-0.4501,-0.4501,-0.4488,-0.4482,-0.4482,-0.4482,-0.4461,-0.4417,-0.4417,-0.439,-0.4343,-0.4333,-0.4327,-0.4324,-0.4313,-0.4308,-0.4308,-0.4308,-0.4308,-0.4308,-0.4308,-0.4308,-0.4308,-0.4308,-0.4308,-0.4308,-0.4308,-0.4308,-0.4308,-0.4308,-0.4842,-0.5383,-0.5513,-0.6402,-0.7398,-0.7529,-0.7987,-0.8312,-0.8312,-0.8383,-0.8454,-0.8454,-0.8546,-0.8628,-0.8628,-0.8649,-0.8666,-0.8666,-0.8666,-0.8666,-0.8666,-0.8666,-0.8666,-0.8666,-0.8666,-0.8633,-0.8541,-0.859,-0.8638,-0.866,-0.8666,-0.8666,-0.8666,-0.8758,-0.8807,-0.8807,-0.8899,-0.8954,-0.8954,-0.8954,-0.8965,-0.8992,-0.8992,-0.9052,-0.9171,-0.9198,-0.9258,-0.199,-0.2003,-0.2009,-0.1954,-0.1894,-0.1824,-0.173,0.0,0.0,-0.2085,-0.2475,-0.2807,-0.2856,-0.2976,-0.3139,-0.3368,0.0,-0.3632,-0.3927,-0.4016,-0.4117,-0.4294,0.0,0.0,-0.4469,-0.4529,-0.4564,-0.4564,-0.4616,-0.4624,-0.4567,-0.4619,-0.4649,-0.4649,-0.4594,-0.4564,-0.4564,-0.451,-0.4482,-0.4482,-0.4482,-0.448,-0.4474,-0.4474,-0.4471,-0.4463,-0.4412,-0.439,0.0,-0.433,-0.4308,-0.4308,-0.4308,-0.4308,-0.4308,-0.4308,-0.4308,-0.4308,-0.4308,-0.4308,-0.4308,-0.4308,-0.4308,-0.4308,-0.4308,-0.4842,-0.5513,-0.6183,-0.6844,-0.7636,-0.8302,-0.8562,-0.8557,-0.8557,-0.8562,-0.8573,-0.8573,-0.8666,-0.8753,-0.8753,-0.8845,-0.8916,-0.8916,-0.8916,-0.8916,-0.8916,-0.8916,-0.8916,-0.8916,-0.8916,-0.8916,-0.8905,-0.8812,-0.8796,-0.891,-0.8916,-0.8916,-0.8916,-0.8927,-0.8932,-0.8932,-0.8948,-0.8954,-0.8954,-0.8954,-0.9008,-0.9117,-0.9117,-0.9177,-0.9291,-0.94,-0.9459,-0.197,-0.1985,-0.1979,-0.1919,-0.1872,-0.1808,-0.1891,0.0,-0.2124,-0.2185,-0.2487,-0.2736,-0.276,-0.2891,-0.3049,-0.3221,-0.3297,-0.3441,-0.3744,-0.3837,-0.397,-0.4224,-0.4338,0.0,0.0,0.0,-0.4627,-0.4627,-0.4651,-0.4654,-0.463,-0.4651,-0.4665,-0.4665,-0.464,-0.4627,-0.4627,-0.4605,-0.4591,-0.4591,-0.4591,-0.4572,-0.4537,-0.4537,-0.4518,-0.448,-0.4458,-0.445,0.0,-0.4422,-0.4412,-0.4412,-0.4412,-0.4412,-0.4412,-0.4412,-0.4412,-0.4412,-0.4412,-0.4412,-0.4412,-0.4412,-0.4412,-0.4401,-0.433,-0.5111,-0.6049,-0.6317,-0.725,-0.8184,-0.859,-0.8644,-0.8715,-0.8791,-0.8807,-0.8807,-0.8807,-0.8845,-0.8878,-0.8878,-0.8916,-0.8954,-0.8954,-0.8954,-0.8954,-0.8954,-0.8954,-0.8954,-0.8954,-0.8954,-0.8981,-0.9052,-0.8954,-0.8899,-0.8948,-0.8954,-0.8954,-0.8954,-0.9019,-0.9063,-0.9063,-0.9128,-0.916,-0.916,-0.916,-0.9226,-0.9345,-0.9345,-0.941,-0.9525,-0.9574,-0.9595,-0.1933,-0.1956,-0.1951,-0.1899,-0.1855,-0.179,0.0,-0.2022,-0.2171,-0.2318,-0.2534,-0.2698,-0.2717,-0.2837,-0.2978,-0.3117,-0.3177,-0.3313,-0.3632,-0.3714,-0.3847,-0.4128,0.0,-0.4371,-0.4507,-0.4608,-0.4665,-0.4665,-0.4665,-0.4665,-0.4665,-0.4665,-0.4665,-0.4665,-0.4665,-0.4665,-0.4665,-0.4665,-0.4665,-0.4665,-0.4665,-0.4643,-0.46,-0.46,-0.4578,-0.4534,-0.4518,-0.451,0.0,-0.4491,-0.4482,-0.4482,-0.4482,-0.4482,-0.4482,-0.4482,-0.4482,-0.4482,-0.4482,-0.4482,-0.4482,-0.4482,-0.4482,-0.4466,-0.4384,-0.5308,-0.6529,-0.6529,-0.7341,-0.8423,-0.8693,-0.8622,-0.857,-0.8793,-0.8954,-0.8954,-0.8954,-0.8981,-0.9003,-0.9003,-0.9035,-0.9057,-0.9057,-0.9057,-0.9057,-0.9057,-0.9057,-0.9057,-0.9057,-0.9057,-0.909,-0.9177,-0.9106,-0.9057,-0.9057,-0.9057,-0.9057,-0.9057,-0.9139,-0.9182,-0.9182,-0.9296,-0.9356,-0.9356,-0.9394,-0.9454,-0.9541,-0.9541,-0.9584,-0.9671,-0.9704,-0.9737,-0.187,-0.1909,-0.1924,-0.1894,-0.184,-0.1874,-0.1952,-0.2095,-0.214,-0.2357,-0.2562,-0.2711,-0.2771,-0.2834,-0.2932,-0.3112,-0.3139,-0.3267,-0.3627,-0.3679,-0.3768,0.0,0.0,-0.4199,-0.4382,-0.4559,-0.4665,-0.4665,-0.4665,-0.4665,-0.4665,-0.4665,-0.4665,-0.4665,-0.4665,-0.4665,-0.4665,-0.4665,-0.4665,-0.4665,-0.4665,-0.4665,-0.4662,-0.4662,-0.4662,-0.466,-0.46,-0.4572,0.0,-0.4507,-0.4482,-0.4482,-0.4482,-0.4482,-0.4482,-0.4482,-0.4482,-0.4482,-0.4482,-0.4482,-0.4482,-0.4482,-0.4482,-0.4482,-0.448,-0.5597,-0.6713,-0.6713,-0.727,-0.797,-0.867,-0.8387,-0.797,-0.867,-0.8954,-0.8954,-0.8954,-0.9046,-0.9133,-0.9133,-0.9226,-0.9302,-0.9302,-0.9302,-0.9302,-0.9302,-0.9302,-0.9302,-0.9302,-0.9302,-0.9302,-0.9302,-0.9302,-0.9302,-0.9302,-0.9302,-0.9302,-0.9302,-0.9302,-0.9302,-0.9302,-0.9421,-0.9487,-0.9487,-0.9606,-0.9666,-0.9666,-0.9666,-0.9666,-0.9671,-0.9786,-0.99,-0.1756,-0.18,-0.1821,-0.175,-0.1719,-0.1783,-0.2072,-0.2147,-0.223,-0.2621,-0.265,-0.2711,-0.2771,-0.2834,-0.2946,-0.3166,-0.3202,-0.3283,-0.3521,0.0,0.0,-0.4016,-0.4305,-0.4518,0.0,-0.4632,-0.4665,-0.4665,-0.4665,-0.4665,-0.4665,-0.4665,-0.4665,-0.4665,-0.4665,-0.4665,-0.4665,-0.4665,-0.4665,-0.4665,-0.4665,-0.4665,-0.4665,-0.4665,-0.4665,-0.4662,-0.4643,-0.4635,-0.4635,-0.4616,-0.4608,-0.4608,-0.4608,-0.4608,-0.4608,-0.4608,-0.4608,-0.4608,-0.4608,-0.4608,-0.4608,-0.4608,-0.4608,-0.4608,-0.4608,-0.5257,-0.6019,-0.6438,-0.7553,-0.8552,-0.8349,-0.851,-0.8813,-0.9029,-0.9193,-0.9193,-0.9193,-0.9226,-0.9253,-0.9253,-0.928,-0.9302,-0.9302,-0.9302,-0.9302,-0.9302,-0.9302,-0.9302,-0.9302,-0.9378,-0.9427,-0.9427,-0.9503,-0.9519,-0.9438,-0.9427,-0.9465,-0.9546,-0.9552,-0.9552,-0.9552,-0.959,-0.9612,-0.9612,-0.965,-0.9709,-0.9786,-0.9786,-0.9829,-0.9911,-0.9943,-1.003,0.0,-0.1707,-0.1731,-0.1677,-0.1654,-0.1725,-0.2027,-0.2114,-0.2208,-0.2529,-0.2632,-0.2676,-0.2738,-0.2798,-0.2897,-0.3068,-0.3134,-0.324,0.0,0.0,0.0,-0.4044,0.0,0.0,0.0,-0.4638,-0.4665,-0.4665,-0.4665,-0.4665,-0.4665,-0.4665,-0.4665,-0.4665,-0.4665,-0.4665,-0.4665,-0.4665,-0.4665,-0.4665,-0.4665,-0.4665,-0.4665,-0.4665,-0.4665,-0.4665,-0.4665,-0.4665,0.0,-0.4665,-0.4665,-0.4665,-0.4665,-0.4665,-0.4665,-0.4665,-0.4665,-0.4665,-0.4665,-0.4665,-0.4665,-0.4665,-0.4665,-0.4665,-0.4665,-0.5186,-0.5827,-0.6536,-0.7385,-0.8111,-0.8031,-0.8336,-0.8785,-0.9141,-0.9302,-0.9302,-0.9302,-0.9302,-0.9302,-0.9302,-0.934,-0.9372,-0.9372,-0.941,-0.9443,-0.9443,-0.9443,-0.9443,-0.9443,-0.9508,-0.9557,-0.9557,-0.9622,-0.9655,-0.9622,-0.9579,-0.959,-0.9666,-0.9671,-0.9671,-0.9671,-0.9709,-0.9731,-0.9731,-0.978,-0.9835,-0.9905,-0.9905,-0.997,-1.009,-1.009,-1.0155,0.0,-0.162,-0.1645,-0.1641,-0.162,-0.1685,-0.1813,-0.199,0.0,-0.2341,-0.2514,-0.2624,-0.2698,-0.2749,-0.2812,-0.2899,-0.3003,-0.3177,0.0,-0.358,0.0,0.0,-0.4308,0.0,-0.4491,-0.4597,-0.4665,-0.4665,-0.4665,-0.4665,-0.4665,-0.4665,-0.4665,-0.4665,-0.4665,-0.4665,-0.4665,-0.4665,-0.4665,-0.4665,-0.4665,-0.4665,-0.4665,-0.4665,-0.4665,-0.4665,-0.4665,-0.4665,-0.4665,-0.4665,-0.4665,-0.4665,-0.4665,-0.4665,-0.4665,-0.4665,-0.4665,-0.4665,-0.4665,-0.4665,-0.4665,-0.4665,-0.4665,-0.4665,-0.4665,-0.5244,-0.5974,-0.67,-0.699,-0.7276,-0.7851,-0.814,-0.843,-0.9157,-0.9302,-0.9307,-0.9313,-0.9318,-0.9318,-0.9329,-0.9421,-0.9497,-0.9497,-0.9595,-0.9671,-0.9671,-0.9671,-0.9671,-0.9671,-0.9677,-0.9682,-0.9682,-0.9688,-0.9737,-0.984,-0.9748,-0.9688,-0.9693,-0.9693,-0.9693,-0.9693,-0.9796,-0.9851,-0.9851,-0.997,-1.003,-1.003,-1.0041,-1.0106,-1.0215,-1.0215,-1.028,-0.1369,0.0,-0.1478,-0.1433,-0.1433,-0.1524,0.0,-0.1971,-0.2119,0.0,0.0,-0.2662,-0.2858,-0.2834,-0.2894,-0.3232,-0.3308,-0.3398,-0.3605,-0.3886,0.0,-0.4373,-0.4518,-0.4608,-0.4621,-0.4649,-0.4665,-0.4665,-0.4665,-0.4665,-0.4665,-0.4665,-0.4665,-0.4665,-0.4665,-0.4665,-0.4665,-0.4665,-0.4665,-0.4665,-0.4665,-0.4665,-0.4665,-0.4665,-0.4665,-0.4665,-0.4665,-0.4665,-0.4665,-0.4665,-0.4665,-0.4665,-0.4665,-0.4665,-0.4665,-0.4665,-0.4665,-0.4665,-0.4665,-0.4665,-0.4665,-0.4665,-0.4665,-0.4665,-0.4665,-0.5244,-0.5829,-0.597,-0.6986,-0.7851,-0.7996,-0.8574,-0.9013,-0.9302,-0.9302,-0.9329,-0.9421,-0.9443,-0.947,-0.9568,-0.9606,-0.9628,-0.9628,-0.965,-0.9671,-0.9671,-0.9671,-0.9671,-0.9671,-0.9748,-0.9796,-0.9796,-0.9883,-0.9949,-0.9976,-0.9867,-0.984,-0.9932,-0.9938,-0.9938,-0.9938,-0.9965,-0.9976,-0.9976,-1.0095,-1.0161,-1.0161,-1.0253,-1.0313,-1.034,-1.034,-1.0405,-0.1261,-0.1346,-0.1427,-0.1396,-0.1399,-0.1495,-0.1825,0.0,0.0,0.0,0.0,0.0,-0.2766,-0.2812,-0.2918,-0.3199,-0.3341,0.0,0.0,0.0,-0.4324,-0.4501,-0.4608,-0.4665,-0.4665,-0.4665,-0.4665,-0.4665,-0.4665,-0.4665,-0.4665,-0.4665,-0.4665,-0.4665,-0.4665,-0.4665,-0.4665,-0.4665,-0.4665,-0.4665,-0.4665,-0.4665,-0.4665,-0.4665,-0.4665,-0.4665,-0.4665,-0.4665,-0.4665,-0.4665,-0.4665,-0.4665,-0.4665,-0.4665,-0.4665,-0.4665,-0.4665,-0.4665,-0.4665,-0.4665,-0.4665,-0.4665,-0.4665,-0.4665,-0.4665,-0.4956,-0.5392,-0.568,-0.6696,-0.7711,-0.7996,-0.876,-0.9389,-0.9389,-0.9432,-0.9492,-0.9557,-0.9574,-0.959,-0.9655,-0.9709,-0.9748,-0.9748,-0.9791,-0.9829,-0.9829,-0.9829,-0.9829,-0.9829,-0.9883,-0.9921,-0.9921,-0.9981,-1.0019,-1.0019,-1.0008,-1.0008,-1.0019,-1.0019,-1.0019,-1.0019,-1.0074,-1.0128,-1.0188,-1.0253,-1.0286,-1.0286,-1.0356,-1.0411,-1.0465,-1.0465,-1.0525,-0.1227,-0.1332,-0.143,-0.1412,-0.1418,-0.1426,-0.1683,0.0,0.0,0.0,0.0,0.0,0.0,-0.2804,0.0,0.0,0.0,0.0,-0.4008,-0.4213,-0.4384,-0.4553,-0.4627,-0.4665,-0.4665,-0.4665,-0.4665,-0.4665,-0.4665,-0.4665,-0.4665,-0.4665,-0.4665,-0.4665,-0.4665,-0.4665,-0.4665,-0.4665,-0.4665,-0.4665,-0.4665,-0.4665,-0.4665,-0.4665,-0.4665,-0.4665,-0.4665,0.0,-0.4665,-0.4665,-0.4665,-0.4665,-0.4665,-0.4665,-0.4665,-0.4665,-0.4665,-0.4665,-0.4665,-0.4665,-0.4665,-0.4665,-0.4665,-0.4665,-0.4665,-0.467,-0.497,-0.5696,-0.657,-0.7297,-0.8019,-0.8982,-0.9514,-0.9514,-0.9595,-0.9671,-0.9693,-0.9693,-0.9699,-0.972,-0.9802,-0.9867,-0.9867,-0.9949,-1.0019,-1.0019,-1.0019,-1.0025,-1.0047,-1.0047,-1.0057,-1.0074,-1.0074,-1.0074,-1.0074,-1.0172,-1.0188,-1.0085,-1.0074,-1.0074,-1.0074,-1.0177,-1.028,-1.0384,-1.0405,-1.0411,-1.0411,-1.0433,-1.0487,-1.0585,-1.0585,-1.0639,-0.1299,-0.138,-0.1411,-0.131,-0.1341,-0.147,0.0,0.0,0.0,0.0,0.0,0.0,0.0,-0.3038,-0.3144,0.0,0.0,-0.3943,0.0,0.0,-0.4431,-0.4559,-0.4627,-0.4665,-0.4665,-0.4665,-0.4665,-0.4665,-0.4665,-0.4665,-0.4665,-0.4665,-0.4665,-0.4665,-0.4665,-0.4665,-0.4665,-0.4665,-0.4665,-0.4665,-0.4665,-0.4665,-0.4665,-0.4665,-0.4665,-0.4665,0.0,-0.4665,-0.4665,-0.4665,-0.4665,-0.4665,-0.4665,-0.4665,-0.4665,-0.4665,-0.4665,-0.4665,-0.4665,-0.4665,-0.4665,-0.4665,-0.4665,-0.4665,-0.4665,-0.47,-0.5037,-0.6507,-0.7096,-0.7538,-0.8867,-0.9546,-0.9644,-0.9644,-0.9655,-0.9699,-0.9791,-0.9813,-0.984,-0.9943,-0.9981,-0.9992,-0.9992,-1.0008,-1.0019,-1.0019,-1.0019,-1.0057,-1.0161,-1.0177,-1.0215,-1.0318,-1.0329,-1.0329,-1.0329,-1.0346,-1.0351,-1.0329,-1.0329,-1.0329,-1.0329,-1.0346,-1.0367,-1.0384,-1.0481,-1.053,-1.053,-1.0634,-1.0693,-1.071,-1.071,-1.0721,-0.123,-0.1317,-0.1374,-0.132,-0.1397,-0.1569,0.0,0.0,0.0,0.0,0.0,0.0,0.0,0.0,-0.3335,-0.3758,0.0,-0.4145,-0.4294,-0.439,-0.4488,-0.4608,-0.4649,-0.4665,-0.4665,-0.4665,-0.4665,-0.4665,-0.4665,-0.4665,-0.4665,-0.4665,-0.4665,-0.4665,-0.4665,-0.4665,-0.4665,-0.4665,-0.4665,-0.4665,-0.4665,-0.4665,-0.4665,-0.4665,-0.4665,-0.4665,0.0,-0.4665,-0.4665,-0.4665,-0.4665,-0.4665,-0.4665,-0.4665,-0.4665,-0.4665,-0.4665,-0.4665,-0.4665,-0.4665,-0.4665,-0.4665,-0.4687,-0.4714,-0.4714,-0.5052,-0.57,-0.6892,-0.719,-0.7638,-0.9138,-0.9671,-0.9758,-0.9758,-0.9813,-0.9873,-0.9927,-0.9938,-0.9954,-1.0008,-1.0019,-1.0019,-1.0019,-1.0074,-1.0117,-1.0117,-1.0177,-1.0237,-1.0297,-1.0302,-1.0324,-1.0378,-1.0384,-1.0384,-1.0384,-1.0443,-1.0449,-1.0389,-1.0384,-1.0411,-1.0476,-1.0476,-1.0509,-1.0574,-1.0628,-1.0655,-1.0655,-1.071,-1.0737,-1.0737,-1.0737,-1.0737,-0.1194,-0.1272,-0.1343,-0.1278,0.0,0.0,0.0,0.0,0.0,0.0,0.0,0.0,0.0,-0.3244,0.0,-0.3916,-0.412,-0.4275,-0.4384,-0.4447,-0.4529,-0.4649,-0.4665,-0.4665,-0.4665,-0.4665,-0.4665,-0.4665,-0.4665,-0.4665,-0.4665,-0.4665,-0.4665,-0.4665,-0.4665,-0.4665,-0.4665,-0.4665,-0.4665,-0.4665,-0.4665,-0.4665,-0.4665,-0.4665,-0.4665,-0.4665,-0.4665,-0.4665,-0.4665,-0.4665,-0.4665,-0.4665,-0.4665,-0.4665,-0.4665,-0.4665,-0.4665,-0.4668,-0.4681,-0.4684,-0.4687,-0.4703,-0.4739,-0.4777,-0.4777,-0.5416,-0.6225,-0.7133,-0.7452,-0.792,-0.9413,-0.9796,-0.9878,-0.9878,-0.9949,-1.0019,-1.0019,-1.0019,-1.0019,-1.0019,-1.0041,-1.0063,-1.0063,-1.0166,-1.0248,-1.0248,-1.0324,-1.0394,-1.0422,-1.0427,-1.0438,-1.0465,-1.0471,-1.0471,-1.0471,-1.0547,-1.0563,-1.0471,-1.0471,-1.0509,-1.0596,-1.0596,-1.0645,-1.0737,-1.0737,-1.0737,-1.0737,-1.0737,-1.0737,-1.0737,-1.0737,-1.0737,-0.1303,-0.1321,-0.1325,-0.1408,0.0,0.0,-0.152,0.0,0.0,0.0,0.0,0.0,0.0,-0.3444,-0.3932,-0.4014,-0.4183,-0.4324,-0.439,-0.4447,-0.4529,-0.4649,-0.4665,-0.4665,-0.4665,-0.4665,-0.4665,-0.4665,-0.4665,-0.4665,-0.4665,-0.4665,-0.4665,-0.4665,-0.4665,-0.4665,-0.4665,-0.4665,-0.4665,-0.4665,-0.4665,-0.4665,-0.4665,-0.4665,-0.4665,-0.4665,-0.4665,-0.4665,-0.4665,-0.4665,-0.4665,-0.4665,-0.4665,-0.4665,-0.4665,-0.4665,-0.4665,-0.4673,-0.473,-0.4749,-0.4758,-0.4815,-0.4837,-0.4839,-0.4839,-0.5486,-0.6305,-0.7225,-0.8061,-0.8886,-0.955,-0.9916,-1.0008,-1.0008,-1.0014,-1.0019,-1.0019,-1.0019,-1.0019,-1.0019,-1.0112,-1.0188,-1.0188,-1.0291,-1.0373,-1.0373,-1.0378,-1.0422,-1.053,-1.0541,-1.0585,-1.0699,-1.071,-1.071,-1.071,-1.0721,-1.0721,-1.071,-1.071,-1.0715,-1.0721,-1.0726,-1.0726,-1.0737,-1.0737,-1.0737,-1.0737,-1.0737,-1.0737,-1.0737,-1.0737,-1.0737,-0.1246,-0.1283,-0.132,-0.1389,0.0,0.0,0.0,0.0,0.0,0.0,0.0,0.0,0.0,0.0,-0.3896,-0.4082,-0.4213,-0.4327,-0.439,-0.448,-0.4556,-0.4602,-0.464,-0.4665,-0.4665,-0.4665,-0.4665,-0.4665,-0.4665,-0.4665,-0.4665,-0.4665,-0.4665,-0.4665,-0.4665,-0.4665,-0.4665,-0.4665,-0.4665,-0.4665,-0.4665,-0.4665,-0.4665,-0.4665,-0.4665,-0.4665,-0.4665,-0.4665,-0.4665,-0.4665,-0.4665,-0.4665,-0.4665,-0.4665,-0.467,-0.4706,-0.4722,-0.473,-0.479,-0.4812,-0.4815,-0.4839,-0.4872,-0.4902,-0.5511,-0.6326,-0.7162,-0.8097,-0.89,-0.9547,-0.981,-0.9987,-1.0019,-1.0019,-1.0019,-1.0019,-1.0019,-1.0079,-1.0134,-1.0134,-1.0231,-1.0318,-1.0318,-1.0416,-1.0492,-1.0492,-1.0558,-1.0617,-1.0661,-1.0666,-1.0683,-1.0732,-1.0737,-1.0737,-1.0737,-1.0737,-1.0737,-1.0737,-1.0737,-1.0737,-1.0737,-1.0737,-1.0737,-1.0737,-1.0737,-1.0737,-1.0737,-1.0737,-1.0737,-1.0737,-1.107,-1.107,-0.1223,-0.1264,-0.1317,0.0,0.0,0.0,0.0,0.0,0.0,0.0,0.0,0.0,0.0,0.0,0.0,0.0,-0.4229,-0.4327,-0.439,-0.4469,-0.4523,-0.4542,-0.46,-0.4635,-0.4635,-0.4654,-0.4665,-0.4665,-0.4665,-0.4665,-0.4665,-0.4665,-0.4665,-0.4665,-0.4665,-0.4665,-0.4665,-0.4665,-0.4665,-0.4665,-0.4665,-0.4665,-0.4665,-0.4665,-0.4665,-0.4665,-0.4665,-0.4665,-0.4665,-0.4665,-0.4665,-0.4665,-0.4665,-0.4665,-0.4673,-0.4733,-0.4755,-0.4766,-0.4848,-0.4875,-0.4877,-0.4897,-0.4929,-0.5117,-0.6042,-0.6855,-0.7681,-0.8622,-0.9402,-1.0019,-1.0019,-1.0019,-1.0019,-1.0019,-1.0019,-1.003,-1.0068,-1.0144,-1.0215,-1.0253,-1.0356,-1.0438,-1.0438,-1.0536,-1.0612,-1.0612,-1.0683,-1.0737,-1.0737,-1.0737,-1.0737,-1.0737,-1.0737,-1.0737,-1.0737,-1.0737,-1.0737,-1.0737,-1.0737,-1.0737,-1.0737,-1.0737,-1.0737,-1.0737,-1.0737,-1.0737,-1.0737,-1.0737,-1.0737,-1.0737,-1.1237,-1.1403,-0.1265,-0.1279,-0.1317,0.0,0.0,0.0,0.0,0.0,0.0,0.0,0.0,0.0,-0.385,0.0,0.0,-0.4117,-0.4229,-0.4327,-0.439,-0.4398,-0.442,-0.4474,-0.4537,-0.4572,-0.4572,-0.4627,-0.4662,-0.4662,-0.4662,-0.4662,-0.4662,-0.4662,-0.4662,-0.4662,-0.4662,-0.4662,-0.4662,-0.4662,-0.4662,-0.4665,-0.4665,-0.4665,-0.4665,-0.4665,-0.4665,-0.4665,-0.4665,-0.4665,-0.4665,-0.4665,-0.4665,-0.4665,-0.4665,-0.4665,-0.4673,-0.4733,-0.4755,-0.4774,-0.4897,-0.4937,-0.4946,-0.5003,-0.5022,-0.5179,-0.6118,-0.69,-0.7681,-0.8622,-0.9402,-1.0019,-1.0019,-1.0019,-1.0019,-1.0019,-1.0019,-1.0057,-1.0177,-1.0204,-1.0242,-1.0362,-1.0481,-1.0558,-1.0558,-1.0655,-1.0737,-1.0737,-1.0737,-1.0737,-1.0737,-1.0737,-1.0737,-1.0737,-1.0737,-1.0737,-1.0737,-1.0737,-1.0737,-1.0737,-1.0737,-1.0737,-1.0737,-1.0737,-1.0737,-1.0737,-1.0737,-1.0737,-1.0737,-1.0737,-1.0737,-1.0737,-1.1237,-1.1403,-0.1234,-0.1264,0.0,0.0,0.0,0.0,0.0,0.0,0.0,0.0,0.0,-0.2849,-0.3854,0.0,0.0,-0.4172,-0.4221,-0.4264,-0.4324,-0.4371,-0.4403,-0.4422,-0.4474,-0.451,-0.451,-0.4526,-0.4537,-0.4537,-0.4537,-0.4537,-0.4537,-0.4537,-0.4537,-0.4537,-0.4537,-0.4556,-0.46,-0.46,-0.4621,-0.4665,-0.4665,-0.4665,-0.4665,-0.4665,-0.4665,-0.4665,-0.4665,-0.4665,-0.4665,-0.4665,-0.4665,-0.4665,-0.4665,-0.4665,-0.4676,-0.4782,-0.4818,-0.4837,-0.4954,-0.4995,-0.4997,-0.5014,-0.5022,-0.5335,-0.6744,-0.7369,-0.7838,-0.9241,-0.9864,-1.0019,-1.0019,-1.0085,-1.015,-1.015,-1.015,-1.0182,-1.0307,-1.0394,-1.046,-1.0498,-1.0601,-1.0683,-1.0683,-1.0715,-1.0737,-1.0737,-1.0737,-1.0737,-1.0737,-1.0737,-1.0737,-1.0737,-1.0737,-1.0737,-1.0737,-1.0737,-1.0737,-1.0737,-1.0737,-1.0737,-1.0737,-1.0737,-1.0737,-1.0737,-1.0737,-1.0904,-1.1237,-1.1237,-1.1403,-1.1736,-1.2069,-1.2235,-0.1185,0.0,0.0,0.0,0.0,0.0,0.0,0.0,0.0,0.0,0.0,-0.3154,-0.391,-0.4201,0.0,-0.4204,-0.4237,-0.4264,-0.4303,-0.4338,-0.4362,-0.4362,-0.4414,-0.445,-0.445,-0.4469,-0.4482,-0.4482,-0.4482,-0.4482,-0.4482,-0.4482,-0.4482,-0.4482,-0.4482,-0.4499,-0.4537,-0.4537,-0.4567,-0.4627,-0.4627,-0.464,-0.4665,-0.4665,-0.4665,-0.4665,-0.4665,-0.4665,-0.4665,-0.4665,-0.4665,-0.4665,-0.4665,-0.4679,-0.4711,-0.4809,-0.4861,-0.4897,-0.4989,-0.5022,-0.5022,-0.5022,-0.5022,-0.5332,-0.7056,-0.7525,-0.7838,-0.9553,-1.0019,-1.003,-1.0079,-1.015,-1.0204,-1.0204,-1.0242,-1.0307,-1.0427,-1.0509,-1.0568,-1.0617,-1.0688,-1.0737,-1.0737,-1.0737,-1.0737,-1.0737,-1.0737,-1.0737,-1.0737,-1.0737,-1.0737,-1.0737,-1.0737,-1.0737,-1.0737,-1.0737,-1.0737,-1.0737,-1.0737,-1.0737,-1.0737,-1.0737,-1.0737,-1.0737,-1.0904,-1.107,-1.1403,-1.157,-1.1902,-1.2069,-1.2567,-1.2733,-0.1078,0.0,0.0,0.0,0.0,0.0,-0.3045,0.0,-0.3702,-0.2837,0.0,-0.403,-0.4161,-0.426,-0.421,-0.4215,-0.4267,-0.4308,-0.4308,-0.4308,-0.4308,-0.4308,-0.4357,-0.439,-0.439,-0.4436,-0.4466,-0.4466,-0.4466,-0.4466,-0.4466,-0.4466,-0.4466,-0.4466,-0.4466,-0.4469,-0.4474,-0.4474,-0.4504,-0.4564,-0.457,-0.4602,-0.4657,-0.4662,-0.4665,-0.4665,-0.4665,-0.4665,-0.4665,-0.4665,-0.4665,-0.4665,-0.4665,-0.47,-0.4763,-0.4823,-0.4883,-0.4946,-0.5,-0.5022,-0.5176,-0.5022,-0.5022,-0.5492,-0.7056,-0.7525,-0.7838,-0.9553,-1.0019,-1.0047,-1.0172,-1.021,-1.0221,-1.0231,-1.0318,-1.0433,-1.0547,-1.0574,-1.0606,-1.0715,-1.0737,-1.0737,-1.0737,-1.0737,-1.0737,-1.0737,-1.0737,-1.0737,-1.0737,-1.0737,-1.0737,-1.0737,-1.0737,-1.0737,-1.0737,-1.0737,-1.0737,-1.0737,-1.0737,-1.0737,-1.0737,-1.0737,-1.0737,-1.0737,-1.1237,-1.1403,-1.157,-1.1902,-1.2235,-1.2235,-1.2567,-1.2733,0.0,-0.1395,0.0,0.0,0.0,-0.2549,-0.2706,-0.3332,-0.3828,-0.3702,-0.3836,-0.3981,-0.4027,-0.4223,-0.4161,-0.421,-0.4267,-0.4308,-0.4308,-0.4308,-0.4308,-0.4308,-0.4319,-0.4327,-0.4327,-0.4338,-0.4346,-0.4346,-0.4346,-0.4346,-0.4346,-0.4346,-0.4346,-0.4346,-0.4346,-0.4368,-0.4417,-0.4417,-0.4444,-0.4501,-0.4551,-0.458,-0.4594,-0.4643,-0.4665,-0.4665,-0.4665,-0.4665,-0.4665,-0.4665,-0.4665,-0.4665,-0.4665,-0.47,-0.4763,-0.4823,-0.4883,-0.4946,-0.5,-0.5492,-0.5962,-0.5176,-0.5489,-0.6275,-0.7213,-0.7525,-0.7838,-0.9553,-1.0019,-1.0047,-1.0172,-1.0275,-1.0367,-1.046,-1.0503,-1.0552,-1.0672,-1.0699,-1.0704,-1.0732,-1.0737,-1.0737,-1.0737,-1.0737,-1.0737,-1.0737,-1.0737,-1.0737,-1.0737,-1.0737,-1.0737,-1.0737,-1.0737,-1.0737,-1.0737,-1.0737,-1.0737,-1.0737,-1.0737,-1.0737,-1.0737,-1.0737,-1.0904,-1.1237,-1.1403,-1.1736,-1.2401,-1.2567,-1.2733,-1.3065,-1.3238,-1.3231,0.0,0.0,0.0,-0.1981,0.0,-0.2714,-0.3086,-0.3579,-0.3951,-0.3951,-0.3849,-0.4,-0.403,-0.4085,-0.4147,-0.4207,-0.4243,-0.4273,-0.4303,-0.4308,-0.4308,-0.4308,-0.4308,-0.4308,-0.4308,-0.4308,-0.4308,-0.4308,-0.4308,-0.4308,-0.4308,-0.4308,-0.4308,-0.4308,-0.4308,-0.4322,-0.4354,-0.4354,-0.4384,-0.4442,-0.4474,-0.4518,-0.4575,-0.4635,-0.4665,-0.4665,-0.4665,-0.4665,-0.4665,-0.4665,-0.4665,-0.4665,-0.4665,-0.4719,-0.4801,-0.4834,-0.4902,-0.4981,-0.5011,-0.5648,-0.6275,-0.5802,-0.6118,-0.7056,-0.7838,-0.815,-0.8306,-0.9708,-1.0063,-1.0134,-1.0259,-1.0378,-1.0498,-1.0612,-1.0645,-1.0661,-1.0721,-1.0737,-1.0737,-1.0737,-1.0737,-1.0737,-1.0737,-1.0737,-1.0737,-1.0737,-1.0737,-1.0737,-1.0737,-1.0737,-1.0737,-1.0737,-1.0737,-1.0737,-1.0737,-1.0737,-1.0737,-1.0737,-1.0737,-1.0737,-1.107,-1.107,-1.107,-1.1403,-1.1736,-1.2235,-1.2733,-1.2899,-1.3231,-1.3403,-1.3403,-1.3403,0.0,0.0,-0.1703,-0.2283,-0.2526,0.0,-0.3702,-0.3951,-0.3951,-0.3951,-0.3862,-0.3894,-0.4019,-0.4071,-0.4125,-0.4177,-0.4194,-0.4221,-0.4283,-0.4292,-0.4294,-0.4305,-0.4308,-0.4308,-0.4308,-0.4308,-0.4308,-0.4308,-0.4308,-0.4308,-0.4308,-0.4308,-0.4308,-0.4308,-0.4308,-0.4308,-0.4308,-0.4308,-0.4333,-0.4384,-0.4392,-0.4461,-0.4575,-0.4627,-0.4654,-0.4665,-0.4665,-0.4665,-0.4665,-0.4665,-0.4665,-0.4665,-0.4665,-0.4733,-0.4831,-0.4842,-0.4913,-0.5008,-0.5016,-0.5648,-0.6431,-0.6118,-0.6744,-0.7681,-0.831,-0.8622,-0.8778,-0.9708,-1.0106,-1.0231,-1.0356,-1.0471,-1.0585,-1.071,-1.0737,-1.0737,-1.0737,-1.0737,-1.0737,-1.0737,-1.0737,-1.0737,-1.0737,-1.0737,-1.0737,-1.0737,-1.0737,-1.0737,-1.0737,-1.0737,-1.0737,-1.0737,-1.0737,-1.0737,-1.0737,-1.0737,-1.0737,-1.0904,-1.0904,-1.107,-1.157,-1.157,-1.157,-1.157,-1.2401,-1.2733,-1.2899,-1.3238,-1.3403,-1.3403,-1.3403,-1.3403,0.0,0.0,-0.1784,0.0,-0.2266,-0.2426,0.0,0.0,-0.3951,0.0,-0.3956,-0.3962,-0.3962,-0.4008,-0.4049,-0.4057,-0.4104,-0.4158,-0.4221,-0.4229,-0.4248,-0.43,-0.4308,-0.4308,-0.4308,-0.4308,-0.4308,-0.4308,-0.4308,-0.4308,-0.4308,-0.4308,-0.4308,-0.4308,-0.4308,-0.4308,-0.4308,-0.4308,-0.4311,-0.4319,-0.4373,-0.4461,-0.4572,-0.458,-0.4616,-0.4665,-0.4665,-0.4665,-0.4665,-0.4665,-0.4665,-0.4665,-0.4665,-0.4706,-0.4774,-0.4826,-0.4888,-0.4954,-0.5003,-0.5962,-0.7056,-0.5645,-0.6271,-0.7525,-0.7681,-0.7681,-0.7994,-0.9553,-1.0106,-1.0231,-1.0356,-1.0471,-1.0585,-1.071,-1.0737,-1.0737,-1.0737,-1.0737,-1.0737,-1.0737,-1.0737,-1.0737,-1.0737,-1.0737,-1.0737,-1.0737,-1.0737,-1.0737,-1.0737,-1.0737,-1.0737,-1.0737,-1.0737,-1.0737,-1.0737,-1.0737,-1.0904,-1.1237,-1.1237,-1.157,-1.2069,-1.2401,-1.2567,-1.2567,-1.2567,-1.2899,-1.3231,-1.3397,-1.3403,-1.3403,-1.3403,-1.3403,-0.1102,-0.1445,-0.1727,0.0,-0.2336,-0.2389,-0.3643,-0.3927,-0.3951,-0.3951,-0.3951,-0.3951,-0.3951,-0.397,-0.3997,-0.403,-0.4057,-0.4095,-0.4158,-0.4166,-0.4188,-0.4248,-0.4256,-0.427,-0.4305,-0.4308,-0.4308,-0.4308,-0.4308,-0.4308,-0.4308,-0.4308,-0.4308,-0.4308,-0.4308,-0.4308,-0.4308,-0.4308,-0.4308,-0.4308,-0.4335,-0.4392,-0.4477,-0.4507,-0.4575,-0.4665,-0.4665,-0.4665,-0.4665,-0.4665,-0.4665,-0.4665,-0.4665,-0.47,-0.4763,-0.4823,-0.4883,-0.4946,-0.5,-0.6115,-0.7369,-0.6587,-0.7521,-0.8929,-0.8929,-0.8929,-0.91,-0.9944,-1.021,-1.0335,-1.0449,-1.0568,-1.0672,-1.0726,-1.0737,-1.0737,-1.0737,-1.0737,-1.0737,-1.0737,-1.0737,-1.0737,-1.0737,-1.0737,-1.0737,-1.0737,-1.0737,-1.0737,-1.0737,-1.0737,-1.0737,-1.0737,-1.0737,-1.0737,-1.0737,-1.0737,-1.0904,-1.1403,-1.1403,-1.1736,-1.2401,-1.2567,-1.2899,-1.3065,-1.3065,-1.3231,-1.3403,-1.3403,-1.3403,-1.3403,-1.3403,-1.3403,0.0,0.0,-0.1606,-0.2222,-0.2466,-0.2674,0.0,0.0,-0.3932,-0.3948,-0.3951,-0.3951,-0.3951,-0.3951,-0.3965,-0.4006,-0.4014,-0.4033,-0.4093,-0.4104,-0.4125,-0.4185,-0.4194,-0.4218,-0.4278,-0.4283,-0.4292,-0.4305,-0.4308,-0.4308,-0.4308,-0.4308,-0.4308,-0.4308,-0.4308,-0.4308,-0.4308,-0.4308,-0.4308,-0.4308,-0.4308,-0.4341,-0.4401,-0.4442,-0.4526,-0.4643,-0.4657,-0.4665,-0.4665,-0.4665,-0.4665,-0.4665,-0.4665,-0.47,-0.4763,-0.4823,-0.4883,-0.4946,-0.5,-0.6115,-0.7525,-0.7213,-0.815,-0.9397,-0.9553,-0.9553,-0.9422,-1.0008,-1.0291,-1.0411,-1.0525,-1.0645,-1.0737,-1.0737,-1.0737,-1.0737,-1.0737,-1.0737,-1.0737,-1.0737,-1.0737,-1.0737,-1.0737,-1.0737,-1.0737,-1.0737,-1.0737,-1.0737,-1.0737,-1.0737,-1.0737,-1.0737,-1.0737,-1.0737,-1.0737,-1.0737,-1.0904,-1.157,-1.157,-1.1902,-1.2899,-1.2899,-1.3065,-1.3403,-1.3403,-1.3403,-1.3403,-1.3403,-1.3403,-1.3403,-1.3403,-1.3403,0.0,-0.1243,0.0,-0.1631,-0.2606,0.0,0.0,0.0,-0.388,-0.3937,-0.3951,-0.3951,-0.3951,-0.3951,-0.3951,-0.3954,-0.3954,-0.3976,-0.403,-0.4038,-0.4063,-0.4123,-0.4131,-0.4155,-0.4215,-0.4221,-0.4245,-0.4303,-0.4308,-0.4308,-0.4308,-0.4308,-0.4308,-0.4308,-0.4308,-0.4308,-0.4308,-0.4308,-0.4308,-0.4308,-0.4308,-0.4341,-0.4398,-0.4401,-0.4466,-0.458,-0.464,-0.4665,-0.4665,-0.4665,-0.4665,-0.4665,-0.4665,-0.47,-0.4763,-0.4823,-0.4883,-0.4946,-0.5,-0.6115,-0.7369,-0.6587,-0.69,-0.7838,-0.8622,-0.8306,-0.8015,-0.9692,-1.0291,-1.0411,-1.0525,-1.0645,-1.0737,-1.0737,-1.0737,-1.0737,-1.0737,-1.0737,-1.0737,-1.0737,-1.0737,-1.0737,-1.0737,-1.0737,-1.0737,-1.0737,-1.0737,-1.0737,-1.0737,-1.0737,-1.0737,-1.0737,-1.0737,-1.0737,-1.0737,-1.0737,-1.107,-1.2069,-1.2069,-1.2401,-1.3403,-1.3403,-1.3403,-1.3403,-1.3403,-1.3403,-1.3403,-1.3403,-1.3403,-1.3403,-1.3403,-1.3403,0.0,0.0,0.0,-0.1774,-0.2728,-0.3575,-0.3507,-0.3706,-0.3867,-0.3888,-0.3924,-0.3951,-0.3951,-0.3951,-0.3951,-0.3951,-0.3951,-0.3956,-0.3978,-0.3981,-0.4003,-0.406,-0.4068,-0.409,-0.4153,-0.4158,-0.4166,-0.4188,-0.4191,-0.4191,-0.4191,-0.4229,-0.4248,-0.4248,-0.4286,-0.4308,-0.4308,-0.4308,-0.4308,-0.4308,-0.4308,-0.4319,-0.4341,-0.4379,-0.4442,-0.4518,-0.458,-0.4627,-0.4665,-0.4665,-0.4665,-0.4665,-0.4665,-0.47,-0.4763,-0.4823,-0.4883,-0.4946,-0.5,-0.6115,-0.7525,-0.7213,-0.7681,-0.8466,-0.9246,-0.8934,-0.8655,-0.9945,-1.0351,-1.0427,-1.0623,-1.0704,-1.0737,-1.0737,-1.0737,-1.0737,-1.0737,-1.0737,-1.0737,-1.0737,-1.0737,-1.0737,-1.0737,-1.0737,-1.0737,-1.0737,-1.0737,-1.0737,-1.0737,-1.0737,-1.0737,-1.0737,-1.0737,-1.0737,-1.0737,-1.0904,-1.1403,-1.2069,-1.2401,-1.2733,-1.3397,-1.3403,-1.3403,-1.3403,-1.3403,-1.3403,-1.3403,-1.3403,-1.3403,-1.3403,-1.3403,-1.3403,-0.1212,0.0,0.0,0.0,0.0,-0.3186,-0.3352,-0.355,-0.3709,-0.3809,-0.3877,-0.3927,-0.3948,-0.3951,-0.3951,-0.3951,-0.3951,-0.3951,-0.3951,-0.3951,-0.3965,-0.4003,-0.4006,-0.403,-0.409,-0.4095,-0.4104,-0.4125,-0.4125,-0.4125,-0.4125,-0.4164,-0.4196,-0.4215,-0.4256,-0.4286,-0.4308,-0.4308,-0.4308,-0.4308,-0.4308,-0.4308,-0.4308,-0.4349,-0.4398,-0.4458,-0.4518,-0.4589,-0.4665,-0.4665,-0.4665,-0.4665,-0.4665,-0.4714,-0.479,-0.4831,-0.4897,-0.497,-0.5008,-0.5962,-0.7056,-0.7056,-0.7525,-0.815,-0.9241,-0.909,-0.8664,-0.9998,-1.0384,-1.0443,-1.0677,-1.0737,-1.0737,-1.0737,-1.0737,-1.0737,-1.0737,-1.0737,-1.0737,-1.0737,-1.0737,-1.0737,-1.0737,-1.0737,-1.0737,-1.0737,-1.0737,-1.0737,-1.0737,-1.0737,-1.0737,-1.0737,-1.0737,-1.0737,-1.0904,-1.1237,-1.1736,-1.2235,-1.2567,-1.2899,-1.3403,-1.3403,-1.3403,-1.3403,-1.3403,-1.3403,-1.3403,-1.3403,-1.3403,-1.3403,-1.3403,-1.3403,0.0,0.0,0.0,0.0,0.0,0.0,-0.3267,-0.3349,-0.3395,-0.3698,-0.3807,-0.3867,-0.3932,-0.3946,-0.3948,-0.3948,-0.3948,-0.3951,-0.3951,-0.3951,-0.3951,-0.3951,-0.3951,-0.3973,-0.4027,-0.4033,-0.4057,-0.4115,-0.412,-0.412,-0.412,-0.4123,-0.415,-0.4213,-0.4213,-0.4243,-0.4305,-0.4305,-0.4305,-0.4308,-0.4308,-0.4308,-0.4308,-0.4308,-0.4341,-0.4401,-0.4455,-0.4548,-0.4662,-0.4662,-0.4665,-0.4665,-0.4665,-0.4739,-0.4845,-0.4845,-0.4921,-0.5022,-0.5022,-0.5648,-0.6275,-0.6275,-0.6275,-0.6587,-0.831,-0.8154,-0.7876,-0.9838,-1.0384,-1.0443,-1.0677,-1.0737,-1.0737,-1.0737,-1.0737,-1.0737,-1.0737,-1.0737,-1.0737,-1.0737,-1.0737,-1.0737,-1.0737,-1.0737,-1.0737,-1.0737,-1.0737,-1.0737,-1.0737,-1.0737,-1.0737,-1.0737,-1.0737,-1.0904,-1.1403,-1.1403,-1.1736,-1.2567,-1.2733,-1.2899,-1.3403,-1.3403,-1.3403,-1.3403,-1.3403,-1.3403,-1.3403,-1.3403,-1.3403,-1.3403,-1.3403,-1.3403,-0.1423,0.0,0.0,0.0,0.0,0.0,-0.2771,-0.2946,-0.3144,-0.345,-0.3523,-0.3594,-0.3785,-0.3856,-0.3886,-0.3886,-0.3921,-0.3951,-0.3951,-0.3951,-0.3951,-0.3951,-0.3951,-0.3956,-0.3973,-0.3973,-0.3981,-0.3997,-0.4,-0.4,-0.4,-0.4038,-0.4087,-0.415,-0.415,-0.418,-0.424,-0.4243,-0.4264,-0.4308,-0.4308,-0.4308,-0.4308,-0.4308,-0.4341,-0.4398,-0.4414,-0.4488,-0.4602,-0.4646,-0.4665,-0.4665,-0.4665,-0.4739,-0.4845,-0.4845,-0.4921,-0.5022,-0.5022,-0.5648,-0.6275,-0.6275,-0.6275,-0.6587,-0.831,-0.8154,-0.7876,-0.9838,-1.0384,-1.0443,-1.0677,-1.0737,-1.0737,-1.0737,-1.0737,-1.0737,-1.0737,-1.0737,-1.0737,-1.0737,-1.0737,-1.0737,-1.0737,-1.0737,-1.0737,-1.0737,-1.0737,-1.0737,-1.0737,-1.0737,-1.0737,-1.0737,-1.0737,-1.0904,-1.1403,-1.1736,-1.2069,-1.2733,-1.3065,-1.3231,-1.3403,-1.3403,-1.3403,-1.3403,-1.3403,-1.3403,-1.3403,-1.3403,-1.3403,-1.3403,-1.3403,-1.3512,0.0,0.0,0.0,0.0,0.0,0.0,-0.264,-0.2763,-0.291,-0.3264,-0.3376,-0.3463,-0.3624,-0.3725,-0.3785,-0.3785,-0.3856,-0.3921,-0.3948,-0.3951,-0.3951,-0.3951,-0.3951,-0.3951,-0.3951,-0.3951,-0.3951,-0.3951,-0.3951,-0.3951,-0.3951,-0.3981,-0.4027,-0.4085,-0.4087,-0.4117,-0.4177,-0.4204,-0.4234,-0.427,-0.4294,-0.4308,-0.4308,-0.4308,-0.4327,-0.4362,-0.4387,-0.445,-0.454,-0.4602,-0.464,-0.4665,-0.4665,-0.4739,-0.4845,-0.4845,-0.4921,-0.5022,-0.5022,-0.5332,-0.5802,-0.5802,-0.5958,-0.6587,-0.7838,-0.8154,-0.8351,-0.9998,-1.0454,-1.0563,-1.0699,-1.0737,-1.0737,-1.0737,-1.0737,-1.0737,-1.0737,-1.0737,-1.0737,-1.0737,-1.0737,-1.0737,-1.0737,-1.0737,-1.0737,-1.0737,-1.0737,-1.0737,-1.0737,-1.0737,-1.0737,-1.0737,-1.0904,-1.1237,-1.157,-1.2069,-1.2567,-1.2899,-1.3231,-1.3403,-1.3403,-1.3403,-1.3403,-1.3403,-1.3403,-1.3403,-1.3403,-1.3403,-1.3403,-1.3403,-1.3403,-1.3492,-0.0997,-0.1538,0.0,0.0,-0.2075,0.0,-0.2676,-0.2679,-0.2684,-0.3079,-0.3245,-0.3346,-0.3422,-0.3542,-0.3627,-0.3619,-0.3739,-0.3856,-0.3929,-0.3946,-0.3951,-0.3951,-0.3951,-0.3951,-0.3951,-0.3951,-0.3951,-0.3951,-0.3951,-0.3951,-0.3951,-0.3951,-0.3973,-0.4025,-0.4025,-0.4055,-0.4115,-0.4177,-0.421,-0.4218,-0.4278,-0.4308,-0.4308,-0.4308,-0.4308,-0.4311,-0.4365,-0.4425,-0.4488,-0.4542,-0.4602,-0.4665,-0.4665,-0.4739,-0.4845,-0.4845,-0.4921,-0.5022,-0.5022,-0.5022,-0.5022,-0.5176,-0.5645,-0.6275,-0.7369,-0.815,-0.8821,-0.9998,-1.0558,-1.0737,-1.0737,-1.0737,-1.0737,-1.0737,-1.0737,-1.0737,-1.0737,-1.0737,-1.0737,-1.0737,-1.0737,-1.0737,-1.0737,-1.0737,-1.0737,-1.0737,-1.0737,-1.0737,-1.0737,-1.0737,-1.0737,-1.0737,-1.107,-1.157,-1.2069,-1.2401,-1.2899,-1.3397,-1.3403,-1.3403,-1.3403,-1.3403,-1.3403,-1.3403,-1.3403,-1.3403,-1.3403,-1.3403,-1.3403,-1.3403,-1.3403,-1.341,-0.0359,-0.0945,-0.1766,-0.1936,-0.202,0.0,-0.23,-0.2343,-0.2452,-0.2679,-0.2744,-0.282,-0.3025,-0.3202,-0.3303,-0.3253,-0.3469,-0.3698,-0.3856,-0.3921,-0.3951,-0.3951,-0.3951,-0.3951,-0.3951,-0.3951,-0.3951,-0.3951,-0.3951,-0.3951,-0.3951,-0.3951,-0.3956,-0.3967,-0.3967,-0.3995,-0.4052,-0.4112,-0.4169,-0.4218,-0.4278,-0.4308,-0.4308,-0.4308,-0.4308,-0.4308,-0.4319,-0.4384,-0.4482,-0.4496,-0.4564,-0.4665,-0.4665,-0.4739,-0.4845,-0.4845,-0.4921,-0.5022,-0.5022,-0.5022,-0.5176,-0.5805,-0.5648,-0.5648,-0.7838,-0.8154,-0.819,-0.9838,-1.0558,-1.0737,-1.0737,-1.0737,-1.0737,-1.0737,-1.0737,-1.0737,-1.0737,-1.0737,-1.0737,-1.0737,-1.0737,-1.0737,-1.0737,-1.0737,-1.0737,-1.0737,-1.0737,-1.0737,-1.0737,-1.0737,-1.0737,-1.0737,-1.107,-1.157,-1.2069,-1.2401,-1.2899,-1.3397,-1.3403,-1.3403,-1.3403,-1.3403,-1.3403,-1.3403,-1.3403,-1.3403,-1.3403,-1.3403,-1.3403,-1.3403,-1.3403,-1.3464,-0.0,-0.0764,-0.1615,-0.1748,-0.1859,0.0,0.0,-0.2239,-0.2357,-0.2597,-0.26,-0.2621,-0.2831,-0.2946,-0.3016,-0.3044,-0.3278,-0.3488,-0.3578,-0.3747,-0.3861,-0.3861,-0.3888,-0.3905,-0.3905,-0.3932,-0.3951,-0.3951,-0.3951,-0.3951,-0.3951,-0.3951,-0.3951,-0.3951,-0.3951,-0.3965,-0.3992,-0.4052,-0.4112,-0.4172,-0.4234,-0.4278,-0.4308,-0.4308,-0.4308,-0.4308,-0.4308,-0.4373,-0.4482,-0.4482,-0.4553,-0.4665,-0.4665,-0.4739,-0.4845,-0.4845,-0.4921,-0.5022,-0.5022,-0.5022,-0.5019,-0.5489,-0.5645,-0.5962,-0.7681,-0.8535,-0.9114,-1.019,-1.0558,-1.0737,-1.0737,-1.0737,-1.0737,-1.0737,-1.0737,-1.0737,-1.0737,-1.0737,-1.0737,-1.0737,-1.0737,-1.0737,-1.0737,-1.0737,-1.0737,-1.0737,-1.0737,-1.0737,-1.0737,-1.0737,-1.0737,-1.0737,-1.1403,-1.1902,-1.2069,-1.2733,-1.3072,-1.3403,-1.3403,-1.3403,-1.3403,-1.3403,-1.3403,-1.3403,-1.3403,-1.3403,-1.3403,-1.3403,-1.3403,-1.3403,-1.3403,-1.3444,0.0648,-0.0162,-0.0981,-0.1222,0.0,-0.1708,0.0,0.0,0.0,-0.2542,-0.252,-0.2504,-0.2651,-0.2698,-0.2741,-0.2826,-0.3063,-0.3226,-0.3204,-0.345,-0.3649,-0.3695,-0.3763,-0.3807,-0.3807,-0.3842,-0.3883,-0.3929,-0.3899,-0.3902,-0.3948,-0.3951,-0.3951,-0.3951,-0.3951,-0.3951,-0.3951,-0.4006,-0.4065,-0.4125,-0.4188,-0.4248,-0.4308,-0.4308,-0.4308,-0.4308,-0.4308,-0.4373,-0.4482,-0.4482,-0.4553,-0.4665,-0.4665,-0.473,-0.4828,-0.4842,-0.4913,-0.5006,-0.5016,-0.5022,-0.5022,-0.5176,-0.5962,-0.69,-0.7369,-0.8921,-1.0384,-1.0384,-1.0558,-1.0737,-1.0737,-1.0737,-1.0737,-1.0737,-1.0737,-1.0737,-1.0737,-1.0737,-1.0737,-1.0737,-1.0737,-1.0737,-1.0737,-1.0737,-1.0737,-1.0737,-1.0737,-1.0737,-1.0737,-1.0737,-1.0737,-1.0904,-1.157,-1.2069,-1.2235,-1.2899,-1.3403,-1.3403,-1.3403,-1.3403,-1.3403,-1.3403,-1.3403,-1.3403,-1.3403,-1.3403,-1.3403,-1.3403,-1.3403,-1.3403,-1.3403,-1.3403,0.0,0.0,0.0,0.0,-0.0337,-0.0755,-0.1713,0.0,-0.2305,-0.2229,0.0,-0.221,-0.2231,0.0,0.0,-0.2411,-0.2698,-0.2888,-0.2779,-0.2976,-0.321,-0.3428,-0.355,-0.3619,-0.3619,-0.3575,-0.3638,-0.3856,-0.3719,-0.3722,-0.3937,-0.3951,-0.3951,-0.3951,-0.3951,-0.3951,-0.3951,-0.4006,-0.4065,-0.4125,-0.4188,-0.4248,-0.4308,-0.4308,-0.4308,-0.4308,-0.4308,-0.4373,-0.4482,-0.4482,-0.4553,-0.4665,-0.4665,-0.4706,-0.4771,-0.4826,-0.4888,-0.4954,-0.5003,-0.5022,-0.5179,-0.5958,-0.7213,-0.8466,-0.7681,-0.8921,-1.0384,-1.0384,-1.0558,-1.0737,-1.0737,-1.0737,-1.0737,-1.0737,-1.0737,-1.0737,-1.0737,-1.0737,-1.0737,-1.0737,-1.0737,-1.0737,-1.0737,-1.0737,-1.0737,-1.0737,-1.0737,-1.0737,-1.0737,-1.0737,-1.0904,-1.1237,-1.1736,-1.2235,-1.2567,-1.3065,-1.3403,-1.3403,-1.3403,-1.3403,-1.3403,-1.3403,-1.3403,-1.3403,-1.3403,-1.3403,-1.3403,-1.3403,-1.3403,-1.3403,-1.3403,-1.3403,0.0,0.0,0.0,0.0,0.0,0.0,-0.0948,0.0,-0.2095,0.0,0.0,0.0,0.0,0.0,0.0,0.0,-0.252,-0.2632,-0.2545,-0.2711,-0.2932,-0.3172,-0.3245,-0.333,-0.3471,-0.3463,-0.3518,-0.3689,-0.363,-0.3662,-0.3837,-0.3913,-0.3951,-0.3951,-0.3951,-0.3951,-0.3951,-0.3973,-0.4033,-0.4125,-0.4153,-0.4215,-0.4308,-0.4308,-0.4308,-0.4308,-0.4308,-0.4373,-0.4482,-0.4482,-0.4553,-0.4665,-0.4665,-0.47,-0.4763,-0.4823,-0.4883,-0.4946,-0.5,-0.5022,-0.5022,-0.5492,-0.6427,-0.7369,-0.7525,-0.8445,-0.9738,-1.0222,-1.0558,-1.0737,-1.0737,-1.0737,-1.0737,-1.0737,-1.0737,-1.0737,-1.0737,-1.0737,-1.0737,-1.0737,-1.0737,-1.0737,-1.0737,-1.0737,-1.0737,-1.0737,-1.0737,-1.0737,-1.0737,-1.0737,-1.0904,-1.1403,-1.1902,-1.2235,-1.2733,-1.3065,-1.3403,-1.3403,-1.3403,-1.3403,-1.3403,-1.3403,-1.3403,-1.3403,-1.3403,-1.3403,-1.3403,-1.3403,-1.3403,-1.3403,-1.3403,-1.3403,0.3218,0.0,0.0,0.0,0.0,0.0,0.0,0.0,0.0,0.0,-0.2283,0.0,0.0,0.0,0.0,0.0,0.0,-0.2477,-0.2384,-0.2499,-0.267,-0.2877,-0.2976,-0.3106,-0.3316,-0.3294,-0.3341,-0.3526,-0.3477,-0.3537,-0.3758,-0.3853,-0.3916,-0.3948,-0.3951,-0.3951,-0.3951,-0.3951,-0.4008,-0.4125,-0.4125,-0.4188,-0.4308,-0.4308,-0.4308,-0.4308,-0.4308,-0.4373,-0.4482,-0.4482,-0.4553,-0.4665,-0.4665,-0.4692,-0.4739,-0.4818,-0.4875,-0.4921,-0.4995,-0.5179,-0.5332,-0.5332,-0.6115,-0.7056,-0.7681,-0.8604,-0.9572,-1.0222,-1.0558,-1.0737,-1.0737,-1.0737,-1.0737,-1.0737,-1.0737,-1.0737,-1.0737,-1.0737,-1.0737,-1.0737,-1.0737,-1.0737,-1.0737,-1.0737,-1.0737,-1.0737,-1.0737,-1.0737,-1.0737,-1.0737,-1.107,-1.157,-1.2069,-1.2401,-1.2899,-1.3231,-1.3403,-1.3403,-1.3403,-1.3403,-1.3403,-1.3403,-1.3403,-1.3403,-1.3403,-1.3403,-1.3403,-1.3403,-1.3403,-1.3403,-1.3403,-1.3403,0.0,0.0,0.0,0.314,0.0,0.0,0.0,0.0,-0.1386,0.0,0.0,0.0,0.0,0.0,0.0,0.0,0.0,0.0,0.0,-0.2233,-0.2392,-0.2512,-0.2785,-0.3011,-0.3136,-0.2992,-0.3038,-0.3392,-0.3199,-0.3273,-0.3744,-0.3774,-0.3828,-0.3948,-0.3951,-0.3951,-0.3951,-0.3951,-0.4008,-0.4125,-0.4125,-0.4188,-0.4308,-0.4308,-0.4308,-0.4308,-0.4308,-0.4373,-0.4482,-0.4482,-0.4553,-0.4665,-0.4665,-0.4665,-0.4681,-0.4801,-0.4848,-0.4867,-0.4981,-0.5492,-0.6271,-0.6271,-0.7369,-0.8778,-0.8778,-0.956,-1.0384,-1.0384,-1.0558,-1.0737,-1.0737,-1.0737,-1.0737,-1.0737,-1.0737,-1.0737,-1.0737,-1.0737,-1.0737,-1.0737,-1.0737,-1.0737,-1.0737,-1.0737,-1.0737,-1.0737,-1.0737,-1.0737,-1.0737,-1.107,-1.157,-1.2069,-1.2401,-1.2899,-1.3403,-1.3403,-1.3403,-1.3403,-1.3403,-1.3403,-1.3403,-1.3403,-1.3403,-1.3403,-1.3403,-1.3403,-1.3403,-1.3403,-1.3403,-1.3403,-1.3403,-1.3403,0.0,0.0,0.4918,0.4196,0.0,0.0,0.0,0.0,0.0,0.0,0.0,0.0,0.0,0.0,0.0,0.0,0.0,0.0,0.0,-0.2106,-0.2183,-0.2422,0.0,0.0,-0.2728,-0.2815,-0.294,-0.3101,-0.3147,-0.3292,-0.3572,-0.3741,-0.3847,-0.3888,-0.3929,-0.3951,-0.3951,-0.3951,-0.4008,-0.4125,-0.4125,-0.4188,-0.4308,-0.4308,-0.4308,-0.4308,-0.4308,-0.4373,-0.4482,-0.4482,-0.4553,-0.4665,-0.4665,-0.4665,-0.4679,-0.4801,-0.4845,-0.4861,-0.4981,-0.5648,-0.6275,-0.6275,-0.7056,-0.7994,-0.8622,-0.9085,-0.9733,-1.0222,-1.0558,-1.0737,-1.0737,-1.0737,-1.0737,-1.0737,-1.0737,-1.0737,-1.0737,-1.0737,-1.0737,-1.0737,-1.0737,-1.0737,-1.0737,-1.0737,-1.0737,-1.0737,-1.0904,-1.1237,-1.1237,-1.157,-1.2069,-1.2401,-1.2567,-1.2899,-1.3403,-1.3403,-1.3403,-1.3403,-1.3403,-1.3403,-1.3403,-1.3403,-1.3403,-1.3403,-1.3403,-1.3403,-1.3403,-1.3403,-1.3403,-1.3403,-1.3403,-1.3403,0.5022,0.5173,0.0,0.4777,0.4353,0.0,0.2794,0.0,0.1714,0.0,0.0,0.0,0.0,0.0,0.0,0.0,0.0,0.0,0.0,-0.211,-0.2101,-0.2273,0.0,0.0,0.0,-0.2632,-0.2736,-0.2943,-0.2989,-0.3142,0.0,-0.3654,-0.3793,-0.3858,-0.3918,-0.3951,-0.3951,-0.3951,-0.4008,-0.4125,-0.4125,-0.4188,-0.4308,-0.4308,-0.4308,-0.4308,-0.4308,-0.4373,-0.4482,-0.4482,-0.4553,-0.4665,-0.4665,-0.4665,-0.4679,-0.4801,-0.4872,-0.4918,-0.4995,-0.5802,-0.6744,-0.6744,-0.7525,-0.8462,-0.9085,-0.9402,-0.9738,-1.0222,-1.0558,-1.0737,-1.0737,-1.0737,-1.0737,-1.0737,-1.0737,-1.0737,-1.0737,-1.0737,-1.0737,-1.0737,-1.0737,-1.0737,-1.0737,-1.0737,-1.0737,-1.0737,-1.107,-1.1403,-1.1403,-1.1902,-1.2401,-1.2733,-1.2899,-1.3065,-1.3397,-1.3403,-1.3403,-1.3403,-1.3403,-1.3403,-1.3403,-1.3403,-1.3403,-1.3403,-1.3403,-1.3403,-1.3403,-1.3403,-1.3403,-1.3403,-1.3403,-1.3403]}]]